[[{"header":{"parameterUnit":"m.s-1","parameterCategory":1,"la1":30.6,"la2":28.766,"lo1":-90.7593,"lo2":-88.6598,"dy":0.0162,"dx":0.0183,"nx":116,"ny":114,"refTime":"2023-10-31T12:00:00:Z","depth":0,"parameterNumber":2,"parameterNumberName":"U-component_of_WINDS"},"data":[0.0,0.0,0.0,0.0,0.0,0.0,0.0,0.0,0.0,0.0,0.0,0.0,0.0,0.0,0.0,0.0,0.0,0.0,0.0,0.0,0.0,0.0,0.0,0.0,0.0,0.0,0.0,0.0,0.0,0.0,0.0,0.0,0.0,0.0,0.0,0.0,0.0,0.0,0.0,0.0,0.0,0.0,0.0,0.0,0.0,0.0,0.0,0.0,0.0,0.0,0.0,0.0,0.0,0.0,0.0,0.0,0.0,0.0,0.0,0.0,0.0,0.0,0.0,0.0,0.0,0.0,0.0,0.0,0.0,0.0,0.0,0.0,0.0,0.0,0.0,0.0,0.0,0.0,0.0,0.0,0.0,0.0,0.0,0.0,0.0,0.0,0.0,0.0,0.0,0.0,0.0,0.0,0.0,0.0,0.0,0.0,0.0,0.0,0.0,0.0,0.0,0.0,0.0,0.0,0.0,0.0,0.0,0.0,0.0,0.0,0.0,0.0,0.0,0.0,0.0,0.0,0.0,0.0,0.0,0.0,0.0,0.0,0.0,0.0,0.0,0.0,0.0,0.0,0.0,0.0,0.0,0.0,0.0,0.0,0.0,0.0,0.0,0.0,0.0,0.0,0.0,0.0,0.0,0.0,0.0,0.0,0.0,0.0,0.0,0.0,0.0,0.0,0.0,0.0,0.0,0.0,0.0,0.0,0.0,0.0,0.0,0.0,0.0,0.0,0.0,0.0,0.0,0.0,0.0,0.0,0.0,0.0,0.0,0.0,0.0,0.0,0.0,0.0,0.0,0.0,0.0,0.0,0.0,0.0,0.0,0.0,0.0,0.0,0.0,0.0,0.0,0.0,0.0,0.0,0.0,0.0,0.0,0.0,0.0,0.0,0.0,0.0,0.0,0.0,0.0,0.0,0.0,0.0,0.0,0.0,0.0,0.0,0.0,0.0,0.0,0.0,0.0,0.0,0.0,0.0,0.0,0.0,0.0,0.0,0.0,0.0,0.0,0.0,0.0,0.0,0.0,0.0,0.0,0.0,0.0,0.0,0.0,0.0,0.0,0.0,0.0,0.0,0.0,0.0,0.0,0.0,0.0,0.0,0.0,0.0,0.0,0.0,0.0,0.0,0.0,0.0,0.0,0.0,0.0,0.0,0.0,0.0,0.0,0.0,0.0,0.0,0.0,0.0,0.0,0.0,0.0,0.0,0.0,0.0,0.0,0.0,0.0,0.0,0.0,0.0,0.0,0.0,0.0,0.0,0.0,0.0,0.0,0.0,0.0,0.0,0.0,0.0,0.0,0.0,0.0,0.0,0.0,0.0,0.0,0.0,0.0,0.0,0.0,0.0,0.0,0.0,0.0,0.0,0.0,0.0,0.0,0.0,0.0,0.0,0.0,0.0,0.0,0.0,0.0,0.0,0.0,0.0,0.0,0.0,0.0,0.0,0.0,0.0,0.0,0.0,0.0,0.0,0.0,0.0,0.0,0.0,0.0,0.0,0.0,0.0,0.0,0.0,0.0,0.0,0.0,0.0,0.0,0.0,0.0,0.0,0.0,0.0,0.0,0.0,0.0,0.0,0.0,0.0,0.0,0.0,0.0,0.0,0.0,0.0,0.0,0.0,0.0,0.0,0.0,0.0,0.0,0.0,0.0,0.0,0.0,0.0,0.0,0.0,0.0,0.0,0.0,0.0,0.0,0.0,0.0,0.0,0.0,0.0,0.0,0.0,0.0,0.0,0.0,0.0,0.0,0.0,0.0,0.0,0.0,0.0,0.0,0.0,0.0,0.0,0.0,0.0,0.0,0.0,0.0,0.0,0.0,0.0,0.0,0.0,0.0,0.0,0.0,0.0,0.0,0.0,0.0,0.0,0.0,0.0,0.0,0.0,0.0,0.0,0.0,0.0,0.0,0.0,0.0,0.0,0.0,0.0,0.0,0.0,0.0,0.0,0.0,0.0,0.0,0.0,0.0,0.0,0.0,0.0,0.0,0.0,0.0,0.0,0.0,0.0,0.0,0.0,0.0,0.0,0.0,0.0,0.0,0.0,0.0,0.0,0.0,0.0,0.0,0.0,0.0,0.0,0.0,0.0,0.0,0.0,0.0,0.0,0.0,0.0,0.0,0.0,0.0,0.0,0.0,0.0,0.0,0.0,0.0,0.0,0.0,0.0,0.0,0.0,0.0,0.0,0.0,0.0,0.0,0.0,0.0,0.0,0.0,0.0,0.0,0.0,0.0,0.0,0.0,0.0,0.0,0.0,0.0,0.0,0.0,0.0,0.0,0.0,0.0,0.0,0.0,0.0,0.0,0.0,0.0,0.0,0.0,0.0,0.0,0.0,0.0,0.0,0.0,0.0,0.0,0.0,0.0,0.0,0.0,0.0,0.0,0.0,0.0,0.0,0.0,0.0,0.0,0.0,0.0,0.0,0.0,0.0,0.0,0.0,0.0,0.0,0.0,0.0,0.0,0.0,0.0,0.0,0.0,0.0,0.0,0.0,0.0,0.0,0.0,0.0,0.0,0.0,0.0,0.0,0.0,0.0,0.0,0.0,0.0,0.0,0.0,0.0,0.0,0.0,0.0,0.0,0.0,0.0,0.0,0.0,0.0,0.0,0.0,0.0,0.0,0.0,0.0,0.0,0.0,0.0,0.0,0.0,0.0,0.0,0.0,0.0,0.0,0.0,0.0,0.0,0.0,0.0,0.0,0.0,0.0,0.0,0.0,0.0,0.0,0.0,0.0,0.0,0.0,0.0,0.0,0.0,0.0,0.0,0.0,0.0,0.0,0.0,0.0,0.0,0.0,0.0,0.0,0.0,0.0,0.0,0.0,0.0,0.0,0.0,0.0,0.0,0.0,0.0,0.0,0.0,0.0,0.0,0.0,0.0,0.0,0.0,0.0,0.0,0.0,0.0,0.0,0.0,0.0,0.0,0.0,0.0,0.0,0.0,0.0,0.0,0.0,0.0,0.0,0.0,0.0,0.0,0.0,0.0,0.0,0.0,0.0,0.0,0.0,0.0,0.0,0.0,0.0,0.0,0.0,0.0,0.0,0.0,0.0,0.0,0.0,0.0,0.0,0.0,0.0,0.0,0.0,0.0,0.0,0.0,0.0,0.0,0.0,0.0,0.0,0.0,0.0,0.0,0.0,0.0,0.0,0.0,0.0,0.0,0.0,0.0,0.0,0.0,0.0,0.0,0.0,0.0,0.0,0.0,0.0,0.0,0.0,0.0,0.0,0.0,0.0,0.0,0.0,0.0,0.0,0.0,0.0,0.0,0.0,0.0,0.0,0.0,0.0,0.0,0.0,0.0,0.0,0.0,0.0,0.0,0.0,0.0,0.0,0.0,0.0,0.0,0.0,0.0,0.0,0.0,0.0,0.0,0.0,0.0,0.0,0.0,0.0,0.0,0.0,0.0,0.0,0.0,0.0,0.0,0.0,0.0,0.0,0.0,0.0,0.0,0.0,0.0,0.0,0.0,0.0,0.0,0.0,0.0,0.0,0.0,0.0,0.0,0.0,0.0,0.0,0.0,0.0,0.0,0.0,0.0,0.0,0.0,0.0,0.0,0.0,0.0,0.0,0.0,0.0,0.0,0.0,0.0,0.0,0.0,0.0,0.0,0.0,0.0,0.0,0.0,0.0,0.0,0.0,0.0,0.0,0.0,0.0,0.0,0.0,0.0,0.0,0.0,0.0,0.0,0.0,0.0,0.0,0.0,0.0,0.0,0.0,0.0,0.0,0.0,0.0,0.0,0.0,0.0,0.0,0.0,0.0,0.0,0.0,0.0,0.0,0.0,0.0,0.0,0.0,0.0,0.0,0.0,0.0,0.0,0.0,0.0,0.0,0.0,0.0,0.0,0.0,0.0,0.0,0.0,0.0,0.0,0.0,0.0,0.0,0.0,0.0,0.0,0.0,0.0,0.0,0.0,0.0,0.0,0.0,0.0,0.0,0.0,0.0,0.0,0.0,0.0,0.0,0.0,0.0,0.0,0.0,0.0,0.0,0.0,0.0,0.0,0.0,0.0,0.0,0.0,0.0,0.0,0.0,0.0,0.0,0.0,0.0,0.0,0.0,0.0,0.0,0.0,0.0,0.0,0.0,0.0,0.0,0.0,0.0,0.0,0.0,0.0,0.0,0.0,0.0,0.0,0.0,0.0,0.0,0.0,0.0,0.0,0.0,0.0,0.0,0.0,0.0,0.0,0.0,0.0,0.0,0.0,0.0,0.0,0.0,0.0,0.0,0.0,0.0,0.0,0.0,0.0,0.0,0.0,0.0,0.0,0.0,0.0,0.0,0.0,0.0,0.0,0.0,0.0,0.0,0.0,0.0,0.0,0.0,0.0,0.0,0.0,0.0,0.0,0.0,0.0,0.0,0.0,0.0,0.0,0.0,0.0,0.0,0.0,0.0,0.0,0.0,0.0,0.0,0.0,0.0,0.0,0.0,0.0,0.0,0.0,0.0,0.0,0.0,0.0,0.0,0.0,0.0,0.0,0.0,0.0,0.0,0.0,0.0,0.0,0.0,0.0,0.0,0.0,0.0,0.0,0.0,0.0,0.0,0.0,0.0,0.0,0.0,0.0,0.0,0.0,0.0,0.0,0.0,0.0,0.0,0.0,0.0,0.0,0.0,0.0,0.0,0.0,0.0,0.0,0.0,0.0,0.0,0.0,0.0,0.0,0.0,0.0,0.0,0.0,0.0,0.0,0.0,0.0,0.0,0.0,0.0,0.0,0.0,0.0,0.0,0.0,0.0,0.0,0.0,0.0,0.0,0.0,0.0,0.0,0.0,0.0,0.0,0.0,0.0,0.0,0.0,0.0,0.0,0.0,0.0,0.0,0.0,0.0,0.0,0.0,0.0,0.0,0.0,0.0,0.0,0.0,0.0,0.0,0.0,0.0,0.0,0.0,0.0,0.0,0.0,0.0,0.0,0.0,0.0,0.0,0.0,0.0,0.0,0.0,0.0,0.0,0.0,0.0,0.0,0.0,0.0,0.0,0.0,0.0,0.0,0.0,0.0,0.0,0.0,0.0,0.0,0.0,0.0,0.0,0.0,0.0,0.0,0.0,0.0,0.0,0.0,0.0,0.0,0.0,0.0,0.0,0.0,0.0,0.0,0.0,0.0,0.0,0.0,0.0,0.0,0.0,0.0,0.0,0.0,0.0,0.0,0.0,0.0,0.0,0.0,0.0,0.0,0.0,0.0,0.0,0.0,0.0,0.0,0.0,0.0,0.0,0.0,0.0,0.0,0.0,0.0,0.0,0.0,0.0,0.0,0.0,0.0,0.0,0.0,0.0,0.0,0.0,0.0,0.0,0.0,0.0,0.0,0.0,0.0,0.0,0.0,0.0,0.0,0.0,0.0,0.0,0.0,0.0,0.0,0.0,0.0,0.0,0.0,0.0,0.0,0.0,0.0,0.0,0.0,0.0,0.0,0.0,0.0,0.0,0.0,0.0,0.0,0.0,0.0,0.0,0.0,0.0,0.0,0.0,0.0,0.0,0.0,0.0,0.0,0.0,0.0,0.0,0.0,0.0,0.0,0.0,0.0,0.0,0.0,0.0,0.0,0.0,0.0,0.0,0.0,0.0,0.0,0.0,0.0,0.0,0.0,0.0,0.0,0.0,0.0,0.0,0.0,0.0,0.0,0.0,0.0,0.0,0.0,0.0,0.0,0.0,0.0,0.0,0.0,0.0,0.0,0.0,0.0,0.0,0.0,0.0,0.0,0.0,0.0,0.0,0.0,0.0,0.0,0.0,0.0,0.0,0.0,0.0,0.0,0.0,0.0,0.0,0.0,0.0,0.0,0.0,0.0,0.0,0.0,0.0,0.0,0.0,0.0,0.0,0.0,0.0,0.0,0.0,0.0,0.0,0.0,0.0,0.0,0.0,0.0,0.0,0.0,0.0,0.0,0.0,0.0,0.0,0.0,0.0,0.0,0.0,0.0,0.0,0.0,0.0,0.0,0.0,0.0,0.0,0.0,0.0,0.0,0.0,0.0,0.0,0.0,0.0,0.0,0.0,0.0,0.0,0.0,0.0,0.0,0.0,0.0,0.0,0.0,0.0,0.0,0.0,0.0,0.0,0.0,0.0,0.0,0.0,9.5177,9.2209,0.0,0.0,0.0,0.0,0.0,0.0,0.0,0.0,0.0,0.0,0.0,0.0,0.0,0.0,0.0,0.0,0.0,0.0,0.0,0.0,0.0,0.0,0.0,0.0,0.0,0.0,0.0,0.0,0.0,0.0,0.0,0.0,0.0,0.0,0.0,0.0,0.0,0.0,0.0,0.0,0.0,0.0,0.0,0.0,0.0,0.0,0.0,0.0,0.0,0.0,0.0,0.0,0.0,0.0,0.0,0.0,0.0,0.0,0.0,0.0,0.0,0.0,0.0,0.0,0.0,0.0,0.0,0.0,0.0,0.0,0.0,0.0,0.0,0.0,0.0,0.0,0.0,0.0,0.0,0.0,0.0,0.0,0.0,0.0,0.0,0.0,0.0,0.0,0.0,0.0,0.0,0.0,0.0,0.0,0.0,0.0,0.0,0.0,0.0,0.0,0.0,0.0,0.0,0.0,0.0,0.0,0.0,0.0,0.0,0.0,0.0,0.0,0.0,0.0,9.8634,9.5629,0.0,0.0,0.0,0.0,0.0,0.0,0.0,0.0,0.0,0.0,0.0,0.0,0.0,0.0,0.0,0.0,0.0,0.0,0.0,0.0,0.0,0.0,0.0,0.0,0.0,0.0,0.0,0.0,0.0,0.0,0.0,0.0,0.0,0.0,0.0,0.0,0.0,0.0,0.0,0.0,0.0,0.0,0.0,0.0,0.0,0.0,0.0,0.0,0.0,0.0,0.0,0.0,0.0,0.0,0.0,0.0,0.0,0.0,0.0,0.0,0.0,0.0,0.0,0.0,0.0,0.0,0.0,0.0,0.0,0.0,0.0,0.0,0.0,0.0,0.0,0.0,0.0,0.0,0.0,0.0,0.0,0.0,0.0,0.0,0.0,0.0,0.0,0.0,0.0,0.0,0.0,0.0,0.0,0.0,0.0,0.0,0.0,0.0,0.0,0.0,0.0,0.0,0.0,0.0,0.0,0.0,0.0,0.0,10.0632,10.2311,10.5832,10.7219,10.7998,10.8008,10.2763,10.0017,9.9255,9.7529,0.0,0.0,0.0,0.0,0.0,0.0,0.0,0.0,0.0,0.0,0.0,0.0,0.0,0.0,0.0,0.0,0.0,0.0,0.0,0.0,0.0,0.0,0.0,0.0,0.0,0.0,0.0,0.0,0.0,0.0,0.0,0.0,0.0,0.0,0.0,0.0,0.0,0.0,9.3621,9.3698,9.3645,9.3547,0.0,0.0,0.0,0.0,0.0,0.0,0.0,0.0,0.0,0.0,0.0,0.0,0.0,0.0,0.0,0.0,0.0,0.0,0.0,0.0,0.0,0.0,0.0,0.0,0.0,0.0,0.0,0.0,0.0,0.0,0.0,0.0,0.0,0.0,0.0,0.0,0.0,0.0,0.0,0.0,0.0,0.0,0.0,0.0,8.4641,8.7243,0.0,0.0,0.0,0.0,0.0,0.0,0.0,0.0,0.0,0.0,0.0,0.0,0.0,9.8517,10.1998,10.3918,10.5527,10.6822,10.8821,11.0374,11.1626,11.2606,11.3829,11.5217,11.5132,0.0,10.4538,10.5677,0.0,0.0,0.0,0.0,0.0,0.0,0.0,0.0,0.0,0.0,0.0,0.0,0.0,0.0,0.0,0.0,0.0,0.0,0.0,0.0,0.0,0.0,0.0,0.0,0.0,0.0,0.0,0.0,0.0,0.0,0.0,0.0,0.0,0.0,0.0,0.0,9.4956,9.804,10.0219,10.0679,10.1216,10.137,9.9904,9.6845,9.2702,9.2328,0.0,0.0,0.0,0.0,0.0,0.0,0.0,0.0,0.0,0.0,0.0,0.0,0.0,0.0,0.0,0.0,0.0,0.0,0.0,0.0,0.0,0.0,0.0,0.0,0.0,0.0,0.0,0.0,0.0,0.0,0.0,0.0,0.0,0.0,0.0,0.0,0.0,0.0,0.0,8.6179,8.9347,8.9017,8.9533,8.9023,0.0,0.0,0.0,0.0,0.0,0.0,0.0,0.0,0.0,10.1804,10.299,10.5006,10.7828,10.983,11.191,11.4218,11.5676,11.7404,11.9094,12.0023,12.1103,12.2337,12.3562,12.1301,11.6311,11.1905,10.8203,10.5007,0.0,0.0,0.0,0.0,10.4206,10.4522,0.0,0.0,0.0,0.0,0.0,0.0,0.0,0.0,0.0,0.0,0.0,0.0,0.0,0.0,0.0,9.0185,0.0,0.0,0.0,0.0,0.0,0.0,0.0,0.0,0.0,0.0,0.0,0.0,10.1601,10.4864,10.6792,10.7403,10.7705,10.7708,10.6792,10.2794,9.6568,9.6104,9.4145,0.0,0.0,0.0,0.0,0.0,0.0,0.0,0.0,0.0,0.0,0.0,0.0,0.0,0.0,0.0,0.0,0.0,0.0,0.0,0.0,0.0,0.0,0.0,0.0,0.0,0.0,0.0,0.0,0.0,0.0,0.0,0.0,0.0,0.0,0.0,0.0,0.0,0.0,8.9661,9.3237,9.2208,9.3479,9.3136,0.0,0.0,0.0,0.0,0.0,0.0,9.8912,10.1424,10.4576,10.8761,10.9884,11.1771,11.4709,11.6407,11.8715,12.1716,12.2485,12.4024,12.6101,12.6871,12.7874,12.9028,13.0333,12.9714,12.7268,11.8707,11.36,11.0669,10.7271,10.597,10.618,10.7973,10.8662,10.9338,0.0,0.0,0.0,0.0,0.0,0.0,0.0,0.0,0.0,0.0,0.0,0.0,0.0,0.0,9.1889,9.6018,9.5567,9.5874,0.0,0.0,0.0,0.0,0.0,0.0,0.0,0.0,0.0,10.1385,10.4598,10.7936,11.117,11.1167,11.1167,11.1167,11.0332,10.6192,9.9747,9.8126,9.5989,9.3526,0.0,0.0,0.0,0.0,0.0,0.0,0.0,0.0,0.0,0.0,0.0,0.0,0.0,0.0,0.0,0.0,0.0,0.0,0.0,0.0,0.0,0.0,0.0,0.0,0.0,0.0,0.0,0.0,0.0,0.0,0.0,0.0,0.0,0.0,0.0,0.0,0.0,0.0,0.0,9.8641,9.8195,0.0,0.0,0.0,0.0,9.5138,10.1129,10.483,10.4978,10.947,11.2873,11.4789,11.6492,11.9336,12.3405,12.5181,12.6874,12.8714,12.9563,13.049,13.1336,13.2186,13.3494,13.5103,13.51,13.5103,13.4487,12.7575,12.2731,11.9499,11.7724,11.7031,11.6877,11.6171,11.6487,11.7193,0.0,0.0,0.0,0.0,0.0,0.0,0.0,0.0,0.0,0.0,0.0,0.0,0.0,9.3363,9.6684,10.0294,9.9797,9.8612,9.7213,0.0,0.0,0.0,0.0,0.0,0.0,0.0,10.1717,10.722,10.9931,11.3327,11.7176,11.7176,11.6869,11.6407,11.5484,11.2481,10.7867,10.3484,10.0214,9.7668,9.5263,9.3456,0.0,0.0,0.0,0.0,0.0,0.0,0.0,0.0,0.0,0.0,0.0,0.0,0.0,0.0,0.0,0.0,0.0,0.0,0.0,0.0,0.0,0.0,0.0,0.0,0.0,0.0,0.0,0.0,0.0,0.0,0.0,0.0,0.0,0.0,0.0,0.0,0.0,10.1726,10.4263,0.0,10.1091,10.1186,10.1438,10.1097,10.6185,11.0337,11.2395,11.6311,11.9718,12.2491,12.4793,12.6871,12.9028,13.1179,13.2872,13.4103,13.5033,13.5799,13.6638,13.7488,13.8181,13.8796,13.8796,13.8488,13.7639,13.3564,12.8871,12.4104,12.1331,12.0177,12.0334,12.0485,12.079,12.1171,0.0,0.0,0.0,0.0,0.0,0.0,0.0,0.0,0.0,0.0,0.0,8.7213,9.2506,9.7637,10.2099,10.5431,10.4626,10.2971,10.0981,0.0,0.0,0.0,0.0,0.0,0.0,10.1318,10.6523,11.2335,11.5487,11.8869,12.2491,12.2491,12.1873,12.0713,11.9866,11.7789,11.4481,10.9485,10.5025,10.119,9.8998,9.6765,9.4464,0.0,0.0,0.0,0.0,0.0,0.0,0.0,0.0,0.0,0.0,0.0,0.0,0.0,0.0,0.0,0.0,0.0,0.0,0.0,0.0,0.0,0.0,0.0,0.0,0.0,0.0,0.0,0.0,0.0,0.0,0.0,0.0,0.0,0.0,9.8928,10.4774,10.6389,10.9811,11.0788,10.7507,10.7576,10.7971,10.8272,11.2396,11.633,11.9336,12.2719,12.5876,12.8723,13.157,13.3494,13.4337,13.6488,13.7873,13.8492,13.911,13.9723,14.0178,14.1104,14.1566,14.187,14.187,14.1562,14.079,13.8331,13.4568,13.0108,12.5489,12.3411,12.303,12.387,12.4406,12.4787,0.0,0.0,0.0,0.0,0.0,0.0,0.0,0.0,0.0,0.0,8.3185,8.9027,9.4779,10.2096,10.8016,11.1401,11.0016,10.9118,10.933,10.1392,0.0,0.0,0.0,0.0,9.7036,10.582,11.2491,11.672,12.1023,12.4332,12.68,12.6803,12.5797,12.4175,12.3326,12.1636,11.9023,11.5638,11.0329,10.41,10.2171,9.9505,9.6602,0.0,0.0,0.0,0.0,0.0,0.0,0.0,0.0,0.0,0.0,0.0,0.0,0.0,0.0,0.0,0.0,0.0,0.0,0.0,0.0,0.0,0.0,0.0,0.0,0.0,0.0,0.0,0.0,0.0,0.0,0.0,0.0,0.0,9.5764,10.2334,10.8605,11.2875,11.4736,11.5723,11.5723,11.4176,11.4173,11.672,12.0029,12.303,12.5486,12.8871,13.149,13.3186,13.6498,13.8722,13.9482,14.1181,14.2027,14.2108,14.2108,14.2108,14.2185,14.2877,14.38,14.4636,14.4482,14.4482,14.4329,14.1797,13.9723,13.7495,13.0791,12.7095,12.5797,12.6566,12.7409,12.8172,0.0,0.0,0.0,0.0,0.0,0.0,0.0,0.0,0.0,0.0,8.4936,9.2317,9.7589,10.6389,11.3016,11.5786,11.2786,11.0131,10.8381,0.0,0.0,0.0,0.0,0.0,10.6377,11.1318,11.6567,12.2024,12.4489,12.6563,12.8486,12.7871,12.7326,12.6788,12.5409,12.4024,12.2482,11.9795,11.6102,11.1563,10.5638,10.267,10.1503,0.0,0.0,0.0,0.0,0.0,0.0,0.0,0.0,0.0,0.0,0.0,0.0,0.0,0.0,0.0,0.0,0.0,0.0,0.0,0.0,0.0,0.0,0.0,0.0,0.0,0.0,0.0,0.0,0.0,0.0,0.0,9.6605,9.9744,9.9954,10.7515,11.4513,11.8835,12.1781,12.3571,12.3571,12.3716,12.4018,12.4713,12.7874,13.0413,13.1791,13.5023,13.7408,13.8492,14.0572,14.2412,14.387,14.4412,14.5339,14.6497,14.6497,14.6801,14.741,14.7563,14.7871,14.8102,14.7413,14.6798,14.6105,14.4098,14.2024,13.9488,13.51,13.2792,13.1872,13.2102,13.241,13.2484,0.0,0.0,0.0,0.0,0.0,0.0,0.0,0.0,0.0,0.0,8.6714,9.5069,9.9743,10.9431,11.6327,11.8174,11.4789,11.1214,10.8174,0.0,0.0,0.0,0.0,10.6506,11.1725,11.6487,12.1408,12.6172,12.8717,13.041,13.1327,13.1176,13.048,12.9406,12.8102,12.6791,12.548,12.3024,12.0795,11.8407,11.1793,10.7485,10.4579,10.138,9.9369,9.7853,9.6214,9.471,9.3384,9.3005,0.0,0.0,0.0,0.0,0.0,0.0,0.0,0.0,0.0,0.0,0.0,0.0,0.0,0.0,0.0,0.0,0.0,0.0,0.0,0.0,0.0,0.0,0.0,0.0,10.2633,10.7475,11.0589,11.528,12.018,12.4796,12.7723,12.957,13.0336,13.0791,13.1173,13.1561,13.4491,13.6414,13.6869,13.9789,14.1716,14.2178,14.4486,14.6105,14.6721,14.741,14.8102,14.8721,14.8721,14.9025,14.9483,14.9791,14.9791,14.9483,14.9333,14.8798,14.7871,14.6179,14.4412,14.2412,0.0,0.0,0.0,0.0,13.5331,13.518,0.0,0.0,0.0,0.0,0.0,0.0,0.0,0.0,0.0,0.0,0.0,9.7133,10.1105,11.1275,11.8094,11.8869,11.5583,11.1825,0.0,0.0,0.0,10.0321,10.652,11.1506,11.4871,12.1485,12.6406,12.9791,13.3022,13.4561,13.4561,13.5331,13.4411,13.2106,13.1182,12.9871,12.8172,12.5637,12.4406,12.387,11.9334,11.3407,10.7267,10.6213,10.3889,10.0976,10.0284,9.802,9.5316,9.5333,0.0,0.0,0.0,0.0,0.0,0.0,0.0,0.0,0.0,0.0,0.0,0.0,0.0,0.0,0.0,0.0,0.0,0.0,0.0,0.0,0.0,0.0,0.0,0.0,10.8682,11.6731,12.3929,12.4864,12.6483,13.1025,13.3109,13.4725,13.618,13.6408,13.6873,13.7722,13.9873,14.1178,14.1335,14.3486,0.0,0.0,0.0,14.9179,14.8571,15.0025,15.0406,14.9868,14.9791,14.9871,15.0102,15.0718,15.0564,15.0025,15.0718,15.0487,14.9483,14.8029,14.6798,14.5567,14.1332,13.8562,13.7184,13.7184,13.7184,13.6873,0.0,0.0,0.0,0.0,0.0,0.0,0.0,0.0,0.0,7.931,8.9637,9.7734,10.1128,11.1275,11.7866,11.8017,11.3165,10.8423,0.0,0.0,10.3306,10.8005,11.2013,11.6292,12.1097,12.6486,13.0564,13.333,13.5334,13.6337,13.6337,13.6491,13.5872,13.4718,13.3186,13.1875,13.0794,12.8172,12.6406,12.5101,12.4104,11.9564,11.3184,10.9604,10.7385,10.6235,10.5266,10.3664,10.1998,10.2078,9.9508,9.6066,9.5427,0.0,0.0,0.0,0.0,0.0,0.0,0.0,0.0,0.0,0.0,0.0,0.0,0.0,0.0,0.0,0.0,0.0,0.0,0.0,0.0,10.8396,11.5992,12.3225,12.941,13.418,13.7331,13.7562,13.9723,14.1265,14.1569,14.2335,14.3021,14.3874,14.4412,14.5028,14.5567,14.6798,14.7798,14.8483,14.9175,15.0102,15.1264,15.0872,15.1333,15.2572,15.1879,0.0,15.3495,15.3033,15.2725,15.2572,15.2725,15.1875,15.0406,15.0102,14.9106,14.7263,14.3108,14.0796,13.9873,13.9873,13.9408,13.8562,0.0,0.0,0.0,0.0,0.0,0.0,0.0,0.0,7.3604,7.8711,8.7256,9.4547,9.8631,10.5933,11.0465,11.0916,10.677,0.0,0.0,10.419,10.7572,11.2637,11.7697,12.2331,12.6563,13.0794,13.4334,13.6792,13.8488,13.9418,13.9418,13.9803,13.9027,13.7408,13.6485,13.518,13.3491,13.1333,12.972,12.8412,12.7178,12.4409,12.0491,11.6179,11.3788,11.2481,11.0788,10.879,10.6964,10.6603,10.4326,10.133,10.0495,9.8268,9.5523,0.0,0.0,0.0,0.0,0.0,0.0,0.0,0.0,0.0,0.0,0.0,0.0,0.0,0.0,9.3787,9.8417,0.0,10.9034,11.6171,12.2595,12.9102,13.5876,14.0492,14.2793,14.2021,14.3717,14.5185,14.5574,14.6028,14.649,14.6875,14.7413,14.7794,14.8179,14.9029,14.9875,15.0718,15.1183,15.2029,15.3187,15.2802,15.303,15.3883,15.3499,15.3726,15.4499,15.4495,15.4261,15.3883,15.3883,15.3187,15.1875,15.1102,15.0025,14.8567,14.649,14.4871,14.3566,14.2335,14.1874,14.1562,0.0,0.0,0.0,0.0,0.0,0.0,0.0,0.0,0.0,7.8028,8.4649,9.0697,9.5197,9.934,10.1764,10.1978,10.0495,10.0497,0.0,10.727,11.2334,11.7265,12.3414,12.8179,13.1564,13.4872,13.7716,14.0328,14.1874,14.2723,14.2877,14.3416,14.2412,14.0328,13.9789,13.8331,13.61,13.4263,13.3032,13.2025,13.0022,12.8563,12.7261,12.4027,12.1177,11.871,11.633,11.3409,11.0562,11.0101,10.7716,10.4792,10.4715,10.2663,9.9982,9.7461,9.4456,0.0,0.0,0.0,0.0,0.0,0.0,0.0,0.0,9.1753,9.2731,9.4996,9.7576,10.0822,10.5377,11.1079,11.7193,12.3429,12.8868,13.4795,14.1412,14.4874,14.6409,14.5713,14.7028,14.8106,14.8571,14.8802,14.9032,14.919,14.9798,15.0333,15.0487,15.1102,15.1799,15.2495,15.3191,15.388,15.4726,15.4807,15.4883,15.5188,15.4883,15.488,15.5268,15.5565,15.5415,15.4726,15.4576,15.411,15.3418,15.2029,15.1026,15.0179,15.0102,14.9102,14.7567,14.5031,14.4336,14.4329,0.0,0.0,0.0,0.0,0.0,0.0,0.0,0.0,0.0,7.96,8.4882,8.9192,9.1882,9.5242,9.6521,9.4492,9.8596,10.2662,10.6029,11.0768,11.6968,12.511,12.9028,13.2567,13.603,13.8719,14.1332,14.379,14.4794,14.5567,14.6336,14.572,14.4794,14.3713,14.1489,13.987,13.8712,13.6334,13.4795,13.4023,13.3715,13.2564,13.1185,13.1496,12.8182,12.3178,12.1414,11.7179,11.2481,11.3176,10.9175,10.4407,10.6636,10.6495,10.4966,10.2007,0.0,9.6521,9.3644,9.0277,8.741,8.6722,8.7736,9.0007,0.0,9.6485,9.9232,10.3315,10.661,10.9822,11.3365,11.89,12.4276,12.8874,13.518,14.0566,14.3717,14.7563,15.0102,15.0025,15.0795,15.1183,15.0487,15.1106,15.1879,15.2729,15.2802,15.3191,15.3883,15.4037,15.411,15.4191,15.4268,15.4803,15.5565,15.5719,15.6411,15.788,15.6415,15.6411,15.7803,15.6411,15.5715,15.5565,15.4803,15.4422,15.4422,15.4191,15.3575,15.2802,15.2029,15.1568,15.1106,14.8574,14.6721,14.5409,0.0,0.0,0.0,0.0,0.0,0.0,0.0,0.0,0.0,0.0,0.0,8.3512,8.6901,8.8965,8.9331,8.7463,9.2938,9.9424,10.628,11.3602,12.1488,13.0031,13.4487,13.803,14.0415,14.2489,14.4566,14.6567,14.7028,14.7567,14.841,14.749,14.6721,14.5794,14.4336,14.2486,14.0719,13.91,13.7719,13.6491,13.603,13.5334,13.4568,13.4029,13.1025,12.6498,12.2464,11.8115,0.0,0.0,11.0035,10.7932,10.9437,10.8324,10.6003,10.3327,10.0007,0.0,9.3745,9.1907,9.1466,9.3832,9.6099,9.8843,10.3015,10.5463,10.7681,10.9997,11.3074,11.6872,12.1713,12.6714,13.1564,13.6414,14.0796,14.4563,14.7637,14.9564,15.0718,15.0718,15.1491,15.1875,15.1491,15.2183,15.2879,15.3264,15.3726,15.4422,15.5184,15.5264,15.5722,15.6726,15.6726,15.7107,15.803,15.803,15.8419,15.9035,15.8265,15.8419,15.9035,15.8265,15.7496,15.6488,15.5568,15.5034,15.4499,15.4499,15.4268,15.4037,15.3575,15.3499,15.311,15.0106,14.8794,14.8333,0.0,0.0,0.0,0.0,0.0,0.0,0.0,0.0,0.0,0.0,0.0,0.0,0.0,8.3462,8.3658,8.2508,8.8267,9.6059,10.5817,11.4489,12.3461,13.2878,13.8027,14.1566,14.38,14.549,14.7182,14.8878,14.8878,14.9337,15.0179,14.9337,14.8571,14.7875,14.6878,14.5182,14.3181,14.2101,14.0796,13.9418,13.8572,13.7568,13.6568,13.4722,13.0823,12.588,12.1486,11.6836,0.0,0.0,10.7436,10.6868,10.8277,10.7487,10.5631,10.3726,10.078,9.7531,9.4403,9.4763,9.6795,10.0317,10.3367,10.6715,11.1027,11.3407,11.5327,11.71,12.0177,12.4178,12.9406,13.3715,13.7873,14.2489,14.5413,14.8102,15.1026,15.141,15.1106,15.0102,15.0414,15.0568,15.0568,15.2187,15.3495,15.4033,15.4807,15.5726,15.6799,15.6796,15.7492,15.9031,15.9031,15.9492,16.0573,16.0573,16.0808,16.1039,16.0808,16.0573,16.0573,16.0189,15.9188,15.7723,15.6876,15.6261,15.5884,15.5418,15.5188,15.5191,15.5034,15.4726,15.4191,15.1491,15.0798,15.0798,0.0,0.0,0.0,0.0,0.0,0.0,0.0,0.0,0.0,0.0,0.0,0.0,0.0,7.971,8.072,8.0646,8.6023,9.3998,10.481,11.2588,12.197,13.3801,13.8331,14.2181,14.5486,14.7263,14.8875,15.0564,15.0564,15.1106,15.1875,15.1026,15.0564,15.0487,14.8878,14.757,14.6563,14.5025,14.3797,14.2881,14.2108,13.9803,13.6491,13.4032,12.7364,11.9503,11.8423,0.0,0.0,0.0,9.9798,9.7722,10.1034,10.3126,10.4178,10.3511,10.2564,10.1023,9.6747,9.9619,10.3766,10.3889,10.6993,11.1104,11.5335,11.8336,12.1337,12.5495,12.9031,13.2413,13.5876,13.9338,14.28,14.6182,14.8871,15.1183,15.3033,15.3187,15.2033,14.8728,14.757,14.7105,14.7105,15.0798,15.4033,15.5565,15.6488,15.7723,15.9423,15.95,15.9881,16.0796,16.0796,16.1566,16.3266,16.3266,16.3728,16.4501,16.3728,16.3266,16.3185,16.1566,16.0416,15.95,15.8573,15.8727,15.9269,15.7727,15.703,15.6876,15.6103,15.5184,15.4422,15.3495,15.2725,15.1799,0.0,0.0,0.0,0.0,0.0,0.0,0.0,0.0,0.0,0.0,0.0,0.0,0.0,0.0,0.0,0.0,8.4717,9.0881,10.0802,11.0034,11.933,12.8993,13.8173,14.387,14.572,14.9029,15.1029,15.1568,15.1568,15.1718,15.2029,15.1102,15.0718,15.0718,14.9564,14.8336,14.6878,14.6336,14.5178,14.3794,14.1797,14.0027,13.7809,13.203,12.4404,11.5992,0.0,0.0,0.0,0.0,9.4786,9.4765,9.7527,9.8421,9.8676,9.9679,10.0084,10.0889,10.3227,10.6006,10.9191,11.3065,11.6375,11.9713,12.4024,12.6874,12.9108,13.0573,13.1383,13.2411,13.4183,13.6795,13.9794,14.3178,14.7588,15.1491,15.3806,15.4114,15.2421,14.7878,14.8567,14.8106,14.4724,14.7724,15.1571,15.5488,15.7107,15.8877,16.1108,16.18,16.2497,16.342,16.342,16.3728,16.427,16.427,16.442,16.4732,16.4424,16.4036,16.342,16.2185,16.1181,16.0416,15.9496,15.9035,15.8727,15.8107,15.7569,15.703,15.6103,15.5565,15.5184,15.3803,15.311,15.2725,0.0,0.0,0.0,0.0,0.0,0.0,0.0,0.0,0.0,0.0,0.0,0.0,0.0,0.0,0.0,0.0,0.0,8.7551,9.655,10.4308,11.2776,12.2383,13.011,13.5164,13.7488,14.0178,14.2566,14.472,14.5413,14.6798,14.8798,14.8182,14.8182,14.8406,14.8175,14.7182,14.549,14.549,14.4028,14.1409,13.7869,13.4904,13.1667,12.3875,11.5899,0.0,0.0,0.0,0.0,0.0,8.9647,9.1208,9.3361,9.5533,9.7444,9.8048,10.0924,10.4727,10.8596,11.2718,11.6789,12.1206,12.479,12.8176,13.1176,13.3564,13.5186,13.4879,13.313,13.1814,13.2662,13.3199,13.5122,13.9891,14.4787,14.949,15.3883,15.3726,15.1875,14.8564,14.8564,14.7717,14.4724,14.6416,14.9798,15.503,15.7496,15.9723,16.2027,16.3185,16.4266,16.5109,16.5109,16.5267,16.5574,16.5574,16.5574,16.5574,16.5574,16.5109,16.4339,16.372,16.3028,16.2185,16.1031,16.0189,15.9569,15.8727,15.803,15.7415,15.6338,15.5796,15.5565,15.388,15.3264,15.311,0.0,0.0,0.0,0.0,0.0,0.0,0.0,0.0,0.0,0.0,0.0,0.0,0.0,0.0,0.0,0.0,0.0,0.0,9.2151,9.5996,10.297,11.4164,11.5064,11.7602,12.2435,12.2731,12.5495,13.1198,13.2875,13.6565,14.2111,14.2108,14.2569,14.3405,14.4178,14.372,14.2111,14.2031,13.9569,13.5491,13.0407,12.4971,11.9125,11.0813,10.3078,9.6082,9.1063,8.6591,8.306,8.321,8.4911,8.7283,8.8981,9.4542,10.0185,9.9074,10.5002,11.2231,11.3435,11.9614,12.6332,12.8095,13.2173,13.6103,13.703,13.8411,13.91,13.811,13.3817,13.0417,13.1105,12.8563,12.9026,13.672,14.1017,14.6112,15.3575,15.2725,15.1102,0.0,0.0,0.0,0.0,0.0,14.9417,15.4422,15.773,16.0266,16.2104,16.3882,16.519,16.587,16.6024,16.6413,16.7182,16.7182,16.7182,16.7182,16.7182,16.6716,16.587,16.587,16.5493,16.4574,16.2878,16.2104,16.1797,15.9415,15.8265,15.803,15.6411,15.5719,15.5488,15.3799,15.3187,15.311,0.0,0.0,0.0,0.0,0.0,0.0,0.0,0.0,0.0,0.0,0.0,0.0,0.0,0.0,0.0,0.0,0.0,0.0,8.7275,9.242,9.7732,10.3315,11.013,11.4897,11.7485,11.9896,12.2221,12.431,12.5321,12.6637,12.8102,12.8717,12.9102,12.933,12.9483,12.9022,12.8022,12.7415,12.572,12.3334,11.9408,11.5893,11.2283,10.5805,9.9485,9.3617,8.987,8.5824,8.2502,8.4272,8.7328,9.0541,9.1615,9.5455,10.0432,10.4967,11.0666,11.6815,12.2513,12.7981,13.2872,13.6485,13.8796,14.0723,14.2101,14.1793,14.0104,13.6103,12.8918,12.2801,12.0992,12.1069,12.4109,13.23,14.1636,15.0102,15.6415,15.7265,15.6419,15.3803,0.0,15.2564,15.0875,15.241,15.4876,15.8115,15.8496,16.0189,16.3805,16.557,16.6724,16.6874,16.6874,16.7028,16.7182,16.7182,16.7182,16.7182,16.7182,16.6716,16.587,16.587,16.5493,16.4574,16.3493,16.2416,16.1104,15.9804,15.8188,15.6334,15.5264,15.4495,15.3799,15.2722,15.2337,15.2337,0.0,0.0,0.0,0.0,0.0,0.0,0.0,0.0,0.0,0.0,0.0,0.0,0.0,0.0,0.0,0.0,0.0,0.0,0.0,8.7163,9.0731,9.3696,9.8085,10.1715,10.4513,10.6037,10.8423,11.1828,11.2873,11.4629,11.6789,11.7638,11.8023,11.8023,11.8789,11.8633,11.7866,11.7407,11.5794,0.0,0.0,10.5772,10.2697,9.7245,9.2982,8.9537,8.6911,8.6094,8.6673,8.984,9.2965,9.5856,9.8629,10.3129,10.8306,11.3213,11.8466,12.4236,13.0592,13.5484,13.9408,14.2181,14.3489,14.3436,14.0672,13.8767,13.517,12.6773,11.9019,11.3238,11.1623,11.3437,11.8293,12.8223,13.9329,14.9337,15.6723,15.8496,15.8727,0.0,15.7569,0.0,15.5495,15.6569,15.8492,16.1116,16.0496,16.142,16.4501,16.6263,16.7182,16.7182,16.7182,16.7182,16.7182,16.7182,16.7182,16.7182,16.7182,16.6874,16.649,16.649,16.6028,16.5186,16.4262,16.2801,16.0796,16.0035,15.8111,15.5719,15.4803,15.4037,15.3191,15.2337,15.2029,15.2029,0.0,0.0,0.0,0.0,0.0,0.0,0.0,0.0,0.0,0.0,0.0,0.0,0.0,0.0,0.0,0.0,0.0,0.0,0.0,0.0,8.3943,8.6306,8.4919,8.5878,8.9779,8.906,9.1532,9.7413,9.8901,10.1888,10.613,10.688,10.741,10.7564,10.9018,10.9403,10.8785,10.8708,10.6874,10.368,9.9292,9.5686,9.2618,0.0,0.0,8.5311,8.3915,8.6707,9.1814,9.7107,10.0224,10.2695,10.7866,11.3994,11.9664,12.2677,12.7539,13.2875,13.7802,14.1874,14.5098,14.6102,14.6567,14.4618,13.673,13.2687,12.7338,11.5094,10.7404,10.3076,10.3683,10.6514,11.2866,12.5476,13.638,14.6724,15.6415,15.8496,15.9877,16.2335,16.1416,16.0573,16.0573,16.0731,16.1727,16.4113,16.3416,16.357,16.4963,16.6417,16.7263,16.7413,16.7413,16.7413,16.749,16.7336,16.7336,16.749,16.7336,16.7263,16.7413,16.7263,16.6797,16.6024,16.5109,16.342,16.1104,16.0112,15.8188,15.5872,15.5034,15.411,15.3187,15.2495,15.2106,15.2029,0.0,0.0,0.0,0.0,0.0,0.0,0.0,0.0,0.0,0.0,7.5658,7.6132,0.0,0.0,0.0,0.0,0.0,0.0,0.0,0.0,0.0,8.4733,8.3806,8.4654,8.7505,8.6625,8.7021,8.8934,8.9617,9.0473,9.1289,9.2086,9.2789,9.3396,9.3704,9.4165,9.4706,9.3934,9.2943,9.177,9.0182,8.8511,8.6887,0.0,0.0,0.0,8.5078,8.631,8.9333,10.0465,10.6623,11.0602,11.63,12.1816,12.7101,13.1833,13.5818,13.9719,14.3412,14.5874,14.7875,14.941,14.7871,14.431,13.7966,13.0288,12.162,11.1087,10.1522,9.622,10.0194,10.3327,11.079,12.8131,13.8435,14.8179,15.9565,16.2031,16.3185,16.5024,16.5566,16.5878,16.5878,16.6494,16.7421,16.8498,16.7883,16.7186,16.6801,16.7028,16.749,16.8267,16.8263,16.8571,16.9268,16.7879,16.7879,16.9187,16.7879,16.7571,16.8267,16.749,16.7105,16.6874,16.5421,16.4036,16.2801,16.0496,15.8496,15.6799,15.5876,15.4568,15.3264,15.311,15.2568,15.2029,0.0,0.0,0.0,0.0,0.0,0.0,0.0,7.3344,7.5198,7.9079,7.9888,8.0456,8.1197,8.0887,8.1196,0.0,0.0,0.0,0.0,0.0,0.0,0.0,0.0,0.0,8.4926,8.4947,8.5118,8.5446,0.0,8.595,8.4944,8.5797,8.6331,8.663,8.663,8.7322,8.8481,8.7723,8.7424,8.7514,8.7287,8.6808,8.6154,0.0,0.0,0.0,0.0,8.7641,9.0689,9.8943,10.7577,11.6066,12.3284,12.9102,13.4026,13.8181,14.1569,14.4566,14.8025,15.0186,15.1575,15.2033,14.8487,14.2099,13.1066,12.2021,11.1909,9.7965,9.0877,8.8154,9.1267,9.6917,10.5533,11.9191,12.9613,14.0635,15.3808,15.7105,16.0185,16.5874,16.7336,16.7879,16.7879,16.8571,16.9498,17.0272,16.9575,16.8879,16.8494,16.8109,16.8109,16.8494,16.8494,16.8729,16.9114,16.8725,16.8725,16.9114,16.8263,16.7879,16.7802,16.7413,16.7028,16.649,16.5186,16.3728,16.2031,16.0266,15.8265,15.6411,15.6026,15.503,15.3883,15.3499,15.3033,15.2572,0.0,0.0,0.0,0.0,0.0,0.0,0.0,7.5469,7.7901,8.245,8.4136,8.486,8.4524,8.3602,8.3137,0.0,0.0,0.0,0.0,0.0,0.0,0.0,0.0,0.0,8.3061,0.0,0.0,8.3933,8.4843,0.0,0.0,0.0,0.0,0.0,8.3882,8.4731,8.6078,8.5593,8.5763,0.0,0.0,8.6782,8.6817,0.0,0.0,0.0,0.0,8.8743,9.1818,9.7027,10.5885,11.6287,12.4738,13.2286,13.8731,14.1489,14.4488,14.7791,15.1505,15.3572,15.4572,15.3806,14.8721,13.9812,12.4304,11.3968,10.3024,8.6488,8.1894,8.1619,8.427,9.1042,9.973,11.0406,12.0132,13.1737,14.7034,15.1592,15.6702,16.5801,16.8336,16.9191,16.8806,16.9802,17.0729,17.1191,17.0571,17.0114,16.9729,16.9268,16.9033,16.9033,16.9033,16.911,16.9263,16.9575,16.9498,16.9033,16.8729,16.8109,16.7494,16.7263,16.6716,16.587,16.5032,16.3497,16.1335,16.0112,15.8419,15.6569,15.618,15.5488,15.4726,15.3883,15.3575,15.3418,0.0,0.0,0.0,0.0,0.0,0.0,0.0,7.6459,8.0015,8.5761,8.6672,8.7277,8.8778,8.7478,8.5935,0.0,0.0,0.0,0.0,0.0,0.0,0.0,0.0,0.0,0.0,0.0,0.0,8.3201,8.3956,0.0,0.0,0.0,0.0,0.0,0.0,8.5332,8.6242,8.6257,0.0,0.0,0.0,0.0,0.0,0.0,0.0,0.0,0.0,8.7713,8.985,9.7758,10.2329,10.6063,11.4389,12.6902,13.8595,13.9632,14.3416,14.8164,15.3022,15.5034,15.5488,15.4572,14.8186,13.8433,12.4078,11.1262,9.8692,8.5791,7.995,7.9049,8.5347,8.8412,9.5089,11.0629,11.7085,12.6663,14.4897,15.0875,15.6572,16.4971,16.949,17.126,16.9729,17.1725,17.288,17.2183,17.2106,17.1418,16.9806,17.0426,17.081,17.081,17.081,17.1195,17.1875,17.0499,17.0118,17.081,16.9191,16.8498,16.8421,16.7571,16.6716,16.587,16.5032,16.4113,16.3031,16.0577,15.95,15.9115,15.7569,15.6411,15.5565,15.4726,15.4422,15.4191,0.0,0.0,0.0,0.0,0.0,0.0,7.5185,7.7202,8.0689,8.7582,8.894,8.9923,9.1673,9.0749,8.8729,8.546,0.0,0.0,0.0,0.0,0.0,0.0,0.0,0.0,0.0,0.0,8.3603,8.3061,8.4417,0.0,0.0,0.0,0.0,0.0,0.0,8.5118,8.6486,8.6039,0.0,0.0,0.0,0.0,0.0,0.0,0.0,0.0,0.0,0.0,8.8718,9.1526,9.6241,10.0888,10.0775,11.0121,12.3092,13.2932,14.0104,14.6381,15.34,15.7415,15.9027,15.6726,14.849,13.7114,12.1898,10.8633,9.584,8.3385,7.8629,7.7833,8.1586,8.3669,8.8456,9.9484,10.3888,11.2183,13.0293,13.6027,14.357,15.8126,16.3566,16.749,17.0879,17.2572,17.3187,17.2418,17.2337,17.2033,17.1264,17.1114,17.0964,17.0964,17.0964,17.1195,17.1499,17.0806,17.0426,17.0191,16.9114,16.8186,16.7725,16.7417,16.7028,16.6567,16.5267,16.4189,16.3189,16.0731,15.9269,15.8727,15.7492,15.6876,15.6492,15.5568,15.5261,15.5107,0.0,0.0,0.0,0.0,0.0,7.116,7.5843,7.7743,8.1046,8.7901,8.9728,9.11,9.2837,9.1602,8.961,8.7106,8.5578,0.0,0.0,0.0,0.0,0.0,0.0,0.0,0.0,0.0,8.3835,8.3448,8.5235,8.5742,0.0,0.0,8.5487,8.571,0.0,0.0,0.0,0.0,0.0,0.0,0.0,0.0,0.0,0.0,0.0,0.0,0.0,0.0,0.0,0.0,0.0,9.5095,9.1259,9.634,10.7026,12.3869,13.4323,14.2519,15.1794,15.7569,16.0339,15.7411,14.7686,13.4871,11.989,10.6119,9.3124,8.1376,7.7696,7.7228,7.8942,8.0495,8.3835,9.1062,9.5519,10.3736,11.9694,12.5618,13.3994,14.9319,15.5015,16.0284,16.6901,17.0916,17.3029,17.2726,17.2414,17.2337,17.2337,17.1725,17.1422,17.1422,17.1422,17.1272,17.0964,17.0964,17.0426,16.9268,16.8806,16.8032,16.7182,16.7182,16.7105,16.672,16.5267,16.4424,16.3574,16.0808,15.9419,15.8877,15.7569,15.7107,15.703,15.6103,15.6026,15.6026,0.0,0.0,0.0,0.0,0.0,0.0,7.4844,7.783,8.129,8.6327,8.8499,9.0192,9.1942,8.9099,8.7733,8.9387,8.7216,0.0,0.0,0.0,0.0,0.0,0.0,0.0,0.0,0.0,0.0,8.4376,8.6168,8.6947,8.7022,8.7682,8.7543,8.6758,0.0,0.0,0.0,0.0,0.0,0.0,0.0,0.0,0.0,0.0,0.0,0.0,0.0,0.0,0.0,0.0,0.0,0.0,0.0,8.896,9.3474,11.2784,12.5591,13.6096,14.7606,15.4491,15.7877,15.618,14.5092,13.118,11.8521,10.3972,9.0243,8.0074,7.7306,7.7228,7.8942,8.0028,8.2589,8.8574,9.5825,10.4861,11.7001,12.4281,13.1427,13.9119,14.4403,14.9736,15.5669,16.6008,17.2568,17.3414,17.2721,17.2337,17.2337,17.2337,17.2337,17.2337,17.2337,17.1879,17.0964,17.0964,17.0195,16.8494,16.8494,16.8032,16.7182,16.7182,16.6716,16.587,16.5113,16.4732,16.4424,16.1039,16.0108,16.0566,15.8107,15.7107,15.703,15.6103,15.6334,15.6799,0.0,0.0,0.0,0.0,0.0,0.0,0.0,7.5107,7.7803,8.2848,8.4943,8.7123,9.0011,8.8348,8.743,8.8604,8.6356,0.0,0.0,0.0,0.0,0.0,0.0,0.0,0.0,0.0,0.0,0.0,0.0,8.8187,8.8731,8.8383,8.8054,8.7819,8.6856,8.6473,0.0,0.0,0.0,0.0,0.0,0.0,8.7025,0.0,0.0,0.0,0.0,0.0,0.0,0.0,0.0,0.0,0.0,0.0,0.0,9.8915,11.1232,12.3326,13.147,13.7878,14.1276,13.7178,12.9287,11.9736,10.8766,9.85,8.8771,7.9842,7.7306,7.7228,7.8942,7.9564,8.2946,9.2931,9.7522,10.3574,11.4319,12.5012,13.4827,14.3005,15.7589,16.7682,16.9607,17.2929,17.4807,17.4418,17.3572,17.3106,17.3106,17.2568,17.2033,17.1422,17.1422,17.096,17.0114,16.9575,16.9037,16.8494,16.7879,16.7494,16.7182,16.7182,16.6716,16.587,16.5032,16.4424,16.3574,16.0808,15.9808,15.9804,15.788,15.7107,15.7107,15.6799,15.6876,15.703,0.0,0.0,0.0,0.0,0.0,0.0,0.0,7.3939,7.6255,7.9975,8.2223,8.4796,8.8165,8.6751,8.6292,8.8204,8.5635,0.0,0.0,0.0,0.0,0.0,0.0,0.0,0.0,0.0,0.0,0.0,0.0,0.0,0.0,0.0,9.0126,8.8262,8.7721,8.7101,0.0,0.0,0.0,0.0,0.0,0.0,8.6091,0.0,0.0,0.0,0.0,0.0,0.0,0.0,0.0,0.0,0.0,0.0,0.0,0.0,9.8177,10.8425,11.9065,12.6174,12.9725,12.6483,11.9362,11.1179,10.3305,9.4332,8.5896,7.931,7.7306,7.7151,7.8553,7.933,8.2483,9.0847,9.6466,10.2728,11.0997,12.3187,13.5113,14.5215,16.0407,17.0592,17.2123,17.4269,17.55,17.5269,17.4192,17.3495,17.3495,17.2418,17.1422,17.0499,17.081,17.0426,16.9268,16.8806,16.8263,16.8032,16.7494,16.7182,16.7182,16.7182,16.6716,16.587,16.5032,16.4189,0.0,16.0731,15.9577,15.9423,15.7803,15.7107,15.7107,15.7107,15.7107,15.7107,0.0,0.0,0.0,0.0,0.0,0.0,0.0,7.3783,7.5944,7.763,8.003,8.2907,8.6187,8.4451,8.4434,8.7842,0.0,0.0,0.0,0.0,0.0,0.0,0.0,0.0,0.0,0.0,0.0,0.0,8.9976,9.1296,9.2303,0.0,0.0,8.8572,8.8418,8.7408,0.0,0.0,0.0,0.0,0.0,0.0,0.0,0.0,0.0,0.0,0.0,0.0,0.0,0.0,0.0,0.0,0.0,0.0,0.0,0.0,0.0,0.0,0.0,11.7165,12.1019,12.0874,11.3131,10.4519,10.0401,0.0,0.0,0.0,0.0,0.0,0.0,0.0,0.0,8.475,9.3965,10.2566,10.7995,12.0785,13.4428,14.7114,15.6034,16.241,16.5967,17.1572,17.5269,17.6119,17.4576,17.3572,17.3495,17.1883,17.058,16.9575,17.0426,17.0037,16.8417,16.8417,16.8032,16.7182,16.7182,16.7182,16.7182,16.7105,16.6567,16.5793,16.4882,16.4036,16.3031,16.0496,15.95,15.9265,15.7723,15.7107,15.7107,15.7107,15.7107,15.7107,0.0,0.0,0.0,0.0,0.0,0.0,0.0,0.0,0.0,0.0,7.7751,7.9691,8.1887,8.2141,8.31,0.0,0.0,0.0,0.0,0.0,0.0,0.0,0.0,0.0,0.0,0.0,0.0,8.7334,8.9666,9.1919,9.4095,9.4717,0.0,0.0,0.0,0.0,0.0,0.0,0.0,0.0,0.0,0.0,0.0,0.0,0.0,0.0,8.7025,8.7025,0.0,0.0,0.0,0.0,0.0,0.0,0.0,0.0,8.3681,8.5684,9.0485,0.0,9.8993,9.6974,9.3597,9.0138,0.0,0.0,0.0,0.0,0.0,0.0,0.0,0.0,0.0,9.2375,9.8688,10.468,11.1171,13.0337,14.8382,16.0977,16.8271,17.1864,17.0883,17.4414,17.6799,17.703,17.55,17.4187,17.3491,17.1883,17.0272,16.8806,16.9037,16.8575,16.749,16.749,16.7413,16.7182,16.7182,16.7182,16.7182,16.649,16.5797,16.4882,16.342,16.2181,16.1335,15.9415,15.8573,15.8496,15.7496,15.7107,15.7107,15.7107,15.7107,15.7107,0.0,0.0,0.0,0.0,0.0,0.0,0.0,0.0,0.0,0.0,0.0,0.0,0.0,0.0,0.0,0.0,0.0,0.0,0.0,0.0,0.0,0.0,0.0,0.0,0.0,0.0,0.0,0.0,0.0,9.3318,0.0,0.0,0.0,0.0,0.0,0.0,0.0,0.0,0.0,0.0,8.7099,0.0,0.0,0.0,0.0,0.0,8.6558,8.6401,0.0,8.6324,8.5701,8.4921,0.0,0.0,0.0,0.0,8.1894,8.2126,8.3057,8.6708,9.0127,8.9117,8.7254,8.5468,8.4537,0.0,0.0,0.0,0.0,0.0,0.0,0.0,0.0,9.1626,9.9456,10.9609,12.3814,13.9196,15.3629,16.6279,17.173,17.4418,17.4568,17.6179,17.7107,17.6803,17.5495,17.4269,17.3029,17.1268,16.9806,16.8494,16.8109,16.7725,16.7182,16.7182,16.6904,16.6336,16.6336,16.6336,16.6336,16.5407,16.4722,16.4036,16.2724,16.1027,15.9108,15.8107,15.7492,15.7107,15.6723,15.6719,15.7107,15.7107,15.7107,15.703,0.0,0.0,0.0,0.0,0.0,0.0,0.0,0.0,0.0,0.0,0.0,0.0,0.0,0.0,0.0,0.0,0.0,0.0,0.0,0.0,0.0,0.0,0.0,0.0,0.0,0.0,0.0,0.0,0.0,0.0,0.0,0.0,0.0,0.0,0.0,0.0,0.0,0.0,0.0,0.0,8.7175,0.0,0.0,0.0,0.0,0.0,0.0,0.0,0.0,8.6169,8.5935,8.5235,8.5,0.0,0.0,0.0,0.0,0.0,8.2282,8.5684,8.8778,8.8414,8.6789,8.5235,8.5,0.0,0.0,0.0,0.0,0.0,0.0,8.2872,0.0,8.996,10.1217,11.7137,13.8896,14.7025,15.5026,16.6724,17.0798,17.3568,17.5876,17.6722,17.6803,17.5965,17.5115,17.3884,17.2187,17.0571,16.9268,16.8263,16.7571,16.7182,16.7182,16.7182,16.6585,16.5293,16.5222,16.4985,16.4827,16.3912,16.3234,16.2925,16.1896,15.9877,15.7261,15.703,15.6492,15.5796,15.5719,15.6107,15.6723,15.6876,15.6876,15.6799,0.0,0.0,0.0,0.0,0.0,0.0,0.0,0.0,0.0,0.0,0.0,0.0,0.0,0.0,0.0,0.0,0.0,0.0,0.0,0.0,0.0,0.0,0.0,0.0,0.0,0.0,0.0,0.0,0.0,0.0,9.836,10.2327,10.062,0.0,0.0,0.0,0.0,0.0,0.0,0.0,8.7024,0.0,0.0,0.0,0.0,0.0,0.0,0.0,0.0,8.3915,8.3605,8.3216,8.1814,0.0,0.0,0.0,0.0,0.0,8.5004,8.8717,8.9966,8.4427,8.3293,8.3138,8.1736,0.0,0.0,0.0,0.0,0.0,0.0,8.9414,9.3275,10.0595,11.3481,12.8605,14.5661,15.2564,15.8411,16.5489,17.111,17.3499,17.111,17.4192,17.5884,17.5115,17.4187,17.3038,17.1272,17.0191,16.9033,16.7413,16.7263,16.7182,16.7182,16.7182,16.6585,16.5293,16.4622,16.3686,16.2601,16.1364,16.0799,16.0692,15.9411,15.8573,15.803,15.6569,15.5872,15.5719,15.5034,15.4807,15.5034,15.5719,15.6026,15.6026,0.0,0.0,0.0,0.0,0.0,0.0,0.0,0.0,0.0,0.0,0.0,0.0,0.0,0.0,0.0,0.0,0.0,0.0,0.0,0.0,0.0,0.0,0.0,0.0,0.0,0.0,0.0,0.0,0.0,10.0691,10.3334,10.2014,9.9065,9.4485,0.0,0.0,0.0,0.0,0.0,0.0,0.0,0.0,0.0,0.0,0.0,0.0,0.0,0.0,0.0,0.0,8.3835,8.3679,8.29,0.0,0.0,0.0,0.0,0.0,8.2051,8.4642,8.6447,8.6507,8.8852,9.0429,0.0,0.0,0.0,0.0,0.0,0.0,9.1162,9.6014,10.4013,11.8173,12.7506,13.7268,14.9809,15.4334,15.9104,16.6413,17.011,17.2191,17.2422,17.4192,17.5038,17.4192,17.326,17.211,17.0426,16.9498,16.8202,16.6233,16.6219,16.5807,16.5239,16.471,16.4165,16.3637,16.252,16.1208,15.9771,15.9415,15.9075,15.8867,15.8509,15.78,15.6876,15.6103,15.5488,15.5111,15.473,15.4499,15.4495,15.488,15.5107,15.503,0.0,0.0,0.0,0.0,0.0,0.0,0.0,0.0,0.0,0.0,0.0,0.0,0.0,0.0,0.0,0.0,0.0,0.0,0.0,0.0,7.9346,8.2677,8.1734,0.0,0.0,0.0,9.1914,9.6809,10.1701,10.5666,10.8465,10.2324,9.7897,0.0,0.0,0.0,0.0,0.0,0.0,0.0,0.0,0.0,0.0,0.0,0.0,0.0,0.0,0.0,0.0,0.0,0.0,0.0,0.0,0.0,0.0,8.0726,7.9172,7.8396,8.0263,8.2025,8.468,9.0266,0.0,0.0,0.0,0.0,0.0,0.0,0.0,0.0,9.6435,10.4337,11.5799,13.2763,13.9485,14.5563,15.4418,15.7107,16.0873,16.819,16.9802,17.1264,17.4038,17.4422,17.4115,17.3033,17.2264,17.1187,16.9498,16.8535,16.717,16.54,16.4969,16.4337,16.3087,16.2114,16.1672,16.1578,16.0076,15.8628,15.7093,15.7331,15.7272,15.7065,15.7728,15.7338,15.6103,15.5722,15.5107,15.4499,15.4114,15.4033,15.4191,15.4191,15.4191,15.411,0.0,0.0,0.0,0.0,0.0,0.0,0.0,0.0,0.0,0.0,0.0,0.0,0.0,0.0,0.0,0.0,0.0,0.0,0.0,0.0,7.8258,8.0833,8.2211,0.0,0.0,9.2073,9.5179,9.9528,10.6209,11.0406,11.212,10.5199,10.0226,9.6812,0.0,0.0,0.0,0.0,0.0,0.0,0.0,0.0,0.0,0.0,0.0,0.0,0.0,0.0,0.0,0.0,0.0,0.0,0.0,0.0,8.057,7.9642,7.8708,7.9095,8.3914,8.6376,8.879,0.0,0.0,0.0,0.0,0.0,0.0,0.0,0.0,0.0,0.0,11.5534,12.7581,13.7783,14.6709,15.4726,16.1727,16.4105,16.6567,17.0426,17.1576,17.2183,17.2495,17.3187,17.288,17.1272,17.1118,17.0426,16.8729,16.7385,16.6222,16.5293,16.4192,16.31,16.2199,16.1032,16.0277,16.0277,15.7972,15.6234,15.489,15.4878,15.4936,15.4998,15.6525,15.7107,15.6876,15.5268,15.4576,15.4264,15.2802,15.2725,15.3422,15.3422,15.3422,15.3422,0.0,0.0,0.0,0.0,0.0,0.0,0.0,0.0,0.0,0.0,0.0,0.0,0.0,0.0,0.0,0.0,0.0,0.0,0.0,0.0,7.8103,8.0681,8.229,8.5236,8.9898,9.5337,10.1006,10.6989,11.2191,11.3824,11.1574,10.419,0.0,0.0,0.0,0.0,0.0,0.0,0.0,0.0,0.0,0.0,0.0,0.0,0.0,0.0,0.0,0.0,0.0,0.0,8.088,8.0568,8.0568,8.0568,8.0569,8.0182,7.9095,7.8396,8.0416,8.4347,8.9464,0.0,0.0,0.0,0.0,0.0,0.0,0.0,0.0,0.0,0.0,12.698,13.677,14.4786,15.279,15.9796,16.5028,16.7186,16.8879,17.081,17.1807,17.2337,17.2337,17.1374,17.0814,17.1,16.8492,16.7114,16.7211,16.5477,16.4119,16.2933,16.2402,16.141,15.9825,15.827,15.731,15.6786,15.5907,15.441,15.2512,15.4023,15.4369,15.4073,15.6197,15.6799,15.618,15.5568,15.4726,15.3572,15.2495,15.2491,15.3187,15.2725,15.2802,15.3187,0.0,0.0,0.0,0.0,0.0,0.0,0.0,0.0,0.0,0.0,0.0,0.0,0.0,0.0,0.0,0.0,0.0,0.0,0.0,7.5818,7.7632,7.9895,8.1976,8.5391,9.0206,9.7899,10.4502,11.0096,11.4912,11.4834,10.9862,0.0,0.0,0.0,0.0,0.0,0.0,0.0,0.0,0.0,0.0,0.0,0.0,0.0,0.0,0.0,0.0,0.0,0.0,0.0,8.0414,8.026,8.0804,8.1035,8.0958,8.0647,8.0079,7.9508,7.9196,8.2692,8.8145,9.5283,0.0,0.0,0.0,0.0,0.0,0.0,0.0,0.0,0.0,0.0,14.1572,14.8287,15.6266,16.3108,16.7109,16.8571,16.9729,17.0887,17.0866,17.0994,17.1306,16.9335,16.8322,16.8885,16.6332,16.4911,16.5486,16.3472,16.2031,16.1123,16.0409,15.9195,15.7568,15.6231,15.4983,15.3882,15.4085,15.3113,15.1197,15.3286,15.3933,15.3166,15.5584,15.6184,15.5415,15.5103,15.4184,15.2802,15.2183,15.2418,15.2802,15.2183,15.2418,15.2802,0.0,0.0,0.0,0.0,0.0,0.0,0.0,0.0,0.0,0.0,0.0,0.0,0.0,0.0,0.0,0.0,0.0,0.0,0.0,7.5271,7.6458,7.8089,8.1347,8.5856,9.1913,9.9528,10.4812,10.7375,11.3361,11.3206,10.722,10.2092,0.0,0.0,0.0,0.0,0.0,0.0,0.0,0.0,0.0,0.0,0.0,0.0,0.0,0.0,0.0,0.0,0.0,0.0,8.0028,7.9565,8.135,8.1894,8.1737,8.088,8.1733,8.2724,8.1788,8.2255,8.4974,9.3168,0.0,0.0,0.0,0.0,0.0,0.0,0.0,13.0437,13.292,13.6908,14.1671,14.7616,15.6882,16.4574,16.8032,16.849,16.9101,17.0798,16.9132,16.8116,16.8965,16.7101,16.5526,16.469,16.459,16.4195,16.3428,16.1334,16.018,16.018,15.8173,15.6664,15.5872,15.513,15.3882,15.2289,15.2692,15.2171,15.1116,15.2799,15.2969,15.2308,15.4733,15.5261,15.4422,15.3575,15.2802,15.2029,15.2029,15.2029,15.2029,15.2029,15.2029,15.2029,0.0,0.0,0.0,0.0,0.0,0.0,0.0,0.0,0.0,0.0,0.0,0.0,0.0,0.0,0.0,0.0,0.0,0.0,0.0,7.4023,7.5525,7.7225,7.9865,8.2747,8.5701,9.2771,10.1161,11.111,11.1571,10.8463,10.2014,0.0,0.0,9.1757,0.0,0.0,0.0,0.0,0.0,0.0,0.0,8.7025,0.0,0.0,0.0,0.0,0.0,0.0,0.0,0.0,0.0,0.0,8.0415,8.2668,8.4068,8.1346,8.2177,8.3238,7.9976,8.3943,0.0,9.718,0.0,0.0,0.0,0.0,0.0,0.0,14.2467,14.0799,14.0511,14.471,14.911,15.167,15.8965,16.5267,16.8109,16.8703,16.9024,16.9487,16.8228,16.7431,16.7669,16.5228,16.3697,16.3806,16.1472,16.0214,16.0292,15.8928,15.7766,15.7183,15.6567,15.5571,15.4234,15.3368,15.2487,15.1467,15.0977,15.0292,14.947,15.25,15.2883,15.1494,15.3904,15.4418,15.3575,15.2725,15.2183,15.2029,15.2029,15.2029,15.2029,15.2029,15.2029,15.2029,0.0,0.0,0.0,0.0,0.0,0.0,0.0,0.0,0.0,0.0,0.0,0.0,0.0,0.0,0.0,0.0,0.0,0.0,0.0,0.0,7.5134,7.684,7.8934,8.1815,8.5547,9.1373,9.7666,10.4504,10.5121,10.2635,0.0,0.0,0.0,9.37,0.0,9.5734,0.0,0.0,0.0,8.873,8.8577,8.8112,8.7333,0.0,0.0,0.0,0.0,0.0,0.0,0.0,0.0,0.0,8.0181,8.1814,8.2972,8.2216,8.3104,8.4145,8.3844,8.834,0.0,10.4075,11.3284,12.3568,13.6578,0.0,0.0,0.0,14.9029,14.7686,14.7761,15.0899,15.4078,15.5689,16.1208,16.5801,16.7725,16.8294,16.84,16.8024,16.6737,16.5699,16.5412,16.2986,16.1421,16.1437,15.9491,15.8133,15.7792,15.6693,15.5783,15.4983,15.4616,15.4029,15.2986,15.2186,15.1606,15.1092,15.0399,14.95,14.8287,15.1696,15.2325,15.0593,15.2602,15.3187,15.2725,15.2183,15.2029,15.2029,15.2029,15.2029,15.2029,15.2029,15.2029,15.2029,0.0,0.0,0.0,0.0,0.0,0.0,0.0,0.0,0.0,0.0,0.0,0.0,0.0,0.0,0.0,0.0,0.0,0.0,0.0,0.0,7.5058,7.6851,7.8786,8.2905,8.9274,9.3079,9.3856,9.1526,9.5796,9.6265,0.0,0.0,9.9676,9.9819,0.0,10.2076,0.0,9.6793,9.3539,8.9353,9.0055,8.943,8.7952,8.7023,0.0,0.0,0.0,0.0,0.0,0.0,0.0,0.0,8.0337,8.0261,8.0396,8.2986,8.4183,8.5757,9.1084,0.0,0.0,11.2702,12.0071,0.0,14.3062,14.8871,15.2026,15.5103,15.3487,15.218,15.4572,15.5876,15.7415,15.9731,16.3493,16.6385,16.7,16.7388,16.7214,16.6369,16.4726,16.3296,16.2573,16.0728,15.9071,15.8287,15.8132,15.7406,15.5799,15.4902,15.4087,15.3279,15.2487,15.2127,15.2127,15.1312,15.0864,15.0887,15.0513,14.9273,14.7362,15.0724,15.1268,14.9975,15.1363,15.2029,15.2029,15.2029,15.2029,15.2029,15.2029,15.2029,15.2029,15.2029,15.2029,15.2029,0.0,0.0,0.0,0.0,0.0,0.0,0.0,0.0,0.0,0.0,0.0,0.0,0.0,0.0,0.0,0.0,0.0,0.0,0.0,0.0,7.447,7.6761,8.1654,8.5622,8.8495,8.8108,8.7642,8.7098,9.137,0.0,0.0,0.0,0.0,9.8649,0.0,9.9297,9.4996,9.0832,8.8494,8.749,8.7023,8.6556,8.6088,8.4537,0.0,0.0,0.0,0.0,0.0,0.0,0.0,0.0,8.0337,8.228,8.3831,8.1162,8.4559,8.956,9.1424,9.7417,0.0,11.829,13.1993,14.4307,15.1121,15.3722,15.4718,15.4803,15.6265,15.8111,15.9338,16.1262,16.3035,16.3501,16.6032,16.7639,16.682,16.6437,16.5834,16.4627,16.2591,16.1319,16.1098,16.01,15.8932,15.7472,15.6819,15.5717,15.4087,15.3295,15.2406,15.1591,15.0798,15.0365,15.0365,14.9624,14.9183,14.9183,14.9079,14.8189,14.6612,15.0136,15.1583,15.1514,15.1881,15.2029,15.2029,15.2029,15.2029,15.2029,15.2029,15.2029,15.2029,15.2029,15.2029,15.2029,0.0,0.0,0.0,0.0,0.0,0.0,0.0,0.0,0.0,0.0,0.0,0.0,0.0,0.0,0.0,0.0,0.0,0.0,0.0,0.0,0.0,7.8003,8.22,8.4535,8.4609,8.4534,8.4069,8.329,0.0,0.0,0.0,0.0,0.0,10.0262,0.0,9.999,9.4365,9.1743,8.9224,8.7024,8.6944,8.6477,8.5545,0.0,0.0,8.0496,7.9098,0.0,0.0,0.0,0.0,0.0,0.0,0.0,8.2582,8.2285,8.5328,9.0051,9.6053,10.3767,11.4031,12.9861,14.2631,15.2033,15.5111,15.6415,15.718,15.803,15.9573,16.1262,16.3028,16.4223,16.5006,16.5006,16.5606,16.5772,16.5113,16.4626,16.3878,16.2825,16.1492,16.0408,15.9601,15.9233,15.8124,15.6077,15.5571,15.4469,15.2479,15.1973,15.1393,15.0586,15.0072,14.9705,14.933,14.889,14.8515,14.8075,14.7708,14.7436,14.7434,14.9196,15.0815,15.2029,15.2029,15.2029,15.2029,15.2029,15.2029,15.2029,15.2029,15.2029,15.2029,15.2029,15.2029,15.2029,0.0,0.0,0.0,0.0,0.0,0.0,0.0,0.0,0.0,0.0,0.0,0.0,0.0,0.0,0.0,0.0,0.0,0.0,0.0,0.0,0.0,7.9506,8.1745,8.236,8.1267,8.236,8.2282,8.1035,0.0,0.0,0.0,0.0,0.0,10.2513,0.0,10.1026,9.4758,9.3463,9.0443,8.6634,8.7176,8.6477,0.0,0.0,0.0,0.0,7.8942,7.9406,8.0181,8.0336,0.0,0.0,0.0,0.0,8.0165,8.3545,8.5524,8.9018,10.0222,11.0902,12.3391,14.2068,15.0879,15.5418,15.6876,15.7877,15.9188,16.1566,16.1986,16.2722,16.5104,16.5176,16.5014,16.5014,16.4125,16.3293,16.3069,16.2724,16.2087,16.117,16.0579,15.9829,15.8426,15.7985,15.7039,15.491,15.4388,15.3368,15.1231,15.1011,15.0578,14.9925,14.9631,14.9337,14.889,14.8589,14.8067,14.7399,14.6379,14.678,14.8203,14.8203,14.9612,15.2029,15.2029,15.2029,15.2029,15.2029,15.2029,15.2029,15.2029,15.2029,15.2029,15.2029,15.2029,15.2029,0.0,0.0,0.0,0.0,0.0,0.0,0.0,0.0,0.0,0.0,0.0,0.0,0.0,0.0,0.0,0.0,0.0,0.0,0.0,0.0,0.0,8.0374,8.1545,8.2669,8.3832,8.2669,8.2282,0.0,0.0,0.0,0.0,0.0,0.0,0.0,0.0,0.0,9.5066,8.852,8.5386,8.4688,8.4069,8.3216,0.0,0.0,0.0,0.0,0.0,0.0,7.8474,7.9253,7.995,0.0,0.0,0.0,8.0566,8.1092,8.3338,8.7699,9.7256,11.6039,13.5831,14.8113,15.403,15.703,15.7877,15.8804,15.9881,16.172,16.1783,16.2102,16.3877,16.3903,16.3706,16.3706,16.3484,16.2976,16.1777,16.1579,16.1116,15.9873,15.9074,15.8499,15.8279,15.7039,15.5791,15.4836,15.3368,15.2193,15.1239,15.0431,14.9998,14.9932,14.8515,14.8368,14.9705,14.8288,14.7473,14.7399,14.5865,14.5803,14.6971,14.6971,14.8821,15.2029,15.2029,15.2029,15.2029,15.2029,15.2029,15.2029,15.2029,15.2029,15.2029,15.2029,15.2029,15.2029,0.0,0.0,0.0,0.0,0.0,0.0,0.0,0.0,0.0,0.0,0.0,0.0,0.0,0.0,0.0,7.2031,7.2031,7.2187,7.2734,7.3709,0.0,0.0,7.8188,7.8631,7.9407,7.9094,7.9405,0.0,0.0,0.0,0.0,9.6301,9.9704,0.0,0.0,0.0,0.0,0.0,0.0,0.0,0.0,0.0,0.0,0.0,0.0,0.0,0.0,0.0,0.0,0.0,7.9874,8.0568,8.0568,0.0,0.0,0.0,8.2552,8.9353,10.6567,12.2824,13.7716,14.9721,15.4187,15.6111,15.788,15.9038,16.0112,16.18,16.1233,16.1225,16.3638,16.3113,16.2328,16.2328,16.1729,16.102,16.04,16.0303,15.9973,15.8872,15.8499,15.7773,15.637,15.5563,15.4469,15.2773,15.1966,15.1312,15.0512,15.0072,14.9705,14.9183,14.8515,14.7994,14.7788,14.712,14.6526,14.6005,14.5271,14.5626,14.6776,14.6776,14.8319,15.0999,15.0321,15.0393,15.1024,15.1024,15.1024,15.1073,15.1701,15.2029,15.2029,15.2029,15.2029,15.2029,0.0,0.0,0.0,0.0,0.0,0.0,0.0,0.0,0.0,0.0,0.0,0.0,0.0,0.0,0.0,0.0,7.2031,7.2344,7.3203,7.3171,0.0,0.0,0.0,7.5147,7.5136,7.5988,0.0,0.0,0.0,0.0,9.8148,9.8685,10.343,0.0,10.3789,0.0,0.0,0.0,0.0,0.0,0.0,0.0,0.0,0.0,0.0,0.0,0.0,0.0,0.0,0.0,0.0,8.0337,8.0492,8.0414,0.0,0.0,0.0,9.0011,11.0171,12.2316,13.2471,14.6115,15.1192,15.388,15.7199,15.9035,16.0266,16.1489,16.0927,16.0719,16.2765,16.1913,16.0874,16.0874,16.0105,15.9364,15.9226,15.9226,15.8932,15.8132,15.7618,15.6672,15.491,15.4087,15.2986,15.1224,15.0864,15.0505,14.9925,14.9932,14.9477,14.8669,14.8523,14.7788,14.6533,14.6313,14.5872,14.5278,14.5131,14.5506,14.6324,14.6324,14.7382,14.9299,14.8677,14.9071,15.0181,15.0181,15.0402,15.0685,15.1563,15.2029,15.2029,15.2029,15.2029,15.2029,0.0,0.0,0.0,0.0,0.0,0.0,0.0,0.0,0.0,0.0,0.0,0.0,0.0,7.4531,7.3828,7.2109,7.2031,7.2344,7.3203,7.3263,7.3561,0.0,0.0,0.0,0.0,0.0,0.0,0.0,0.0,0.0,10.0702,10.3881,11.0703,11.9938,11.1392,10.4025,9.7613,0.0,0.0,0.0,0.0,0.0,0.0,0.0,0.0,0.0,0.0,0.0,0.0,0.0,0.0,0.0,0.0,8.0028,7.9332,0.0,0.0,0.0,9.8764,10.8475,11.9285,13.5107,14.4017,15.0298,15.5928,15.9108,16.0873,16.0869,16.1178,16.1272,16.0985,16.0191,15.9572,15.9572,15.9493,15.9218,15.8507,15.8434,15.8067,15.7325,15.5775,15.4829,15.4682,15.2626,15.1224,15.1085,15.0431,14.9925,14.9932,14.9932,14.9477,14.8669,14.792,14.7392,14.7319,14.6606,14.6173,14.6093,14.5432,14.502,14.5106,14.5106,14.5818,14.6977,14.812,14.9071,15.0181,15.0181,15.0936,15.1894,15.2015,15.2029,15.2029,15.2029,15.2029,15.2029,0.0,0.0,0.0,0.0,0.0,0.0,0.0,0.0,0.0,0.0,0.0,0.0,0.0,7.4062,7.3281,7.2109,7.2031,7.2109,7.2422,7.2391,7.2447,7.2745,0.0,0.0,0.0,0.0,0.0,0.0,0.0,8.5984,9.6964,10.0272,10.5793,11.2829,10.8526,10.5521,10.3117,9.3358,0.0,0.0,0.0,0.0,0.0,0.0,0.0,0.0,0.0,0.0,0.0,0.0,0.0,0.0,0.0,0.0,0.0,0.0,8.3429,8.897,9.753,10.5395,11.4312,12.7118,13.6181,14.3082,14.7329,15.3131,15.7565,15.7565,15.8184,15.878,15.9093,15.9629,15.9905,15.953,15.9511,15.9226,15.8426,15.792,15.7023,15.571,15.4608,15.35,15.2479,15.1598,15.0872,15.0365,15.0079,14.9932,14.9932,14.9411,14.8735,14.792,14.712,14.6379,14.5865,14.5579,14.5425,14.5425,14.5124,14.4984,14.4984,14.4984,14.5203,14.5674,14.6121,14.689,14.8068,14.8816,14.9419,14.989,15.1392,15.2029,15.2029,15.2029,15.2029,15.2029,0.0,0.0,0.0,0.0,0.0,0.0,0.0,0.0,0.0,0.0,0.0,0.0,0.0,0.0,7.3672,7.2578,7.2422,7.2344,7.2031,7.1913,7.1801,7.1805,7.1993,0.0,0.0,0.0,0.0,0.0,0.0,0.0,0.0,0.0,10.2408,10.8024,10.488,0.0,0.0,0.0,0.0,9.1342,0.0,0.0,9.0254,0.0,0.0,0.0,0.0,0.0,0.0,0.0,0.0,0.0,0.0,0.0,0.0,0.0,0.0,0.0,9.2815,9.8868,10.6605,11.9373,12.6511,13.27,14.1779,14.7865,15.2263,15.4502,15.6033,15.7163,15.8182,15.8699,15.8994,15.9125,15.8932,15.8418,15.7618,15.6811,15.571,15.4102,15.3214,15.2333,15.1231,15.0571,15.0064,14.9477,14.9183,14.9117,14.9117,14.8596,14.7928,14.7032,14.6232,14.5498,14.4984,14.4984,14.4984,14.4984,14.4984,14.4984,14.4984,14.4984,14.4984,14.4984,14.4984,14.5695,14.6883,14.8011,14.8736,14.9334,15.1187,15.2029,15.2029,15.2029,15.2029,15.2029,0.0,0.0,0.0,0.0,0.0,0.0,0.0,0.0,0.0,0.0,0.0,0.0,0.0,0.0,0.0,7.3672,7.3437,7.3047,7.2109,7.199,7.1864,7.181,7.2536,0.0,0.0,0.0,0.0,0.0,0.0,0.0,0.0,0.0,10.1311,0.0,10.1612,10.2916,10.8687,0.0,10.2119,9.8595,0.0,9.3587,9.3566,0.0,0.0,0.0,10.1124,9.9479,0.0,0.0,0.0,0.0,0.0,0.0,0.0,0.0,0.0,0.0,0.0,0.0,0.0,11.1402,11.4831,11.9523,13.9184,14.3217,14.4723,15.1428,15.4619,15.6535,15.8028,15.7269,15.6901,15.8091,15.7576,15.6811,15.6019,15.5203,15.4102,15.2495,15.1606,15.1092,15.1011,14.9616,14.8669,14.8669,14.792,14.7399,14.7399,14.7399,14.6966,14.6173,14.5425,14.4984,14.4984,14.4984,14.4984,14.4984,14.4984,14.4984,14.4984,14.4984,14.4984,14.4984,14.4984,14.5674,14.6827,14.8,14.9233,15.0317,15.1474,15.2029,15.2029,15.2029,15.2029,15.2029,0.0,0.0,0.0,0.0,0.0,0.0,0.0,0.0,0.0,0.0,0.0,0.0,0.0,0.0,0.0,7.7969,7.7422,7.6165,7.3982,7.3186,7.2502,7.1863,7.2525,7.3513,0.0,0.0,0.0,0.0,0.0,0.0,0.0,0.0,0.0,0.0,9.8885,10.0099,10.058,9.4691,0.0,0.0,9.6803,9.7761,0.0,0.0,0.0,0.0,0.0,10.6322,10.5576,0.0,10.032,9.5735,0.0,0.0,0.0,0.0,0.0,0.0,8.5389,0.0,0.0,0.0,0.0,0.0,11.7867,12.4634,13.1236,14.0128,14.4112,14.798,15.4512,15.501,15.4992,15.6785,15.7124,15.6583,15.5196,15.4307,15.3206,15.1598,15.0725,14.9998,14.9396,14.8963,14.8368,14.7766,14.7473,14.7399,14.7399,14.6812,14.6166,14.5432,14.5131,14.4984,14.4984,14.4984,14.4984,14.4984,14.4984,14.4984,14.4984,14.4984,14.4984,14.4984,14.4984,14.5227,14.5667,14.7723,14.8699,14.9167,15.1167,15.2029,15.2029,15.2029,15.2029,15.2029,0.0,0.0,0.0,0.0,0.0,0.0,0.0,0.0,0.0,0.0,0.0,0.0,0.0,0.0,0.0,0.0,7.9128,7.7673,7.577,7.4043,7.299,7.2889,7.3219,7.4277,0.0,0.0,0.0,0.0,0.0,0.0,0.0,0.0,0.0,0.0,0.0,0.0,0.0,0.0,0.0,0.0,10.0505,0.0,0.0,10.9978,11.2173,0.0,0.0,0.0,11.502,11.2405,10.6967,0.0,0.0,0.0,0.0,0.0,0.0,0.0,0.0,0.0,0.0,9.4245,0.0,0.0,11.1319,11.6796,12.2972,13.531,14.0173,14.4395,15.1502,15.257,15.3174,15.5425,15.5905,15.5524,15.391,15.2993,15.1885,15.0277,14.9705,14.9117,14.8214,14.7935,14.7414,14.6893,14.6599,14.6372,14.6372,14.6019,14.5505,14.4984,14.4984,14.4984,14.4984,14.4984,14.4984,14.4984,14.4984,14.4984,14.4984,14.4984,14.4984,14.4984,14.4984,14.4764,14.4713,14.6965,14.8198,14.8736,15.1073,15.2029,15.2029,15.2029,15.2029,15.2029,0.0,0.0,0.0,7.6015,7.8203,0.0,0.0,0.0,0.0,0.0,0.0,0.0,0.0,0.0,0.0,0.0,8.0307,7.8622,7.7459,7.496,7.3734,7.4278,7.4384,7.5209,7.6839,0.0,0.0,0.0,0.0,0.0,0.0,0.0,0.0,0.0,0.0,0.0,0.0,0.0,0.0,9.711,10.4602,10.7718,0.0,0.0,12.0331,12.1103,12.2183,12.3719,12.4329,11.9336,11.1671,0.0,0.0,0.0,0.0,0.0,8.7475,0.0,0.0,0.0,0.0,0.0,9.4557,0.0,11.1384,11.4069,11.723,13.1798,13.7384,14.1302,14.6718,14.8288,14.9371,15.1406,15.2692,15.3164,15.2566,15.1861,15.0816,14.8926,14.8824,14.8493,14.7421,14.6599,14.6173,14.61,14.5432,14.4984,14.4984,14.4984,14.4984,14.4984,14.4911,14.4911,14.4984,14.4911,14.4911,14.4984,14.4984,14.4984,14.4984,14.4984,14.4984,14.4984,14.4984,14.4724,14.4296,14.6412,14.7735,14.859,15.092,15.1875,15.2029,15.2029,15.2029,15.2029,0.0,0.0,0.0,7.7734,7.9531,8.1632,0.0,0.0,0.0,0.0,0.0,0.0,0.0,0.0,0.0,0.0,8.5739,8.224,7.9205,7.7162,7.5551,7.4263,7.5465,7.6685,7.7696,7.8243,0.0,0.0,0.0,0.0,0.0,0.0,0.0,0.0,0.0,0.0,0.0,0.0,0.0,9.779,10.3374,0.0,11.81,12.2488,12.4719,12.572,12.8031,12.9797,13.057,12.6184,11.9911,11.2611,0.0,0.0,0.0,9.1736,0.0,0.0,0.0,0.0,0.0,0.0,9.4171,0.0,9.5967,10.0419,10.6375,11.3102,11.8083,12.3666,13.1486,13.4363,13.5231,13.4028,14.0866,14.8181,15.3073,15.3883,15.2716,14.9117,14.9617,14.9212,14.673,14.6313,14.5872,14.5285,14.5131,14.4984,14.4984,14.4984,14.4984,14.4984,14.4411,14.4331,14.4984,14.4411,14.4411,14.4984,14.4984,14.4984,14.4984,14.4984,14.4984,14.4984,14.4984,14.5536,14.6292,14.6909,14.7293,14.7791,15.0081,15.1414,15.2029,15.2029,15.2029,15.2029,0.0,0.0,0.0,8.0027,8.2084,8.4382,0.0,0.0,0.0,0.0,0.0,0.0,0.0,0.0,0.0,0.0,0.0,0.0,0.0,0.0,7.658,7.613,7.6475,7.7538,7.925,7.9331,7.9696,0.0,0.0,0.0,0.0,0.0,0.0,0.0,0.0,0.0,0.0,0.0,9.2558,9.8324,10.8098,0.0,12.2331,12.872,13.1416,13.2106,13.5106,13.6414,13.5802,12.9031,12.4474,0.0,0.0,10.6036,10.4917,0.0,9.8137,9.8868,0.0,0.0,0.0,9.5258,9.4637,0.0,0.0,9.705,10.0583,10.9091,11.153,11.4623,12.2973,12.5137,12.6097,12.7989,13.5582,14.281,14.7066,15.047,15.1517,14.8425,14.817,14.7608,14.5805,14.5579,14.5425,14.4977,14.4984,14.4837,14.4404,14.4404,14.4184,14.381,14.3376,14.3383,14.381,14.3383,14.3604,14.4404,14.4404,14.4404,14.4404,14.4764,14.4771,14.4404,14.4404,14.4802,14.5603,14.627,14.6961,14.7788,14.9867,15.1026,15.141,15.1795,15.2029,15.2029,0.0,0.0,0.0,0.0,8.4072,8.6365,8.8086,8.9644,0.0,0.0,0.0,0.0,0.0,0.0,0.0,0.0,0.0,0.0,0.0,0.0,0.0,7.8302,7.7879,7.8556,8.0494,8.0006,7.9965,8.037,0.0,0.0,0.0,0.0,0.0,0.0,0.0,0.0,0.0,0.0,0.0,10.1402,0.0,12.0639,12.2018,13.1721,13.5334,13.603,14.0719,14.1874,14.0024,13.1336,12.8339,12.6113,11.3994,11.2624,0.0,0.0,0.0,0.0,0.0,0.0,0.0,9.9756,9.7488,9.5577,0.0,0.0,0.0,10.6991,10.7135,10.7834,11.4593,11.5717,11.6792,12.1094,12.8794,13.4511,13.5263,14.1605,14.6082,14.6368,14.6336,14.59,14.5023,14.4326,14.4195,14.4925,14.403,14.3523,14.3831,14.3684,14.3317,14.2569,14.2415,14.2415,14.2569,14.2415,14.2796,14.3611,14.3611,14.3611,14.3611,14.4177,14.4331,14.3831,14.3831,14.4225,14.4901,14.5925,14.7032,14.8336,15.0011,15.0795,15.1026,15.1718,15.2029,15.2029,7.8263,0.0,0.0,0.0,8.3212,8.5481,8.7145,8.8113,0.0,0.0,0.0,0.0,0.0,0.0,0.0,0.0,0.0,0.0,9.0699,0.0,0.0,7.9044,8.0298,8.076,8.0273,8.0925,8.0984,8.0386,0.0,0.0,0.0,0.0,0.0,0.0,8.1956,0.0,0.0,0.0,10.1476,0.0,12.0716,12.0331,0.0,12.5867,13.0099,13.133,14.0713,14.4101,14.3021,0.0,13.4023,13.1826,0.0,11.9419,11.8437,11.2475,0.0,0.0,0.0,10.918,10.9676,10.2603,10.5402,10.6406,9.3725,0.0,9.9831,9.5057,0.0,9.825,9.9827,0.0,0.0,10.0094,11.1327,11.8806,11.492,12.3373,13.3235,14.1688,14.49,14.5908,14.4812,14.1884,14.1488,14.4798,14.0373,13.9419,14.3611,14.309,14.2715,14.2569,14.1901,14.1901,14.2569,14.1901,14.1901,14.2708,14.2708,14.2708,14.2708,14.2789,14.3229,14.3831,14.3831,14.5003,14.693,14.6985,14.7874,14.9363,15.0297,15.1183,15.1875,15.2033,15.2029,15.2029,0.0,0.0,0.0,0.0,8.2949,8.5214,8.6807,9.1612,0.0,0.0,0.0,0.0,0.0,0.0,0.0,0.0,0.0,9.4303,0.0,0.0,0.0,0.0,0.0,0.0,8.2652,8.1958,8.1408,8.1004,7.8703,0.0,0.0,0.0,0.0,0.0,8.5968,0.0,9.5641,0.0,10.5169,11.0016,11.8407,11.9026,11.6484,13.1567,13.8796,14.1485,14.5336,14.6871,14.6175,13.8796,13.6719,0.0,0.0,0.0,0.0,11.8281,0.0,11.233,10.8498,11.0005,11.102,10.4622,10.5738,10.5692,9.5325,9.383,9.4285,9.3176,0.0,0.0,0.0,0.0,0.0,0.0,10.5095,11.1437,10.9916,11.7186,12.4874,13.1133,13.2004,13.3526,13.6973,13.8337,13.991,14.2414,14.0009,13.9181,14.1095,14.2299,14.2412,14.1202,14.0887,14.0887,14.1181,14.0887,14.11,14.1901,14.1901,14.1901,14.1901,14.2422,14.2488,14.2478,14.3634,14.5012,14.6591,14.7777,14.9008,15.0333,15.1102,15.1414,15.1333,15.1799,15.2029,15.2029,0.0,0.0,0.0,0.0,8.2369,8.4699,8.7026,0.0,0.0,0.0,0.0,0.0,10.9515,10.9262,0.0,0.0,0.0,10.09,0.0,0.0,8.8156,0.0,0.0,0.0,0.0,0.0,8.1837,8.1087,7.8875,7.8443,0.0,0.0,0.0,0.0,0.0,9.5555,10.2486,0.0,11.1788,11.4871,12.1565,12.4412,12.572,13.6799,14.4412,14.9102,14.8721,14.8798,14.8025,14.0723,13.9184,13.9177,13.2715,12.9871,12.8289,12.4207,12.0439,11.6586,11.2493,11.3135,11.3523,10.728,10.6007,10.4189,9.6538,9.3805,9.3184,9.4372,9.2766,0.0,0.0,0.0,9.3475,9.5939,0.0,10.5484,10.51,10.9637,11.5107,12.1191,12.2334,12.4618,12.9938,13.3134,13.5795,13.8335,13.6913,13.6807,13.8888,14.0522,14.0985,14.0319,14.0206,14.0226,14.0226,14.0226,14.052,14.11,14.11,14.1167,14.138,14.1974,14.2433,14.2632,14.3737,14.5173,14.6894,14.8301,14.9597,15.0795,15.1722,15.1568,15.1102,15.1799,15.2029,15.2029,0.0,7.8144,0.0,0.0,0.0,0.0,0.0,0.0,0.0,0.0,0.0,0.0,0.0,0.0,0.0,0.0,0.0,10.6569,10.743,0.0,9.1919,0.0,0.0,0.0,0.0,0.0,8.2417,8.0069,7.8978,7.9821,0.0,0.0,0.0,0.0,9.3867,10.0322,10.8021,11.633,12.4104,13.1336,13.5725,14.0415,14.4101,13.8023,14.0873,14.8263,14.9179,14.8871,14.7574,14.3185,14.2265,14.1877,13.6026,13.4561,13.4411,13.0185,12.8887,12.7986,12.3679,12.2681,12.0565,11.1481,10.8531,10.5193,9.5252,9.7871,10.1222,9.7273,10.0067,10.2876,10.1322,0.0,0.0,0.0,9.856,0.0,0.0,9.6329,10.1613,11.4109,12.0562,12.471,12.619,12.5972,12.7525,13.2002,12.8666,13.001,13.8018,13.7468,13.8103,14.0483,14.0272,14.0226,14.0226,14.0226,14.0226,14.0219,14.0219,14.058,14.138,14.138,14.2922,14.5409,14.4296,14.5813,14.8906,14.8615,14.9438,15.0795,15.1722,15.2029,15.2033,15.2029,15.2029,15.2029,0.0,0.0,0.0,0.0,0.0,0.0,0.0,9.2883,0.0,0.0,0.0,0.0,0.0,0.0,12.6387,0.0,0.0,11.7771,11.3134,10.6699,0.0,0.0,0.0,9.5128,0.0,0.0,0.0,0.0,0.0,8.2106,8.4532,8.3171,0.0,0.0,9.7324,10.4787,11.4104,12.2562,12.9025,13.3795,13.8722,14.2723,14.5567,14.4416,14.5724,14.8186,14.849,14.8798,14.8798,14.6721,14.4724,14.2804,14.08,13.7184,13.3337,13.0794,12.9311,12.7835,12.4603,12.7065,12.7619,11.5524,11.3022,11.0369,9.7953,9.8613,10.1421,9.9948,10.2369,10.4715,10.4707,0.0,0.0,0.0,0.0,9.679,0.0,9.1404,9.3715,10.0176,10.8713,11.399,11.4016,11.9891,12.463,12.657,12.7607,12.9975,13.4264,13.6703,13.8182,13.8932,13.9225,13.9712,14.0226,14.0226,14.0226,14.0226,14.0733,14.0887,14.0586,14.1688,14.2114,14.2117,14.4128,14.5829,14.7177,14.8936,15.0377,15.1568,15.1875,15.2029,15.2029,15.2029,15.2029,15.2029,7.9484,0.0,0.0,0.0,0.0,0.0,0.0,0.0,0.0,0.0,11.8301,0.0,13.1983,0.0,13.3309,0.0,13.0773,12.5898,11.7574,11.4534,0.0,10.6605,10.4916,0.0,0.0,0.0,0.0,0.0,0.0,8.6553,8.7777,8.5966,8.8131,9.3943,9.9635,10.7482,11.7105,12.6871,13.3869,13.8716,14.2874,14.5413,14.6721,14.7801,14.8032,14.7801,14.8113,14.8798,14.941,14.8494,14.6724,14.4804,14.4185,14.0415,13.5799,13.4103,13.2638,13.1022,12.8791,13.0871,13.1487,12.1793,11.9487,11.6872,10.6323,10.7326,11.0021,10.879,10.9408,11.0868,11.3632,10.7634,0.0,0.0,0.0,9.5093,0.0,8.8861,8.9789,9.1714,9.9868,10.5867,10.748,11.3099,11.7715,12.0331,12.2328,12.5262,12.98,13.3402,13.6273,13.8226,13.8723,13.9412,14.0226,14.0226,14.0226,14.0226,14.0733,14.0887,14.0667,14.1688,14.1988,14.1781,14.3967,14.5829,14.7293,14.8931,15.0512,15.2029,15.2029,15.2029,15.2029,15.2029,15.2029,15.2029,0.0,0.0,0.0,0.0,8.4919,0.0,0.0,0.0,11.0236,0.0,12.3319,13.0891,13.6224,13.6622,13.7383,13.9715,13.6729,0.0,12.169,12.2304,0.0,0.0,11.1087,10.9895,10.5768,0.0,0.0,0.0,0.0,0.0,9.1989,8.9576,9.0367,9.4023,10.087,10.8719,11.7336,12.9333,13.8793,14.6182,14.8564,14.9029,14.8109,14.819,14.757,14.7028,14.7801,14.8721,14.9333,14.8494,14.8109,14.7801,14.6179,14.4028,14.1723,13.9866,13.8873,13.8033,13.618,13.4722,13.2878,13.0179,12.756,12.4409,11.9328,12.2716,12.603,12.2722,12.0795,12.1408,12.6711,11.6171,10.7092,0.0,0.0,9.3554,8.7092,8.8241,8.9475,8.887,9.4561,10.0794,10.6403,10.5792,10.741,11.3022,11.2865,11.633,12.4716,12.7885,13.222,13.8122,13.89,13.9639,14.0374,14.0379,14.0379,14.0374,14.0296,14.0702,14.1419,14.1415,14.2506,14.4206,14.3975,14.58,14.8916,14.8666,14.9913,15.2029,15.2029,15.2029,15.2029,15.2029,15.2029,15.2029,8.1949,8.4134,8.6523,0.0,8.7689,8.9765,0.0,0.0,0.0,0.0,13.2088,13.9126,14.5403,14.5962,14.5526,14.421,14.2094,0.0,0.0,0.0,0.0,12.5086,12.5014,12.2587,11.7727,11.4872,0.0,10.1481,0.0,0.0,9.3934,9.1762,9.1747,9.3799,10.1411,10.9485,11.8177,12.9483,14.0181,14.9487,15.0099,14.9102,14.7263,14.8036,14.7263,14.6105,14.6875,14.7417,14.7563,14.8113,14.7417,14.6413,14.649,14.5336,14.3409,14.172,14.2027,14.2335,13.987,14.0412,14.0335,13.518,13.2484,12.948,12.379,12.6563,13.0028,12.8489,12.8877,12.8416,12.4787,11.7017,10.8708,10.1635,9.4403,8.9094,8.7325,8.7092,8.7936,9.0248,9.3174,9.5405,9.6326,10.1096,10.4564,10.5482,10.879,11.4025,12.118,12.4513,12.9168,13.5764,13.9501,14.1901,14.2698,14.2461,14.2467,14.2681,14.1604,14.1297,14.177,14.2107,14.2419,14.2604,14.4431,14.632,14.8212,14.9304,15.0599,15.2029,15.2029,15.2029,15.2029,15.2029,15.2029,15.2029,8.3939,0.0,0.0,9.2597,0.0,0.0,10.2674,10.8993,0.0,12.8011,13.5888,0.0,14.6804,14.8905,14.9436,14.7989,14.579,0.0,13.7201,0.0,0.0,13.2267,13.2965,13.1408,12.6866,12.3366,0.0,10.8126,0.0,0.0,9.5866,9.2975,9.2074,9.3305,10.0731,10.7893,11.5484,13.0561,14.1716,14.9102,14.9871,14.9333,0.0,14.819,14.757,14.6798,14.6878,14.7413,14.8106,14.819,14.8109,14.7794,14.757,14.6567,14.5178,14.3874,14.4028,14.4098,14.2716,14.3328,14.3794,14.1101,14.0104,13.8488,13.4023,13.5795,13.7876,13.6337,13.4417,13.257,13.141,12.1408,10.9711,9.8786,9.2169,8.8246,8.7481,8.9246,9.0369,8.9979,9.3507,9.4683,9.1521,9.8202,10.2097,10.0479,10.579,11.0406,11.3486,12.05,12.7083,13.2674,13.8182,14.1633,14.277,14.2979,14.2979,14.2914,14.2482,14.2521,14.2676,14.2907,14.3136,14.3235,14.4567,14.6392,14.8382,14.9271,15.0578,15.2029,15.2029,15.2029,15.2029,15.2029,15.2029,15.2029,0.0,0.0,0.0,0.0,0.0,0.0,0.0,11.6369,0.0,13.0311,0.0,14.4181,14.539,14.8872,15.0988,15.0468,0.0,14.4375,13.8903,14.0999,14.04,13.5716,13.7979,13.7709,13.3905,13.003,0.0,0.0,0.0,0.0,9.6629,9.3072,9.1692,9.241,9.9211,10.6002,11.3412,13.2333,14.2793,14.7105,14.8791,14.9564,14.9564,14.8721,14.8263,14.8113,14.7336,14.8102,14.941,14.8567,14.9337,15.0333,14.9032,14.7875,14.7105,14.6336,14.5563,14.5021,14.4717,14.4713,14.5178,14.6413,14.757,14.7801,14.5409,14.6332,14.6878,14.4416,13.911,13.6033,14.003,12.5717,10.979,9.9017,9.386,9.0782,8.9556,9.3862,9.5389,9.0749,9.5873,0.0,9.1511,9.6722,9.9632,9.7478,10.2864,10.6174,10.6026,11.6833,12.5183,13.0088,13.6502,14.0677,14.2469,14.3187,14.3267,14.2711,14.327,14.3679,14.3813,14.3819,14.4223,14.4978,14.5103,14.6717,14.9093,14.9224,15.0295,15.2029,15.2029,15.2029,15.2029,15.2029,15.2029,15.2029,0.0,0.0,0.0,0.0,0.0,11.537,12.2821,13.0379,13.6896,14.1196,14.8474,15.302,15.1875,15.3015,15.2636,14.9577,14.879,0.0,0.0,0.0,0.0,14.3228,14.4486,14.3216,13.9038,13.4621,12.6695,0.0,0.0,0.0,9.2044,9.0868,9.0283,9.0373,9.7445,10.8781,12.3411,13.4029,14.1803,14.7105,14.8791,14.9868,15.041,14.9564,14.8798,14.819,14.8032,14.8567,14.9487,14.9329,14.9487,14.9795,15.0099,14.9718,14.8871,14.8029,14.8182,14.8098,14.6025,14.649,14.7263,14.6182,14.7563,14.9025,14.7801,14.9417,15.0568,14.8794,14.6336,14.2412,13.5792,12.102,10.8175,10.341,10.0178,9.8716,9.9788,10.0786,10.1132,10.0169,10.3015,10.3168,9.8718,9.6946,9.6254,9.6478,9.8247,10.2479,11.0016,11.5818,12.267,13.1133,13.8632,14.3634,14.6017,14.5884,14.6279,14.7085,14.4676,14.4077,14.4866,14.4713,14.5182,14.621,14.6981,14.8123,14.9515,15.0126,15.0977,15.2029,15.2029,15.2029,15.2029,15.2029,15.2029,15.2029,0.0,0.0,0.0,0.0,0.0,12.4113,13.2111,14.1216,14.65,14.4611,14.7973,15.0584,15.0605,15.2364,15.2914,15.1101,14.94,14.8017,14.6922,14.6567,14.6385,14.6328,14.7024,14.5865,14.2815,13.7803,12.981,11.842,0.0,0.0,0.0,8.9919,8.9165,9.0139,9.7891,10.9132,12.2719,13.0721,13.8107,14.4566,14.8102,15.0025,15.0718,15.0333,14.9875,14.9413,14.9029,14.9718,15.0718,14.9791,15.0102,15.0795,15.0718,15.0406,15.0025,14.9106,14.8875,14.8567,14.7336,14.7263,14.749,14.7563,14.8564,14.9487,14.949,15.0798,15.1414,14.9337,14.7798,14.4105,13.4718,12.2716,11.3483,11.1403,10.6792,10.4328,10.6864,10.7871,10.7114,10.3476,10.5688,10.4695,9.735,9.6073,9.6175,9.748,10.0022,10.3405,10.7867,11.3871,12.0565,12.8182,13.6079,14.17,14.4719,14.6819,14.7434,14.6634,14.6701,14.6505,14.6129,14.6862,14.7291,14.7383,14.8303,14.9217,15.0179,15.1026,15.1568,15.2029,15.2029,15.2029,15.2029,15.2029,15.2029,15.2029,0.0,10.6595,0.0,0.0,12.5366,13.3521,13.9207,14.8608,15.3137,14.7776,14.7969,14.8984,14.9992,15.1966,15.3023,15.2521,14.9938,14.8088,14.7931,14.7221,14.6871,14.7369,14.7671,14.6972,14.4977,13.9911,13.1817,0.0,0.0,10.2185,9.3059,8.9736,8.9238,9.1587,9.9796,10.9329,11.9562,12.756,13.5411,14.2877,14.7794,15.0077,15.0618,15.0618,15.0276,14.9912,14.9474,15.023,15.1183,15.0121,15.0798,15.1875,15.1179,15.1026,15.0795,15.0025,14.9337,14.8725,14.8494,14.7798,14.7567,14.9102,14.9483,14.9714,15.0483,15.1414,15.1414,14.9186,14.749,14.3671,13.5134,12.723,12.1512,11.9576,11.4224,11.1093,11.3786,11.5172,11.3577,10.7074,10.917,10.7064,9.6865,9.7271,9.841,9.9012,10.233,10.4792,10.6102,11.3335,11.9721,12.5027,13.3077,13.9104,14.2523,14.6493,14.772,14.6136,14.8422,14.8794,14.7486,14.9102,14.9333,14.8494,14.941,15.0099,15.0714,15.1337,15.1722,15.2029,15.2029,15.2029,15.2029,15.2029,15.2029,15.2029,0.0,0.0,12.1035,12.3977,13.2822,14.0327,14.2423,15.0795,15.6585,15.5996,15.7269,15.7826,15.643,15.5498,15.4023,15.1413,14.9865,14.8595,14.7494,14.8119,14.8066,14.7434,14.7391,14.6673,14.4977,14.0195,13.2011,0.0,0.0,10.308,9.0877,9.0215,9.1952,9.6021,10.2938,11.0862,11.9715,12.8865,13.7174,14.4482,14.8871,15.0508,15.0236,15.0236,14.9139,14.7725,14.8689,14.9077,14.9366,15.0319,15.1179,15.2029,15.1875,15.1875,15.1722,15.0795,15.0483,15.0333,14.9564,14.8721,14.8263,14.9333,14.9483,14.9714,15.0483,15.1414,15.1722,15.0718,14.741,14.2663,13.6229,13.3178,13.0117,12.5124,12.3337,12.2636,12.2867,12.2967,12.1196,11.5829,11.7505,11.5104,10.4909,10.4095,10.2964,10.0216,10.1019,10.4018,10.9408,11.6179,12.1331,12.4098,13.2497,13.8534,14.1924,14.5383,14.7763,14.907,14.9374,14.9406,14.9329,15.0179,15.0099,14.9406,15.0176,15.056,15.056,15.0025,15.0564,15.2029,15.2029,15.2029,15.2029,15.2029,15.2029,15.2029,12.1864,12.4021,12.7486,13.4103,13.8682,14.3474,14.9838,15.4586,15.7586,15.8225,15.837,15.8094,15.7213,15.5189,15.2986,15.0913,14.9616,14.8694,14.819,14.8493,14.878,14.8867,14.7934,14.7128,14.6472,14.1729,13.4411,0.0,0.0,10.6828,9.6498,9.3227,9.502,10.1224,10.7915,11.5663,12.4074,13.1187,13.8119,14.4377,14.7422,14.8786,14.9183,14.9183,14.8678,14.8026,14.8479,14.9128,14.9778,15.0226,15.1085,15.2029,15.2029,15.2029,15.1875,15.1568,15.1102,15.056,15.0333,14.9564,14.9179,15.0025,15.0176,15.0406,15.1333,15.1718,15.1568,15.0333,14.7021,14.3318,13.9864,13.621,13.3393,13.2314,12.9833,12.8486,13.0022,12.7515,12.3912,11.9326,11.5518,11.0326,10.2794,10.1638,10.1588,10.2313,10.1709,10.232,10.471,11.0791,11.6102,12.0171,12.8563,13.5568,14.1104,14.6025,14.8791,14.9483,15.0487,15.0487,14.9483,15.0872,15.1026,15.0179,14.949,14.949,15.0025,15.0179,15.0564,15.1333,15.1799,15.2029,15.2029,15.2029,15.2029,15.2029,13.0712,13.2164,13.5566,14.3413,14.5567,14.8561,15.5301,15.7313,15.8171,15.8592,15.7661,15.6876,15.6817,15.4372,15.2432,15.1328,14.9872,14.9331,14.972,14.95,14.9691,15.019,14.8735,14.7693,14.7381,14.3074,13.7098,12.942,12.1115,11.2467,10.3784,9.9249,10.0995,10.8287,11.4288,12.1181,12.8769,13.451,13.986,14.4673,14.6829,14.7834,14.7983,14.7983,14.7834,14.7484,14.7932,14.8666,14.979,15.0085,15.1032,15.2029,15.2029,15.2029,15.2029,15.2029,15.141,15.0795,15.1026,15.0333,14.9795,15.0795,15.0872,15.0868,15.1799,15.2029,15.1425,14.9424,14.6867,14.4429,14.2118,13.8566,13.6184,13.6273,13.4116,13.2564,13.341,12.9667,12.5381,12.1237,11.5013,10.8831,10.3223,10.1907,10.2022,10.3407,10.3325,10.34,10.3864,10.9329,11.433,11.8405,12.7332,13.4872,14.0873,14.6563,14.9637,14.9871,15.1333,15.1414,15.0333,15.1029,15.0872,15.0333,14.8571,14.849,14.9483,15.0099,15.0487,15.0795,15.1722,15.1795,15.1564,15.1875,15.1795,15.1722,13.7988,14.239,14.6701,15.068,15.4492,15.7127,15.7569,15.8409,15.8699,15.7913,15.6373,15.5479,15.5919,15.4104,15.2912,15.2873,15.1033,15.0602,15.2184,15.1521,15.1071,15.108,14.9529,14.8324,14.7389,14.423,13.979,13.3991,12.791,12.0473,11.1972,10.8789,11.0996,11.7766,12.2089,12.7121,13.2798,13.8805,14.3128,14.6069,14.7821,14.7794,14.6802,14.6802,14.6101,14.5161,14.6389,14.7576,14.8704,14.9771,15.1032,15.2029,15.2029,15.2029,15.2029,15.2029,15.141,15.0872,15.1799,15.0798,14.9871,15.1568,15.1333,15.0868,15.1799,15.2029,15.1198,14.8364,14.733,14.5714,14.1781,14.0778,13.9401,13.5807,13.6073,13.5571,13.2183,12.9476,12.6338,12.2034,11.8495,11.4413,10.9326,10.8115,10.6172,10.2866,10.571,10.8329,11.0027,11.4866,11.8482,12.0177,13.0099,13.7488,14.18,14.6871,14.9868,15.0718,15.1568,15.2029,15.1875,15.0333,14.9483,14.9406,14.7721,14.7871,14.9483,14.9483,15.0025,15.0795,15.1722,15.1491,15.0795,15.1722,15.1491,15.0795,14.3331,14.5765,14.8335,15.0687,15.4018,15.6317,15.651,15.7404,15.7901,15.7098,15.5295,15.3935,15.3463,15.2431,15.148,15.0883,15.0816,15.093,15.1418,15.1771,15.1718,15.108,14.9595,14.8315,14.7389,14.4816,14.1721,13.8281,13.2211,12.5402,11.8089,11.9171,12.213,12.6711,13.15,13.5496,13.881,14.2826,14.4712,14.4918,14.5827,14.59,14.5631,14.5631,14.533,14.5129,14.5383,14.6784,14.8565,14.8926,15.0433,15.2029,15.2029,15.2029,15.2029,15.2029,15.1799,15.1564,15.1875,15.1568,15.1333,15.1875,15.1799,15.1722,15.1875,15.1487,15.0503,14.8275,14.7322,14.61,14.3473,14.2701,14.1721,14.0017,13.9104,13.7331,13.3869,12.917,12.4287,11.952,11.44,10.9834,10.5917,10.6829,10.7172,10.6174,10.6477,10.5479,10.2561,11.1563,11.7407,11.8638,12.9102,13.7565,14.3486,14.7483,15.0179,15.1568,15.1875,15.2029,15.1875,15.0333,14.9483,14.9406,14.7721,14.7182,14.7798,14.8413,14.9106,15.0025,15.0795,15.0868,15.0714,15.1026,15.0868,15.0714,14.607,14.8233,15.0214,15.1516,15.4291,15.6314,15.6233,15.6581,15.6496,15.5563,15.3761,15.2333,15.1467,15.1026,15.0725,15.0806,15.1004,15.1467,15.2431,15.2593,15.2424,15.1623,15.033,14.911,14.7883,14.5828,14.3732,14.1568,13.611,13.1307,12.6987,12.8795,13.1522,13.4926,13.8324,14.0935,14.2768,14.4864,14.5329,14.4584,14.4864,14.4984,14.4984,14.4984,14.4984,14.4984,14.4984,14.6225,14.7903,14.8363,14.9771,15.1396,15.1937,15.2029,15.2029,15.2029,15.2183,15.2418,15.2106,15.2029,15.2029,15.2029,15.2029,15.2029,15.2029,15.1568,15.0415,14.7662,14.733,14.6626,14.3929,14.3197,14.28,14.2031,14.0184,13.7408,13.3401,12.7927,12.273,11.8313,11.3911,11.0615,10.8812,11.0103,11.1098,11.148,11.1324,10.9631,10.6097,11.2719,11.7872,12.102,13.1564,13.987,14.5794,14.8871,15.1029,15.2029,15.2029,15.1799,15.1491,15.0099,14.9329,14.8871,14.749,14.6875,14.7028,14.7801,14.8494,14.9106,14.9871,15.0176,15.0176,15.0176,15.0176,15.0333,14.6933,14.9615,15.2175,15.2774,15.5077,15.6804,15.6516,15.5806,15.4792,15.3704,15.2105,15.0872,15.0079,15.0006,15.0586,15.212,15.1623,15.2071,15.4419,15.3871,15.3196,15.2318,15.1518,15.027,14.8581,14.6987,14.5394,14.3813,13.9573,13.7664,13.7808,13.7417,13.9009,14.2335,14.2714,14.3592,14.4664,14.5303,14.5274,14.4896,14.4984,14.4984,14.4984,14.4984,14.4984,14.4984,14.4984,14.5804,14.6989,14.8107,14.9334,15.0424,15.1624,15.2029,15.2106,15.2029,15.2572,15.3033,15.2183,15.2029,15.2029,15.2029,15.2029,15.2029,15.2029,15.2029,15.0908,14.7091,14.7317,14.7036,14.3335,14.2894,14.2818,14.2101,13.9726,13.6126,13.0915,12.5876,12.1485,11.787,11.633,11.5696,11.643,11.6569,11.6872,11.7709,11.8405,11.8482,11.8094,11.7561,12.0414,12.7031,13.6876,14.4185,14.8263,15.0798,15.2029,15.2029,15.2029,15.1568,15.0795,14.9868,14.9106,14.8186,14.7263,14.6875,14.7028,14.7801,14.8109,14.8263,14.9179,14.9483,14.9483,14.9483,14.9483,14.9637,14.7171,14.8975,15.0889,15.2235,15.401,15.5227,15.5169,15.4962,15.4526,15.3619,15.2626,15.1679,15.0872,15.0791,15.1011,15.1363,15.1768,15.2291,15.2771,15.3788,15.379,15.2428,15.0917,14.9434,14.77,14.6078,14.4816,14.3813,14.2919,14.2671,14.2981,14.2507,14.35,14.572,14.5615,14.5219,14.4864,14.5967,14.5576,14.4069,14.4816,14.4984,14.4984,14.4984,14.4984,14.4984,14.4984,14.5804,14.6989,14.8107,14.9334,15.0424,15.1624,15.2495,15.2879,15.2183,15.2106,15.2264,15.2106,15.2029,15.2029,15.2029,15.2029,15.2029,15.2029,15.2029,15.1294,14.8822,14.8099,14.7426,14.5825,14.4034,14.2778,14.2784,13.9027,13.4129,12.8324,12.4811,12.0798,11.5512,11.6806,11.7695,11.6587,11.71,11.7635,11.7786,11.6173,11.6792,12.0491,12.4181,12.8099,13.241,14.0489,14.649,15.0102,15.1414,15.2029,15.2029,15.2029,15.1875,15.1568,15.0179,14.941,14.9102,14.7567,14.6875,14.6875,14.7105,14.757,14.8263,14.9179,14.9483,14.9483,14.9483,14.9483,14.9483,14.7925,14.9323,15.0798,15.2127,15.3581,15.4608,15.4234,15.3801,15.3287,15.2472,15.1679,15.0872,15.0138,15.0277,15.0431,14.9976,15.1387,15.2468,15.2798,15.3727,15.3597,15.2433,15.0798,14.9287,14.8001,14.6372,14.5168,14.4311,14.557,14.6081,14.5867,14.6693,14.7066,14.7273,14.6875,14.6198,14.5226,14.5724,14.5314,14.4398,14.4816,14.4984,14.4984,14.4984,14.4984,14.4984,14.4984,14.5362,14.6194,14.7325,14.8721,15.0217,15.0881,15.2196,15.311,15.2264,15.2264,15.2491,15.2106,15.2029,15.2029,15.2029,15.1601,15.1236,15.1236,15.077,15.0011,14.8486,14.7977,14.7516,14.6691,14.4496,14.2532,14.1497,13.6793,13.1169,12.5568,12.2728,11.9875,11.666,11.9324,12.1265,12.1231,12.2562,12.279,12.0787,12.1174,12.2408,12.4409,13.0407,13.4484,13.603,14.3108,14.8106,15.0718,15.1568,15.2029,15.2029,15.2029,15.2029,15.2033,15.056,14.9791,14.9406,14.8106,14.7263,14.6875,14.6875,14.7186,14.7724,14.8102,14.8791,14.9487,14.9106,14.941,15.0022,14.8786,15.0064,15.1378,15.2495,15.3735,15.4307,15.3801,15.292,15.1973,15.1231,15.0431,14.9631,14.897,14.9484,14.9712,14.9125,15.0977,15.2491,15.3127,15.3428,15.3127,15.2201,15.0723,14.9536,14.8515,14.6922,14.5689,14.4984,14.6978,14.7703,14.7203,14.8963,14.9066,14.7623,14.7132,14.6432,14.5482,14.5072,14.4984,14.4984,14.4984,14.4984,14.4984,14.4984,14.4984,14.4984,14.4984,14.4984,14.522,14.6389,14.8119,14.9794,15.0099,15.1593,15.311,15.2264,15.2491,15.2879,15.2183,15.2029,15.2029,15.2029,15.1195,15.0437,15.0213,14.9519,14.8622,14.7877,14.7699,14.7516,14.6992,14.4785,14.2207,13.9465,13.4039,12.8236,12.3121,12.0662,11.9382,11.9584,12.2873,12.5867,12.7723,12.949,12.9102,12.5717,12.8563,13.0099,12.9326,13.602,13.9719,13.9418,14.5266,14.9183,15.0872,15.1568,15.2029,15.2029,15.2029,15.2029,15.2029,15.1102,15.0333,14.9487,14.8721,14.7801,14.6875,14.7028,14.7028,14.6875,14.7182,14.8102,14.9175,14.8802,14.9413,15.0483,14.9382,15.0512,15.1819,15.3874,15.4021,15.3874,15.4381,15.3302,15.1973,15.1231,15.0431,14.9932,14.9705,14.9778,15.0138,15.0703,15.1697,15.2078,15.1469,15.2683,15.2771,15.1395,15.0395,14.9198,14.758,14.6018,14.5124,14.4984,14.5394,14.6032,14.6887,14.6477,14.672,14.7177,14.6182,14.5662,14.5482,14.5072,14.4984,14.4984,14.4984,14.4984,14.4984,14.4984,14.4984,14.4984,14.4984,14.4984,14.522,14.6389,14.8119,14.9794,15.0099,15.1593,15.311,15.2264,15.2106,15.2183,15.2029,15.2029,15.2029,15.2029,15.186,15.1512,15.0365,15.0067,14.9875,14.9803,14.8479,14.7679,14.8821,14.5622,14.1772,13.8775,13.2718,12.6471,12.1378,12.1018,12.139,12.2066,12.7125,13.1179,13.3026,13.1487,13.0798,13.157,13.0875,13.1872,13.518,13.9873,14.3416,14.5493,14.8025,15.0102,15.1799,15.1875,15.2029,15.2029,15.2029,15.2029,15.2029,15.1102,15.0333,14.9483,14.941,14.841,14.7028,14.7724,14.757,14.7028,14.8487,14.8794,14.8571,14.9795,15.0025,14.9791,14.9712,15.0872,15.212,15.3214,15.3801,15.4021,15.3515,15.2781,15.1907,15.0578,15.0064,14.9932,14.9932,14.9932,14.9991,15.0416,15.1203,15.1305,15.0471,15.1966,15.2129,15.0506,14.919,14.7796,14.6135,14.5394,14.4984,14.4984,14.5724,14.6329,14.6781,14.7017,14.7104,14.7003,14.6404,14.5812,14.5226,14.5072,14.4984,14.4984,14.4984,14.4984,14.4984,14.4984,14.4984,14.4984,14.4984,14.4984,14.5172,14.6082,14.8221,15.0383,15.0031,15.1802,15.3726,15.2418,15.2029,15.2029,15.2029,15.1482,15.0976,15.0976,15.0062,14.9105,14.85,14.7869,14.7578,14.8236,14.7761,14.7484,14.8416,14.5504,14.192,13.8595,13.1209,12.5227,12.3294,12.1788,12.2235,12.5834,13.0324,13.4026,13.6103,13.526,13.4491,13.4414,13.4106,13.4875,13.7418,14.1111,14.4493,14.7494,14.9721,15.1183,15.2029,15.2029,15.2029,15.2029,15.2029,15.2029,15.2029,15.1568,15.0872,15.0099,14.9714,14.8794,14.757,14.749,14.7263,14.7028,14.7798,14.8106,14.842,14.9564,15.0099,15.0333,14.9998,15.1173,15.212,15.2274,15.3295,15.3662,15.2186,15.1973,15.1533,15.0079,14.9932,14.9932,14.9932,14.9932,14.9998,15.0219,15.0673,15.0789,15.0195,15.1293,15.1426,15.0013,14.828,14.6732,14.5307,14.5072,14.4984,14.4984,14.5893,14.6391,14.6391,14.7308,14.7308,14.6721,14.6479,14.5981,14.5314,14.5072,14.4984,14.4984,14.4984,14.4984,14.4984,14.4984,14.4984,14.4977,14.519,14.5271,14.5432,14.6019,14.8297,15.0813,14.9794,15.1591,15.388,15.2414,15.2029,15.2029,15.2029,15.1118,15.0181,15.0181,14.8699,14.7082,14.6926,14.6101,14.5688,14.6635,14.7198,14.7616,14.7913,14.562,14.229,13.8134,13.0825,12.5416,12.4813,12.3388,12.4331,12.9737,13.3537,13.6719,13.9034,13.911,13.8261,13.6796,13.7491,13.8415,13.9492,14.2573,14.5804,14.9036,15.1033,15.2029,15.2029,15.2029,15.2029,15.2029,15.2029,15.2029,15.2029,15.2029,15.1487,15.0718,15.0022,14.9183,14.8109,14.7494,14.7105,14.6875,14.7105,14.757,14.8263,14.941,15.0179,15.0795,15.0718,15.1085,15.1378,15.2201,15.2414,15.2193,15.1305,15.1231,15.0872,14.9998,14.9932,14.9932,14.9932,14.9932,15.0211,15.0908,15.1086,15.1077,15.1007,15.112,15.0771,14.9932,14.8302,14.7022,14.6068,14.5394,14.4984,14.4984,14.5072,14.5072,14.5072,14.5226,14.557,14.6223,14.5482,14.5482,14.6068,14.5314,14.4984,14.4984,14.4984,14.4984,14.4984,14.4984,14.4984,14.5124,14.5822,14.613,14.6093,14.6173,14.8271,15.0694,14.9109,15.0762,15.3187,15.2264,15.2029,15.2029,15.2029,15.1118,15.0181,15.0181,14.9278,14.809,14.6983,14.67,14.673,14.6832,14.7666,14.8474,14.8765,14.7008,14.3288,13.6617,13.2422,12.8278,12.3335,12.6027,12.9801,13.3195,13.7464,14.0796,14.2573,14.2111,14.1181,14.0335,14.1027,14.2181,14.379,14.6413,14.9032,15.1568,15.1875,15.2029,15.2029,15.2029,15.2029,15.2029,15.2029,15.2029,15.2029,15.2029,15.1487,15.0718,15.056,14.9721,14.819,14.8109,14.757,14.7028,14.7801,14.8109,14.8417,15.0025,15.056,15.0795,14.9624,15.0424,15.1231,15.1525,15.1973,15.1973,15.1231,15.1085,15.0791,14.9998,14.9932,14.9932,14.9932,14.9932,14.9998,15.0277,15.0815,15.0866,15.0362,15.0836,15.0513,14.919,14.759,14.6721,14.689,14.6223,14.5724,14.5724,14.5226,14.4984,14.4984,14.4984,14.5226,14.5475,14.5705,14.5573,14.5482,14.5724,14.5482,14.4984,14.4984,14.5314,14.5724,14.5226,14.5314,14.5717,14.5498,14.5513,14.5463,14.599,14.7987,15.0106,14.9486,15.1134,15.311,15.2264,15.2029,15.2029,15.2029,15.0632,14.9071,14.9071,14.7718,14.6212,14.5818,14.5695,14.5695,14.5695,14.7186,14.8414,14.799,14.7095,14.5101,14.077,13.5007,13.0908,13.0585,13.0492,13.2162,13.6821,13.9709,14.2104,14.3717,14.3105,14.2723,14.2867,14.3332,14.4178,14.5874,14.8413,15.0414,15.2033,15.2029,15.2029,15.2029,15.2029,15.2029,15.2029,15.2029,15.2029,15.2029,15.2029,15.1799,15.1491,15.0868,15.0102,14.9029,14.8417,14.7724,14.6875,14.7263,14.7724,14.8263,14.9487,15.0333,15.0795,14.911,15.0211,15.1085,15.1085,15.1606,15.1679,15.0791,15.0497,15.013,14.9631,14.9484,14.9484,14.9484,14.9705,14.9932,14.9932,15.0425,15.0535,14.99,15.0189,14.9903,14.8706,14.7612,14.7112,14.7369,14.687,14.6598,14.6567,14.5812,14.5394,14.5394,14.5394,14.5482,14.5805,14.6094,14.5969,14.5812,14.5812,14.5482,14.4984,14.4984,14.5314,14.5798,14.5499,14.5734,14.6209,14.6209,14.5983,14.5815,14.6423,14.798,14.9729,14.9405,15.0977,15.2802,15.2183,15.2029,15.2106,15.2337,15.0671,14.8802,14.8586,14.6683,14.4984,14.4984,14.4984,14.4984,14.4984,14.6908,14.8274,14.7729,14.7394,14.627,14.3098,13.8127,13.4786,13.5189,13.4881,13.6129,13.9878,14.1966,14.3566,14.5021,14.4412,14.4185,14.4794,14.5021,14.6025,14.8029,15.0025,15.1414,15.2029,15.2029,15.2029,15.2029,15.2029,15.2029,15.2029,15.2029,15.2029,15.2029,15.2029,15.2029,15.1875,15.0795,15.0022,14.9406,14.8336,14.7417,14.6875,14.6875,14.7567,14.8721,14.9333,15.0179,15.1179,14.9705,15.0505,15.1085,15.1085,15.1085,15.0791,14.9998,14.9183,14.8669,14.8669,14.8669,14.8669,14.8669,14.9411,14.9932,14.9932,14.9932,14.9915,14.9887,14.9193,14.8699,14.8696,14.8736,14.8272,14.7434,14.7434,14.7392,14.7389,14.6633,14.6223,14.6223,14.6223,14.6567,14.7389,14.6633,14.6567,14.7308,14.5724,14.4977,14.4984,14.4984,14.4984,14.5102,14.5932,14.6225,14.6394,14.8067,14.8067,14.7399,14.7399,14.8381,14.9534,14.8818,15.0072,15.2029,15.2029,15.2029,15.2183,15.3114,15.1506,14.9475,14.8732,14.6838,14.4984,14.4984,14.4984,14.4984,14.4998,14.6921,14.8511,14.8516,14.8327,14.6707,14.2097,14.1713,14.0234,13.5276,13.8812,14.2064,14.2737,14.4506,14.6028,14.6798,14.6182,14.572,14.572,14.649,14.8025,15.0564,15.1487,15.2029,15.2029,15.2029,15.2029,15.2029,15.2029,15.2029,15.2029,15.2029,15.2029,15.2029,15.2029,15.2029,15.1875,15.0176,14.9483,14.941,14.7563,14.6875,14.6875,14.6875,14.8029,14.9483,14.9483,15.0564,15.2029,14.8214,14.933,15.0292,15.0292,15.0292,15.0219,14.9925,14.9183,14.8669,14.8669,14.8221,14.7994,14.8589,14.889,14.9337,14.9932,15.0425,15.0711,15.0665,15.002,14.9492,14.9522,14.8999,14.8771,14.9102,14.8602,14.8331,14.8288,14.7539,14.7025,14.6978,14.6978,14.7229,14.7377,14.7098,14.6914,14.6472,14.5983,14.5778,14.5829,14.519,14.5981,14.7462,14.6591,14.69,14.7876,14.7179,14.6812,14.6504,14.5909,14.6566,14.7906,14.9269,15.0834,15.2029,15.2029,15.2029,15.2183,15.3114,15.1133,14.9109,15.0009,14.803,14.5792,14.5792,14.5425,14.5211,14.6107,14.7481,14.8677,14.9521,14.937,14.8272,14.5669,14.3672,14.2102,14.0708,14.1671,14.3124,14.467,14.5281,14.6028,14.6798,14.6182,14.5871,14.649,14.7871,14.9333,15.056,15.1487,15.2029,15.2029,15.2029,15.2029,15.2029,15.2029,15.2029,15.2029,15.2029,15.2029,15.2029,15.2029,15.2029,15.2029,15.1491,15.0564,14.9487,14.8868,14.8025,14.6875,14.6875,14.7567,14.8721,14.9333,15.0179,15.1183,14.7473,14.8735,14.9932,14.9932,14.9932,14.9932,14.9932,14.9183,14.8669,14.8669,14.8214,14.8067,14.8589,14.897,14.9411,14.9932,15.0271,15.0602,15.0602,15.0182,14.9932,14.9932,14.9432,14.9432,14.9932,14.9432,14.919,14.919,14.8272,14.7898,14.7898,14.7568,14.7429,14.7436,14.7135,14.6686,14.6215,14.5917,14.5719,14.5682,14.5184,14.5901,14.7205,14.6797,14.7076,14.7699,14.7737,14.7018,14.6211,14.6012,14.6592,14.7834,14.9594,15.0972,15.2029,15.2029,15.2029,15.2117,15.249,15.1132,14.9581,15.0094,14.8001,14.5799,14.6093,14.5579,14.5175,14.592,14.7391,14.8569,14.8923,14.9308,14.8927,14.6999,14.5367,14.44,14.4391,14.4673,14.5529,14.6975,14.6875,14.7028,14.7794,14.7182,14.7182,14.8333,14.941,15.0329,15.1183,15.1718,15.2029,15.2029,15.2029,15.2029,15.2029,15.2029,15.2029,15.2029,15.2029,15.2029,15.2029,15.2029,15.2029,15.2029,15.1568,15.0872,14.9868,14.9637,14.8871,14.7871,14.7871,14.841,14.9263,14.9795,15.0487,15.1333,14.7473,14.8809,14.9932,14.9932,14.9932,14.9932,14.9932,14.9183,14.8669,14.8669,14.8589,14.8596,14.8669,14.9411,14.9778,14.9932,14.9932,14.9932,14.9932,14.9932,14.9932,14.9932,14.9932,14.9932,14.9932,14.9932,14.9932,14.9932,14.919,14.8771,14.8771,14.7934,14.7495,14.7477,14.6567,14.6223,14.6223,14.5387,14.5124,14.5183,14.5067,14.5192,14.5498,14.6886,14.6892,14.6605,14.8985,14.8207,14.6313,14.701,14.7793,14.8694,14.9733,15.087,15.2029,15.2029,15.2029,15.1931,15.1599,15.1089,15.0433,14.9428,14.7077,14.5204,14.6019,14.5579,14.5063,14.526,14.7002,14.8306,14.7486,14.8534,14.8814,14.6793,14.6702,14.6907,14.6571,14.7608,14.8571,14.9406,14.8798,14.8567,14.9406,14.8798,14.9032,15.0564,15.0718,15.1102,15.2033,15.2029,15.2029,15.2029,15.2029,15.2029,15.2029,15.2029,15.2029,15.2029,15.2029,15.2029,15.2029,15.2029,15.2029,15.2033,15.1183,15.0795,15.056,14.9868,14.9483,14.941,14.9487,14.9871,15.041,15.0483,15.1102,15.1799,14.8368,14.9183,14.9932,14.9932,14.9932,14.9932,14.9932,14.9183,14.8669,14.8669,14.8067,14.7913,14.8589,14.8897,14.9183,14.9778,14.9932,14.9932,14.9932,14.9932,14.9932,14.9932,14.9932,14.9932,14.9932,14.9932,14.9932,14.9932,14.9682,14.9601,14.9601,14.8771,14.8405,14.8387,14.689,14.6223,14.6215,14.6019,14.6276,14.6797,14.6174,14.668,14.7891,14.7479,14.7304,14.731,14.8471,14.7832,14.6079,14.5734,14.6779,14.8493,14.8813,15.0303,15.2029,15.2029,15.2029,15.1931,15.1599,15.0279,14.8961,14.921,14.7077,14.5204,14.6019,14.5579,14.5508,14.7391,14.8071,14.8481,14.8583,14.8916,14.8414,14.6414,14.6879,14.7502,14.7364,14.8512,14.9333,14.9487,14.9329,14.9333,14.9483,14.9329,14.9564,15.056,15.0718,15.1102,15.2033,15.2029,15.2029,15.2029,15.2029,15.2029,15.2029,15.2029,15.2029,15.2029,15.2029,15.2029,15.2029,15.2029,15.2029,15.2029,15.1799,15.1333,15.0718,15.0483,14.9721,14.849,14.9175,14.8794,14.7875,14.9333,14.9871,15.0099,14.8515,14.9036,14.9404,14.9778,14.9932,14.9932,14.9932,14.9477,14.9264,14.9264,14.889,14.8816,14.9183,14.9264,14.9404,14.9932,14.9932,14.9932,14.9932,14.9932,15.0101,15.0513,15.0513,15.0513,15.0513,15.0513,15.0271,14.9932,14.9932,14.9932,14.9932,14.869,14.8082,14.7968,14.6789,14.5967,14.5717,14.6012,14.6218,14.6298,14.6196,14.6467,14.6987,14.7272,14.6885,14.6496,14.8073,14.7919,14.66,14.5403,14.6613,14.8516,14.8521,15.009,15.2029,15.2029,15.2029,15.1694,15.0413,14.9573,14.8837,14.7503,14.6397,14.5725,14.6093,14.5579,14.5487,14.7319,14.8113,14.8386,14.8217,14.8634,14.8321,14.626,14.6614,14.718,14.7633,14.8427,14.9179,15.0025,14.9714,14.9714,15.0022,15.041,15.0872,15.1333,15.1333,15.1487,15.2029,15.2029,15.2029,15.2029,15.2029,15.2029,15.2029,15.2029,15.2029,15.2029,15.2029,15.2029,15.2029,15.2029,15.2029,15.2029,15.2029,15.1718,15.1333,15.1333,15.0798,15.0029,15.0102,14.9487,14.8794,14.9714,15.0099,15.0099,14.853,14.8816,14.911,14.9785,14.9932,14.9932,14.9705,14.9778,14.9932,14.9705,14.9778,14.9932,14.9932,14.9932,14.9932,14.9932,14.9932,14.9932,14.9932,15.0013,15.0425,15.1094,15.1189,15.1233,15.1071,15.1138,15.0682,14.9932,14.9932,14.9932,14.9932,14.8191,14.7407,14.7381,14.6372,14.5602,14.5125,14.5865,14.5821,14.5299,14.5917,14.5829,14.5381,14.67,14.6269,14.5331,14.7603,14.7888,14.6978,14.5482,14.6586,14.849,14.8535,15.0098,15.2029,15.2029,15.2029,15.1524,14.9122,14.9028,14.8828,14.582,14.5498,14.6019,14.6019,14.5505,14.5264,14.6577,14.757,14.7896,14.7126,14.7913,14.7994,14.6225,14.6404,14.6985,14.7763,14.8512,14.9263,15.0564,15.0099,15.0022,15.0795,15.141,15.1795,15.2029,15.2029,15.2029,15.2029,15.2029,15.2029,15.2029,15.2029,15.2029,15.2029,15.2029,15.2029,15.2029,15.2029,15.2029,15.2029,15.2029,15.2029,15.2029,15.2029,15.2029,15.2029,15.2029,15.1799,15.1491,15.0872,15.0487,15.0333,15.0564,15.056,15.0483,14.8816,14.9264,14.9785,14.9932,14.9932,14.9712,14.897,14.9492,14.9712,14.897,14.9484,14.9932,14.9932,14.9932,14.9932,14.9932,14.9932,14.9932,14.9932,15.0602,15.1014,15.1094,15.1809,15.1781,15.1103,15.1077,15.0682,14.9932,14.9932,14.9932,14.9932,14.8191,14.7407,14.7308,14.5783,14.5089,14.5125,14.5895,14.6127,14.5966,14.6218,14.6123,14.6064,14.6335,14.5776,14.5234,14.703,14.7066,14.6223,14.5314,14.6625,14.8467,14.8471,15.0091,15.2029,15.2029,15.2029,15.1524,14.9122,14.8581,14.8082,14.5591,14.5131,14.5212,14.5212,14.5131,14.5264,14.6577,14.6921,14.6828,14.6006,14.6515,14.6812,14.5825,14.7075,14.8389,14.8825,15.0433,15.1337,15.0795,15.0564,15.0872,15.1718,15.1179,15.1179,15.1875,15.2029,15.2029,15.2029,15.2029,15.2029,15.2029,15.2029,15.2029,15.2029,15.2029,15.2029,15.2029,15.2029,15.2029,15.2029,15.2029,15.2029,15.2029,15.2029,15.2029,15.2029,15.2029,15.1102,14.9871,15.0487,14.9798,14.8725,15.0183,15.0333,14.9795,14.9286,14.9301,14.9397,14.9785,14.9492,14.9279,14.9418,14.889,14.8735,14.9337,14.9337,14.9411,14.9932,14.9932,14.9932,14.9932,14.9932,14.9932,14.9932,15.0182,15.0821,15.1736,15.1708,15.1689,15.177,15.0878,15.0013,14.919,14.9682,14.9682,14.919,14.8014,14.7165,14.6721,14.5981,14.5381,14.5126,14.5932,14.5872,14.5636,14.5996,14.5895,14.5639,14.5996,14.5724,14.5072,14.5812,14.6068,14.6068,14.5314,14.6631,14.8489,14.8475,15.009,15.2029,15.2029,15.2029,15.1509,14.9119,14.8508,14.7932,14.5591,14.4984,14.4984,14.4984,14.4984,14.5264,14.6577,14.6776,14.6708,14.6329,14.6634,14.6708,14.6267,14.6731,14.7376,14.8201,14.9206,14.9875,15.0025,15.0022,15.0179,15.0564,15.0333,15.041,15.1179,15.1333,15.1491,15.2029,15.2029,15.2029,15.2029,15.2029,15.2029,15.2029,15.2029,15.2029,15.2029,15.2029,15.2029,15.2029,15.2029,15.2029,15.2029,15.2029,15.2029,15.2029,15.2029,15.1568,15.0795,15.0333,14.9564,14.9025,14.9795,15.0099,15.0333]},{"header":{"parameterUnit":"m.s-1","parameterCategory":1,"la1":30.6,"la2":28.766,"lo1":-90.7593,"lo2":-88.6598,"dy":0.0162,"dx":0.0183,"nx":116,"ny":114,"refTime":"2023-10-31T12:00:00:Z","depth":0,"parameterNumber":3,"parameterNumberName":"V-component_of_WINDS"},"data":[0.0,0.0,0.0,0.0,0.0,0.0,0.0,0.0,0.0,0.0,0.0,0.0,0.0,0.0,0.0,0.0,0.0,0.0,0.0,0.0,0.0,0.0,0.0,0.0,0.0,0.0,0.0,0.0,0.0,0.0,0.0,0.0,0.0,0.0,0.0,0.0,0.0,0.0,0.0,0.0,0.0,0.0,0.0,0.0,0.0,0.0,0.0,0.0,0.0,0.0,0.0,0.0,0.0,0.0,0.0,0.0,0.0,0.0,0.0,0.0,0.0,0.0,0.0,0.0,0.0,0.0,0.0,0.0,0.0,0.0,0.0,0.0,0.0,0.0,0.0,0.0,0.0,0.0,0.0,0.0,0.0,0.0,0.0,0.0,0.0,0.0,0.0,0.0,0.0,0.0,0.0,0.0,0.0,0.0,0.0,0.0,0.0,0.0,0.0,0.0,0.0,0.0,0.0,0.0,0.0,0.0,0.0,0.0,0.0,0.0,0.0,0.0,0.0,0.0,0.0,0.0,0.0,0.0,0.0,0.0,0.0,0.0,0.0,0.0,0.0,0.0,0.0,0.0,0.0,0.0,0.0,0.0,0.0,0.0,0.0,0.0,0.0,0.0,0.0,0.0,0.0,0.0,0.0,0.0,0.0,0.0,0.0,0.0,0.0,0.0,0.0,0.0,0.0,0.0,0.0,0.0,0.0,0.0,0.0,0.0,0.0,0.0,0.0,0.0,0.0,0.0,0.0,0.0,0.0,0.0,0.0,0.0,0.0,0.0,0.0,0.0,0.0,0.0,0.0,0.0,0.0,0.0,0.0,0.0,0.0,0.0,0.0,0.0,0.0,0.0,0.0,0.0,0.0,0.0,0.0,0.0,0.0,0.0,0.0,0.0,0.0,0.0,0.0,0.0,0.0,0.0,0.0,0.0,0.0,0.0,0.0,0.0,0.0,0.0,0.0,0.0,0.0,0.0,0.0,0.0,0.0,0.0,0.0,0.0,0.0,0.0,0.0,0.0,0.0,0.0,0.0,0.0,0.0,0.0,0.0,0.0,0.0,0.0,0.0,0.0,0.0,0.0,0.0,0.0,0.0,0.0,0.0,0.0,0.0,0.0,0.0,0.0,0.0,0.0,0.0,0.0,0.0,0.0,0.0,0.0,0.0,0.0,0.0,0.0,0.0,0.0,0.0,0.0,0.0,0.0,0.0,0.0,0.0,0.0,0.0,0.0,0.0,0.0,0.0,0.0,0.0,0.0,0.0,0.0,0.0,0.0,0.0,0.0,0.0,0.0,0.0,0.0,0.0,0.0,0.0,0.0,0.0,0.0,0.0,0.0,0.0,0.0,0.0,0.0,0.0,0.0,0.0,0.0,0.0,0.0,0.0,0.0,0.0,0.0,0.0,0.0,0.0,0.0,0.0,0.0,0.0,0.0,0.0,0.0,0.0,0.0,0.0,0.0,0.0,0.0,0.0,0.0,0.0,0.0,0.0,0.0,0.0,0.0,0.0,0.0,0.0,0.0,0.0,0.0,0.0,0.0,0.0,0.0,0.0,0.0,0.0,0.0,0.0,0.0,0.0,0.0,0.0,0.0,0.0,0.0,0.0,0.0,0.0,0.0,0.0,0.0,0.0,0.0,0.0,0.0,0.0,0.0,0.0,0.0,0.0,0.0,0.0,0.0,0.0,0.0,0.0,0.0,0.0,0.0,0.0,0.0,0.0,0.0,0.0,0.0,0.0,0.0,0.0,0.0,0.0,0.0,0.0,0.0,0.0,0.0,0.0,0.0,0.0,0.0,0.0,0.0,0.0,0.0,0.0,0.0,0.0,0.0,0.0,0.0,0.0,0.0,0.0,0.0,0.0,0.0,0.0,0.0,0.0,0.0,0.0,0.0,0.0,0.0,0.0,0.0,0.0,0.0,0.0,0.0,0.0,0.0,0.0,0.0,0.0,0.0,0.0,0.0,0.0,0.0,0.0,0.0,0.0,0.0,0.0,0.0,0.0,0.0,0.0,0.0,0.0,0.0,0.0,0.0,0.0,0.0,0.0,0.0,0.0,0.0,0.0,0.0,0.0,0.0,0.0,0.0,0.0,0.0,0.0,0.0,0.0,0.0,0.0,0.0,0.0,0.0,0.0,0.0,0.0,0.0,0.0,0.0,0.0,0.0,0.0,0.0,0.0,0.0,0.0,0.0,0.0,0.0,0.0,0.0,0.0,0.0,0.0,0.0,0.0,0.0,0.0,0.0,0.0,0.0,0.0,0.0,0.0,0.0,0.0,0.0,0.0,0.0,0.0,0.0,0.0,0.0,0.0,0.0,0.0,0.0,0.0,0.0,0.0,0.0,0.0,0.0,0.0,0.0,0.0,0.0,0.0,0.0,0.0,0.0,0.0,0.0,0.0,0.0,0.0,0.0,0.0,0.0,0.0,0.0,0.0,0.0,0.0,0.0,0.0,0.0,0.0,0.0,0.0,0.0,0.0,0.0,0.0,0.0,0.0,0.0,0.0,0.0,0.0,0.0,0.0,0.0,0.0,0.0,0.0,0.0,0.0,0.0,0.0,0.0,0.0,0.0,0.0,0.0,0.0,0.0,0.0,0.0,0.0,0.0,0.0,0.0,0.0,0.0,0.0,0.0,0.0,0.0,0.0,0.0,0.0,0.0,0.0,0.0,0.0,0.0,0.0,0.0,0.0,0.0,0.0,0.0,0.0,0.0,0.0,0.0,0.0,0.0,0.0,0.0,0.0,0.0,0.0,0.0,0.0,0.0,0.0,0.0,0.0,0.0,0.0,0.0,0.0,0.0,0.0,0.0,0.0,0.0,0.0,0.0,0.0,0.0,0.0,0.0,0.0,0.0,0.0,0.0,0.0,0.0,0.0,0.0,0.0,0.0,0.0,0.0,0.0,0.0,0.0,0.0,0.0,0.0,0.0,0.0,0.0,0.0,0.0,0.0,0.0,0.0,0.0,0.0,0.0,0.0,0.0,0.0,0.0,0.0,0.0,0.0,0.0,0.0,0.0,0.0,0.0,0.0,0.0,0.0,0.0,0.0,0.0,0.0,0.0,0.0,0.0,0.0,0.0,0.0,0.0,0.0,0.0,0.0,0.0,0.0,0.0,0.0,0.0,0.0,0.0,0.0,0.0,0.0,0.0,0.0,0.0,0.0,0.0,0.0,0.0,0.0,0.0,0.0,0.0,0.0,0.0,0.0,0.0,0.0,0.0,0.0,0.0,0.0,0.0,0.0,0.0,0.0,0.0,0.0,0.0,0.0,0.0,0.0,0.0,0.0,0.0,0.0,0.0,0.0,0.0,0.0,0.0,0.0,0.0,0.0,0.0,0.0,0.0,0.0,0.0,0.0,0.0,0.0,0.0,0.0,0.0,0.0,0.0,0.0,0.0,0.0,0.0,0.0,0.0,0.0,0.0,0.0,0.0,0.0,0.0,0.0,0.0,0.0,0.0,0.0,0.0,0.0,0.0,0.0,0.0,0.0,0.0,0.0,0.0,0.0,0.0,0.0,0.0,0.0,0.0,0.0,0.0,0.0,0.0,0.0,0.0,0.0,0.0,0.0,0.0,0.0,0.0,0.0,0.0,0.0,0.0,0.0,0.0,0.0,0.0,0.0,0.0,0.0,0.0,0.0,0.0,0.0,0.0,0.0,0.0,0.0,0.0,0.0,0.0,0.0,0.0,0.0,0.0,0.0,0.0,0.0,0.0,0.0,0.0,0.0,0.0,0.0,0.0,0.0,0.0,0.0,0.0,0.0,0.0,0.0,0.0,0.0,0.0,0.0,0.0,0.0,0.0,0.0,0.0,0.0,0.0,0.0,0.0,0.0,0.0,0.0,0.0,0.0,0.0,0.0,0.0,0.0,0.0,0.0,0.0,0.0,0.0,0.0,0.0,0.0,0.0,0.0,0.0,0.0,0.0,0.0,0.0,0.0,0.0,0.0,0.0,0.0,0.0,0.0,0.0,0.0,0.0,0.0,0.0,0.0,0.0,0.0,0.0,0.0,0.0,0.0,0.0,0.0,0.0,0.0,0.0,0.0,0.0,0.0,0.0,0.0,0.0,0.0,0.0,0.0,0.0,0.0,0.0,0.0,0.0,0.0,0.0,0.0,0.0,0.0,0.0,0.0,0.0,0.0,0.0,0.0,0.0,0.0,0.0,0.0,0.0,0.0,0.0,0.0,0.0,0.0,0.0,0.0,0.0,0.0,0.0,0.0,0.0,0.0,0.0,0.0,0.0,0.0,0.0,0.0,0.0,0.0,0.0,0.0,0.0,0.0,0.0,0.0,0.0,0.0,0.0,0.0,0.0,0.0,0.0,0.0,0.0,0.0,0.0,0.0,0.0,0.0,0.0,0.0,0.0,0.0,0.0,0.0,0.0,0.0,0.0,0.0,0.0,0.0,0.0,0.0,0.0,0.0,0.0,0.0,0.0,0.0,0.0,0.0,0.0,0.0,0.0,0.0,0.0,0.0,0.0,0.0,0.0,0.0,0.0,0.0,0.0,0.0,0.0,0.0,0.0,0.0,0.0,0.0,0.0,0.0,0.0,0.0,0.0,0.0,0.0,0.0,0.0,0.0,0.0,0.0,0.0,0.0,0.0,0.0,0.0,0.0,0.0,0.0,0.0,0.0,0.0,0.0,0.0,0.0,0.0,0.0,0.0,0.0,0.0,0.0,0.0,0.0,0.0,0.0,0.0,0.0,0.0,0.0,0.0,0.0,0.0,0.0,0.0,0.0,0.0,0.0,0.0,0.0,0.0,0.0,0.0,0.0,0.0,0.0,0.0,0.0,0.0,0.0,0.0,0.0,0.0,0.0,0.0,0.0,0.0,0.0,0.0,0.0,0.0,0.0,0.0,0.0,0.0,0.0,0.0,0.0,0.0,0.0,0.0,0.0,0.0,0.0,0.0,0.0,0.0,0.0,0.0,0.0,0.0,0.0,0.0,0.0,0.0,0.0,0.0,0.0,0.0,0.0,0.0,0.0,0.0,0.0,0.0,0.0,0.0,0.0,0.0,0.0,0.0,0.0,0.0,0.0,0.0,0.0,0.0,0.0,0.0,0.0,0.0,0.0,0.0,0.0,0.0,0.0,0.0,0.0,0.0,0.0,0.0,0.0,0.0,0.0,0.0,0.0,0.0,0.0,0.0,0.0,0.0,0.0,0.0,0.0,0.0,0.0,0.0,0.0,0.0,0.0,0.0,0.0,0.0,0.0,0.0,0.0,0.0,0.0,0.0,0.0,0.0,0.0,0.0,0.0,0.0,0.0,0.0,0.0,0.0,0.0,0.0,0.0,0.0,0.0,0.0,0.0,0.0,0.0,0.0,0.0,0.0,0.0,0.0,0.0,0.0,0.0,0.0,0.0,0.0,0.0,0.0,0.0,0.0,0.0,0.0,0.0,0.0,0.0,0.0,0.0,0.0,0.0,0.0,0.0,0.0,0.0,0.0,0.0,0.0,0.0,0.0,0.0,0.0,0.0,0.0,0.0,0.0,0.0,0.0,0.0,0.0,0.0,0.0,0.0,0.0,0.0,0.0,0.0,0.0,0.0,0.0,0.0,0.0,0.0,0.0,0.0,0.0,0.0,0.0,0.0,0.0,0.0,0.0,0.0,0.0,0.0,0.0,0.0,0.0,0.0,0.0,0.0,0.0,0.0,0.0,0.0,0.0,0.0,0.0,0.0,0.0,0.0,0.0,0.0,0.0,0.0,0.0,0.0,0.0,0.0,0.0,0.0,0.0,0.0,0.0,0.0,0.0,0.0,0.0,0.0,0.0,0.0,0.0,0.0,0.0,0.0,0.0,0.0,0.0,0.0,0.0,0.0,0.0,0.0,0.0,0.0,0.0,0.0,0.0,0.0,0.0,0.0,0.0,0.0,0.0,0.0,0.0,0.0,0.0,0.0,0.0,0.0,0.0,0.0,0.0,0.0,0.0,0.0,0.0,0.0,0.0,0.0,0.0,0.0,0.0,0.0,0.0,0.0,0.0,0.0,0.0,0.0,0.0,0.0,0.0,0.0,0.0,0.0,0.0,0.0,0.0,0.0,0.0,0.0,0.0,0.0,0.0,0.0,0.0,0.0,0.0,0.0,0.0,0.0,1.0739,0.9094,0.0,0.0,0.0,0.0,0.0,0.0,0.0,0.0,0.0,0.0,0.0,0.0,0.0,0.0,0.0,0.0,0.0,0.0,0.0,0.0,0.0,0.0,0.0,0.0,0.0,0.0,0.0,0.0,0.0,0.0,0.0,0.0,0.0,0.0,0.0,0.0,0.0,0.0,0.0,0.0,0.0,0.0,0.0,0.0,0.0,0.0,0.0,0.0,0.0,0.0,0.0,0.0,0.0,0.0,0.0,0.0,0.0,0.0,0.0,0.0,0.0,0.0,0.0,0.0,0.0,0.0,0.0,0.0,0.0,0.0,0.0,0.0,0.0,0.0,0.0,0.0,0.0,0.0,0.0,0.0,0.0,0.0,0.0,0.0,0.0,0.0,0.0,0.0,0.0,0.0,0.0,0.0,0.0,0.0,0.0,0.0,0.0,0.0,0.0,0.0,0.0,0.0,0.0,0.0,0.0,0.0,0.0,0.0,0.0,0.0,0.0,0.0,0.0,0.0,1.3903,1.2219,0.0,0.0,0.0,0.0,0.0,0.0,0.0,0.0,0.0,0.0,0.0,0.0,0.0,0.0,0.0,0.0,0.0,0.0,0.0,0.0,0.0,0.0,0.0,0.0,0.0,0.0,0.0,0.0,0.0,0.0,0.0,0.0,0.0,0.0,0.0,0.0,0.0,0.0,0.0,0.0,0.0,0.0,0.0,0.0,0.0,0.0,0.0,0.0,0.0,0.0,0.0,0.0,0.0,0.0,0.0,0.0,0.0,0.0,0.0,0.0,0.0,0.0,0.0,0.0,0.0,0.0,0.0,0.0,0.0,0.0,0.0,0.0,0.0,0.0,0.0,0.0,0.0,0.0,0.0,0.0,0.0,0.0,0.0,0.0,0.0,0.0,0.0,0.0,0.0,0.0,0.0,0.0,0.0,0.0,0.0,0.0,0.0,0.0,0.0,0.0,0.0,0.0,0.0,0.0,0.0,0.0,0.0,0.0,1.6361,1.6247,1.5979,1.7222,1.7785,1.7726,1.688,1.6247,1.5568,1.2137,0.0,0.0,0.0,0.0,0.0,0.0,0.0,0.0,0.0,0.0,0.0,0.0,0.0,0.0,0.0,0.0,0.0,0.0,0.0,0.0,0.0,0.0,0.0,0.0,0.0,0.0,0.0,0.0,0.0,0.0,0.0,0.0,0.0,0.0,0.0,0.0,0.0,0.0,1.4684,1.4696,1.4531,1.4137,0.0,0.0,0.0,0.0,0.0,0.0,0.0,0.0,0.0,0.0,0.0,0.0,0.0,0.0,0.0,0.0,0.0,0.0,0.0,0.0,0.0,0.0,0.0,0.0,0.0,0.0,0.0,0.0,0.0,0.0,0.0,0.0,0.0,0.0,0.0,0.0,0.0,0.0,0.0,0.0,0.0,0.0,0.0,0.0,1.5747,1.5408,0.0,0.0,0.0,0.0,0.0,0.0,0.0,0.0,0.0,0.0,0.0,0.0,0.0,1.5232,1.6226,1.659,1.692,1.7233,1.8546,1.9198,1.9291,1.9586,1.9847,2.0073,2.0107,0.0,1.6674,1.5956,0.0,0.0,0.0,0.0,0.0,0.0,0.0,0.0,0.0,0.0,0.0,0.0,0.0,0.0,0.0,0.0,0.0,0.0,0.0,0.0,0.0,0.0,0.0,0.0,0.0,0.0,0.0,0.0,0.0,0.0,0.0,0.0,0.0,0.0,0.0,0.0,1.7104,1.7163,1.694,1.7031,1.7136,1.7162,1.5963,1.4271,1.2307,1.2155,0.0,0.0,0.0,0.0,0.0,0.0,0.0,0.0,0.0,0.0,0.0,0.0,0.0,0.0,0.0,0.0,0.0,0.0,0.0,0.0,0.0,0.0,0.0,0.0,0.0,0.0,0.0,0.0,0.0,0.0,0.0,0.0,0.0,0.0,0.0,0.0,0.0,0.0,0.0,0.7256,1.3166,1.4772,1.2421,0.8756,0.0,0.0,0.0,0.0,0.0,0.0,0.0,0.0,0.0,1.7407,1.6946,1.7204,1.8331,1.8672,1.9025,1.9434,2.0169,2.0718,2.1033,2.1163,2.1337,2.1537,2.1787,2.1116,1.9708,1.81,1.7002,1.6206,0.0,0.0,0.0,0.0,1.4674,1.35,0.0,0.0,0.0,0.0,0.0,0.0,0.0,0.0,0.0,0.0,0.0,0.0,0.0,0.0,0.0,1.1673,0.0,0.0,0.0,0.0,0.0,0.0,0.0,0.0,0.0,0.0,0.0,0.0,1.8115,1.8505,1.8815,1.8953,1.9037,1.9022,1.8815,1.7173,1.454,1.447,1.3834,0.0,0.0,0.0,0.0,0.0,0.0,0.0,0.0,0.0,0.0,0.0,0.0,0.0,0.0,0.0,0.0,0.0,0.0,0.0,0.0,0.0,0.0,0.0,0.0,0.0,0.0,0.0,0.0,0.0,0.0,0.0,0.0,0.0,0.0,0.0,0.0,0.0,0.0,0.5729,1.119,1.4617,1.3528,1.1371,0.0,0.0,0.0,0.0,0.0,0.0,1.8905,1.777,1.7881,1.979,1.882,1.8908,2.0259,2.0526,2.0933,2.1462,2.1597,2.1869,2.2235,2.2371,2.253,2.2733,2.2981,2.289,2.2369,2.0064,1.8867,1.8396,1.7876,1.76,1.7768,1.9753,1.9007,1.7333,0.0,0.0,0.0,0.0,0.0,0.0,0.0,0.0,0.0,0.0,0.0,0.0,0.0,0.0,1.3605,1.5033,1.383,1.2755,0.0,0.0,0.0,0.0,0.0,0.0,0.0,0.0,0.0,1.8433,1.8664,1.9078,1.9634,1.9649,1.9649,1.9649,1.9439,1.862,1.7378,1.7123,1.6184,1.4787,0.0,0.0,0.0,0.0,0.0,0.0,0.0,0.0,0.0,0.0,0.0,0.0,0.0,0.0,0.0,0.0,0.0,0.0,0.0,0.0,0.0,0.0,0.0,0.0,0.0,0.0,0.0,0.0,0.0,0.0,0.0,0.0,0.0,0.0,0.0,0.0,0.0,0.0,0.0,1.8658,1.6253,0.0,0.0,0.0,0.0,1.4059,1.7178,1.8249,1.6392,1.8457,1.9871,2.0256,2.0492,2.1009,2.1777,2.2055,2.2353,2.2714,2.2846,2.2991,2.314,2.3271,2.3501,2.3822,2.3841,2.3822,2.3714,2.2423,2.1554,2.0987,2.0708,2.0586,2.0559,2.0517,2.0523,2.0566,0.0,0.0,0.0,0.0,0.0,0.0,0.0,0.0,0.0,0.0,0.0,0.0,0.0,1.3238,1.4814,1.5997,1.6141,1.5632,1.4447,0.0,0.0,0.0,0.0,0.0,0.0,0.0,1.835,1.9087,1.9461,1.9999,2.0661,2.0661,2.0607,2.0526,2.0363,1.9849,1.902,1.8232,1.7431,1.6563,1.5301,1.4215,0.0,0.0,0.0,0.0,0.0,0.0,0.0,0.0,0.0,0.0,0.0,0.0,0.0,0.0,0.0,0.0,0.0,0.0,0.0,0.0,0.0,0.0,0.0,0.0,0.0,0.0,0.0,0.0,0.0,0.0,0.0,0.0,0.0,0.0,0.0,0.0,0.0,1.7394,1.6907,0.0,1.4925,1.5348,1.5769,1.5927,1.8201,1.9409,1.8966,2.0166,2.1093,2.1564,2.2004,2.2371,2.2733,2.313,2.3429,2.3646,2.3772,2.3926,2.4112,2.4243,2.4365,2.4473,2.4473,2.4419,2.4289,2.3551,2.2723,2.1865,2.1394,2.119,2.1201,2.1245,2.1315,2.14,0.0,0.0,0.0,0.0,0.0,0.0,0.0,0.0,0.0,0.0,0.0,1.2087,1.259,1.4783,1.6585,1.751,1.8051,1.7535,1.5655,0.0,0.0,0.0,0.0,0.0,0.0,1.8364,1.8993,1.9776,2.0347,2.096,2.1564,2.1564,2.1472,2.1302,2.1153,2.0786,2.0202,1.929,1.8489,1.7743,1.6664,1.58,1.4856,0.0,0.0,0.0,0.0,0.0,0.0,0.0,0.0,0.0,0.0,0.0,0.0,0.0,0.0,0.0,0.0,0.0,0.0,0.0,0.0,0.0,0.0,0.0,0.0,0.0,0.0,0.0,0.0,0.0,0.0,0.0,0.0,0.0,0.0,1.8824,1.9005,1.7938,1.8315,1.8152,1.6907,1.746,1.7947,1.8043,1.9424,2.0512,2.1009,2.1621,2.216,2.2661,2.3162,2.3501,2.3668,2.4066,2.4311,2.44,2.449,2.4617,2.4737,2.488,2.4962,2.5035,2.5035,2.4981,2.4865,2.4411,2.3709,2.2905,2.2109,2.1743,2.1659,2.1842,2.1954,2.2038,0.0,0.0,0.0,0.0,0.0,0.0,0.0,0.0,0.0,0.0,1.0364,1.3194,1.435,1.7085,1.9076,1.9674,1.943,1.8199,1.5822,1.4489,0.0,0.0,0.0,0.0,1.7889,1.8927,1.9788,2.0548,2.134,2.1923,2.2323,2.2305,2.2164,2.1913,2.178,2.1465,2.0987,2.039,1.9454,1.8341,1.803,1.6944,1.5341,0.0,0.0,0.0,0.0,0.0,0.0,0.0,0.0,0.0,0.0,0.0,0.0,0.0,0.0,0.0,0.0,0.0,0.0,0.0,0.0,0.0,0.0,0.0,0.0,0.0,0.0,0.0,0.0,0.0,0.0,0.0,0.0,0.0,1.8317,1.9313,2.0205,2.0745,2.0554,2.0356,2.0356,2.0132,2.0148,2.0548,2.1131,2.1659,2.2127,2.2723,2.3167,2.3447,2.4011,2.4441,2.4634,2.4894,2.5043,2.5037,2.5037,2.5037,2.5051,2.5173,2.5336,2.5544,2.5517,2.5517,2.549,2.5003,2.4617,2.4205,2.308,2.2446,2.2164,2.2299,2.2466,2.2636,0.0,0.0,0.0,0.0,0.0,0.0,0.0,0.0,0.0,0.0,1.0206,1.3913,1.4041,1.7461,1.996,2.0449,1.9919,1.8769,1.6878,0.0,0.0,0.0,0.0,0.0,1.8922,1.9691,2.0521,2.1516,2.1933,2.2316,2.2656,2.2547,2.2487,2.2392,2.2113,2.1869,2.1614,2.1106,2.0456,1.9656,1.8612,1.7901,1.7313,0.0,0.0,0.0,0.0,0.0,0.0,0.0,0.0,0.0,0.0,0.0,0.0,0.0,0.0,0.0,0.0,0.0,0.0,0.0,0.0,0.0,0.0,0.0,0.0,0.0,0.0,0.0,0.0,0.0,0.0,0.0,1.5814,1.8712,1.8864,1.9654,2.0466,2.1154,2.1542,2.1737,2.1737,2.1815,2.1903,2.2008,2.253,2.2977,2.3257,2.3827,2.4248,2.44,2.4747,2.5111,2.5388,2.5464,2.5607,2.579,2.579,2.5864,2.6013,2.604,2.6094,2.6135,2.5993,2.5884,2.5762,2.5449,2.5063,2.4596,2.3841,2.3433,2.3253,2.3293,2.3347,2.3379,0.0,0.0,0.0,0.0,0.0,0.0,0.0,0.0,0.0,0.0,1.1103,1.5031,1.4962,1.822,2.0528,2.0854,2.0256,1.8923,1.668,0.0,0.0,0.0,0.0,1.7226,1.9637,2.0523,2.1408,2.2283,2.2696,2.2995,2.3193,2.3148,2.3044,2.2836,2.2588,2.2374,2.2161,2.1692,2.1283,2.0878,1.9696,1.8937,1.8322,1.6624,1.585,1.543,1.3723,1.3192,1.3085,1.1793,0.0,0.0,0.0,0.0,0.0,0.0,0.0,0.0,0.0,0.0,0.0,0.0,0.0,0.0,0.0,0.0,0.0,0.0,0.0,0.0,0.0,0.0,0.0,0.0,1.7189,1.9874,2.0216,2.0619,2.1174,2.1987,2.2485,2.281,2.2963,2.308,2.3166,2.3216,2.3695,2.4034,2.4153,2.4688,2.5008,2.509,2.5497,2.5762,2.5871,2.6013,2.6135,2.6224,2.6224,2.6298,2.64,2.6454,2.6454,2.64,2.6352,2.6237,2.6094,2.5796,2.5464,2.5111,0.0,0.0,0.0,0.0,2.3881,2.3836,0.0,0.0,0.0,0.0,0.0,0.0,0.0,0.0,0.0,0.0,0.0,1.5969,1.6367,1.9027,2.0856,2.096,2.025,1.8588,0.0,0.0,0.0,1.5833,1.7139,1.8597,2.0239,2.1421,2.2307,2.2904,2.3474,2.3746,2.3746,2.3881,2.37,2.3275,2.3113,2.29,2.2636,2.2171,2.1954,2.1842,2.1025,1.9997,1.8824,1.7566,1.6774,1.6191,1.5043,1.4335,1.3926,1.3809,0.0,0.0,0.0,0.0,0.0,0.0,0.0,0.0,0.0,0.0,0.0,0.0,0.0,0.0,0.0,0.0,0.0,0.0,0.0,0.0,0.0,0.0,0.0,0.0,2.022,2.1372,2.1957,2.2052,2.232,2.3103,2.3433,2.3718,2.4012,2.4072,2.4134,2.4265,2.4663,2.4913,2.4921,2.5321,0.0,0.0,0.0,2.6325,2.6176,2.6475,2.6563,2.6468,2.6454,2.6447,2.6488,2.6597,2.657,2.6475,2.6597,2.6556,2.64,2.6101,2.5884,2.5667,2.494,2.4452,2.417,2.417,2.417,2.4134,0.0,0.0,0.0,0.0,0.0,0.0,0.0,0.0,0.0,0.9212,1.2236,1.4661,1.6229,1.9027,2.08,2.0843,1.9096,1.7112,0.0,0.0,1.5958,1.7257,1.8886,2.0277,2.137,2.2303,2.3022,2.3528,2.3863,2.4021,2.4021,2.4048,2.3958,2.3754,2.3447,2.3235,2.3063,2.2636,2.2307,2.2059,2.1865,2.1066,1.991,1.9064,1.8603,1.8374,1.8014,1.7653,1.7197,1.6225,1.5469,1.4719,1.3703,0.0,0.0,0.0,0.0,0.0,0.0,0.0,0.0,0.0,0.0,0.0,0.0,0.0,0.0,0.0,0.0,0.0,0.0,0.0,0.0,2.0044,2.1073,2.1901,2.2818,2.366,2.4234,2.4275,2.4617,2.4869,2.4943,2.5098,2.5259,2.5369,2.5464,2.5572,2.5667,2.5884,2.6061,2.6223,2.6346,2.6488,2.6651,2.6624,2.6705,2.6881,2.6759,0.0,2.7044,2.6962,2.6908,2.6881,2.6908,2.678,2.6563,2.6488,2.6291,2.5946,2.5214,2.4826,2.4663,2.4663,2.4601,2.4452,0.0,0.0,0.0,0.0,0.0,0.0,0.0,0.0,0.6672,0.8957,1.1173,1.3235,1.5002,1.6852,1.8191,1.881,1.706,0.0,0.0,1.6371,1.7489,1.8944,2.0406,2.157,2.2316,2.3063,2.3687,2.4139,2.4419,2.4544,2.4544,2.4612,2.4514,2.4248,2.4085,2.3836,2.3519,2.3158,2.2855,2.2625,2.2425,2.1937,2.1212,2.0469,2.008,1.9849,1.955,1.9183,1.874,1.8078,1.7487,1.6928,1.6226,1.5303,1.413,0.0,0.0,0.0,0.0,0.0,0.0,0.0,0.0,0.0,0.0,0.0,0.0,0.0,0.0,1.4632,1.5368,0.0,1.9149,2.0958,2.1875,2.2764,2.3939,2.4753,2.5198,2.5082,2.5361,2.558,2.5628,2.5749,2.583,2.5898,2.5993,2.6081,2.6149,2.6278,2.6427,2.6597,2.6658,2.6807,2.6989,2.6922,2.6983,2.709,2.7023,2.7084,2.7199,2.722,2.72,2.709,2.709,2.6989,2.678,2.6665,2.6475,2.6196,2.583,2.5565,2.5315,2.5098,2.5016,2.4981,0.0,0.0,0.0,0.0,0.0,0.0,0.0,0.0,0.0,0.8007,0.9972,1.1978,1.3657,1.4487,1.518,1.5853,1.5215,1.5202,0.0,1.7395,1.8861,2.0611,2.1727,2.2601,2.3198,2.3782,2.4302,2.4783,2.5016,2.5146,2.5173,2.5268,2.5111,2.4783,2.4688,2.4411,2.4017,2.3636,2.342,2.328,2.2945,2.2669,2.2404,2.1852,2.1367,2.0965,2.0512,1.9981,1.948,1.9398,1.8978,1.8463,1.8449,1.7482,1.5975,1.3833,1.275,0.0,0.0,0.0,0.0,0.0,0.0,0.0,0.0,1.1101,1.0809,1.4993,1.6165,1.6646,1.7354,1.8308,1.9644,2.1642,2.2741,2.3768,2.4935,2.5545,2.5837,2.5734,2.5925,2.6115,2.6176,2.6217,2.6257,2.6264,2.6413,2.6529,2.6556,2.6665,2.6766,2.6867,2.6969,2.7111,2.7261,2.7253,2.7267,2.7342,2.7267,2.7288,2.7334,2.7452,2.7404,2.7261,2.7212,2.7152,2.703,2.6807,2.6651,2.6502,2.6488,2.6312,2.602,2.5553,2.545,2.549,0.0,0.0,0.0,0.0,0.0,0.0,0.0,0.0,0.0,0.7161,0.9308,1.1433,1.3105,1.3889,1.378,1.2479,1.4708,1.6031,1.5713,1.8272,2.0493,2.2008,2.2733,2.3357,2.3967,2.446,2.494,2.5395,2.5551,2.5667,2.5803,2.5694,2.5551,2.5381,2.4948,2.4682,2.4498,2.4039,2.3768,2.3651,2.3596,2.3375,2.3095,2.3131,2.2584,2.172,2.1374,2.0645,1.9849,1.9956,1.925,1.8395,1.8803,1.8703,1.7919,1.5145,0.0,1.3216,1.0385,1.0273,1.1205,1.2212,1.2294,1.2975,0.0,1.5578,1.5204,1.829,1.8948,1.9179,1.9782,2.0782,2.1791,2.2706,2.3836,2.4786,2.5361,2.604,2.6488,2.6475,2.661,2.6658,2.6556,2.6644,2.6759,2.6887,2.6922,2.6969,2.709,2.7118,2.7152,2.7145,2.7158,2.7274,2.7452,2.7479,2.7601,2.7816,2.758,2.7601,2.7803,2.7601,2.7501,2.7452,2.7274,2.7185,2.7185,2.7145,2.7036,2.6922,2.6807,2.6725,2.6644,2.6156,2.5871,2.566,0.0,0.0,0.0,0.0,0.0,0.0,0.0,0.0,0.0,0.0,0.0,0.9607,1.1477,1.1959,1.1575,1.0122,1.2894,1.4984,1.5617,1.8851,2.1405,2.2891,2.3714,2.4319,2.4739,2.5125,2.5491,2.5844,2.5925,2.602,2.6189,2.6006,2.5871,2.5728,2.545,2.5144,2.4813,2.4547,2.4284,2.4048,2.3967,2.3863,2.3709,2.3614,2.3103,2.2234,2.0803,1.9815,0.0,0.0,1.8398,1.8183,1.9112,1.8674,1.7397,1.5298,1.4236,0.0,1.2758,1.2355,1.2702,1.4848,1.5516,1.6167,1.8193,1.8255,1.8261,1.9535,2.0081,2.0591,2.1478,2.2361,2.3198,2.4034,2.4826,2.5511,2.6074,2.6393,2.6597,2.6597,2.6712,2.678,2.6712,2.6834,2.6935,2.7003,2.7084,2.7185,2.7363,2.7355,2.7458,2.7613,2.7613,2.7702,2.7865,2.7865,2.7911,2.802,2.7884,2.7911,2.802,2.7884,2.7749,2.7615,2.7431,2.7315,2.7199,2.7199,2.7158,2.7118,2.7036,2.7023,2.6976,2.6468,2.6257,2.6176,0.0,0.0,0.0,0.0,0.0,0.0,0.0,0.0,0.0,0.0,0.0,0.0,0.0,1.0028,0.9705,0.8729,1.1278,1.3701,1.5549,1.8758,2.1457,2.3393,2.4338,2.4962,2.5336,2.5654,2.5952,2.623,2.623,2.6332,2.6502,2.6332,2.6176,2.6074,2.5878,2.5599,2.5247,2.5076,2.4826,2.4544,2.4395,2.4238,2.4061,2.3736,2.2902,2.1683,2.0023,1.893,0.0,0.0,1.6851,1.6941,1.8013,1.752,1.6258,1.4722,1.3786,1.3328,1.3688,1.3925,1.4601,1.6829,1.7994,1.8802,1.9546,1.9997,2.0352,2.0648,2.119,2.1896,2.2836,2.3596,2.4311,2.5125,2.564,2.6135,2.6651,2.6719,2.6644,2.6488,2.6522,2.6549,2.6549,2.6813,2.7044,2.7139,2.7253,2.7437,2.7648,2.7669,2.777,2.8041,2.8041,2.8123,2.8291,2.8291,2.831,2.835,2.831,2.8291,2.8291,2.8223,2.8047,2.7811,2.7662,2.7553,2.7443,2.7383,2.7342,2.7321,2.7315,2.7261,2.7145,2.6712,2.659,2.659,0.0,0.0,0.0,0.0,0.0,0.0,0.0,0.0,0.0,0.0,0.0,0.0,0.0,0.8444,0.8551,0.851,1.0324,1.2636,1.5416,1.7785,2.0445,2.3555,2.4411,2.507,2.5674,2.5946,2.6251,2.657,2.657,2.6644,2.678,2.6651,2.657,2.6556,2.623,2.6,2.5864,2.5592,2.5355,2.5154,2.5037,2.4612,2.4048,2.3596,2.1814,1.9563,1.9386,0.0,0.0,0.0,1.4595,1.421,1.4776,1.5053,1.4873,1.3398,1.2792,1.253,1.2093,1.4194,1.6551,1.6774,1.8114,1.9559,2.0304,2.0833,2.1361,2.2075,2.2715,2.3329,2.3939,2.4549,2.5159,2.5776,2.6271,2.6658,2.6962,2.6989,2.6786,2.6183,2.6,2.5939,2.5939,2.659,2.7139,2.7452,2.7615,2.7811,2.8066,2.8079,2.8169,2.8375,2.8375,2.8511,2.8765,2.8765,2.8847,2.896,2.8847,2.8765,2.8774,2.8511,2.8286,2.8079,2.7938,2.7965,2.8039,2.7789,2.7689,2.7662,2.7547,2.7363,2.7185,2.7044,2.6908,2.6766,0.0,0.0,0.0,0.0,0.0,0.0,0.0,0.0,0.0,0.0,0.0,0.0,0.0,0.0,0.0,0.0,1.0062,1.1776,1.3621,1.6921,1.9651,2.155,2.3956,2.5388,2.5694,2.6278,2.6631,2.6725,2.6725,2.6773,2.6807,2.6665,2.6597,2.6597,2.6393,2.6156,2.5878,2.5803,2.5619,2.5375,2.5003,2.4691,2.4222,2.2335,2.0574,1.8761,0.0,0.0,0.0,0.0,1.2637,1.2792,1.3923,1.3736,1.3018,1.257,1.2483,1.2961,1.4895,1.639,1.7752,1.9222,2.0258,2.1125,2.1869,2.2353,2.2729,2.2968,2.241,2.1954,2.2248,2.2738,2.3276,2.388,2.5443,2.6712,2.7077,2.7131,2.6833,2.6054,2.6196,2.6115,2.5498,2.6027,2.6705,2.7439,2.7702,2.8014,2.8408,2.853,2.863,2.8792,2.8792,2.8847,2.8919,2.8919,2.8969,2.9,2.8946,2.8901,2.8792,2.8598,2.8443,2.8286,2.8101,2.802,2.7965,2.7879,2.7784,2.7689,2.7547,2.7452,2.7363,2.7098,2.6976,2.6908,0.0,0.0,0.0,0.0,0.0,0.0,0.0,0.0,0.0,0.0,0.0,0.0,0.0,0.0,0.0,0.0,0.0,1.0701,1.2403,1.5066,1.7594,1.9863,2.1974,2.3472,2.4243,2.4737,2.5138,2.5518,2.564,2.5884,2.6237,2.6129,2.6129,2.621,2.6169,2.5952,2.5654,2.5654,2.5396,2.4954,2.4329,2.3598,2.2606,2.0417,1.8357,0.0,0.0,0.0,0.0,0.0,1.0945,1.1679,1.268,1.2948,1.2802,1.2392,1.3301,1.4893,1.7018,1.8452,1.9691,2.1202,2.2021,2.2619,2.3148,2.3551,2.3799,2.3745,2.239,2.1246,2.1383,2.1488,2.1836,2.2685,2.4676,2.6359,2.709,2.7084,2.678,2.6217,2.6217,2.6067,2.5498,2.5797,2.6413,2.7336,2.7749,2.8163,2.8593,2.8774,2.8942,2.9113,2.9113,2.9118,2.9172,2.9172,2.9172,2.9172,2.9172,2.9113,2.8977,2.8891,2.8769,2.8598,2.8394,2.8223,2.8136,2.7965,2.7865,2.7757,2.7567,2.7493,2.7452,2.7111,2.7003,2.6976,0.0,0.0,0.0,0.0,0.0,0.0,0.0,0.0,0.0,0.0,0.0,0.0,0.0,0.0,0.0,0.0,0.0,0.0,1.1698,1.2425,1.4486,1.8321,1.8627,1.9564,2.1434,2.1554,2.2075,2.3023,2.3411,2.408,2.5018,2.5037,2.5119,2.5327,2.5443,2.5342,2.5018,2.5024,2.459,2.3872,2.3013,2.1439,1.9451,1.8,1.5376,1.237,1.1585,1.0177,0.8707,0.878,0.9745,1.0959,1.1234,1.2696,1.4094,1.2988,1.5181,1.8042,1.8426,2.0319,2.2276,2.2623,2.3343,2.3999,2.4143,2.4406,2.4547,2.4314,2.2543,2.1076,2.1223,2.0794,2.0869,2.2228,2.4013,2.5722,2.7036,2.6908,2.6665,0.0,0.0,0.0,0.0,0.0,2.6325,2.7185,2.7768,2.8237,2.8606,2.8874,2.9104,2.9294,2.9321,2.9366,2.9502,2.9502,2.9502,2.9502,2.9502,2.9443,2.9294,2.9294,2.9181,2.8996,2.872,2.8606,2.8552,2.8109,2.7884,2.7865,2.7601,2.7479,2.7439,2.7119,2.6989,2.6976,0.0,0.0,0.0,0.0,0.0,0.0,0.0,0.0,0.0,0.0,0.0,0.0,0.0,0.0,0.0,0.0,0.0,0.0,0.9703,1.1437,1.3002,1.4276,1.629,1.7684,1.8329,1.9577,2.0367,2.0663,2.171,2.2347,2.2588,2.2696,2.2764,2.2822,2.285,2.2768,2.2592,2.2431,2.215,2.173,2.1055,1.9833,1.8208,1.6152,1.4023,1.1936,1.0388,0.9316,0.8785,0.9834,1.123,1.2548,1.2761,1.3508,1.4576,1.5951,1.7435,1.9057,2.0983,2.2369,2.3429,2.4085,2.4473,2.4793,2.5076,2.5022,2.4704,2.3999,2.105,1.8712,1.9163,1.8668,1.8946,2.1176,2.4099,2.6488,2.758,2.7708,2.7559,2.7098,0.0,2.6923,2.6603,2.6895,2.7309,2.7835,2.7925,2.8223,2.886,2.9195,2.9398,2.9448,2.9448,2.9475,2.9502,2.9502,2.9502,2.9502,2.9502,2.9443,2.9294,2.9294,2.9181,2.8996,2.8828,2.8638,2.843,2.8155,2.7871,2.7588,2.7355,2.722,2.7119,2.6929,2.6861,2.6861,0.0,0.0,0.0,0.0,0.0,0.0,0.0,0.0,0.0,0.0,0.0,0.0,0.0,0.0,0.0,0.0,0.0,0.0,0.0,0.9991,1.109,1.1933,1.3308,1.4437,1.5285,1.6187,1.7112,1.8087,1.8952,1.9809,2.0609,2.0743,2.0811,2.0811,2.0962,2.0951,2.08,2.0702,2.0401,0.0,0.0,1.7359,1.5807,1.368,1.1971,1.0548,0.9434,0.9714,1.0798,1.1902,1.3259,1.454,1.5015,1.6075,1.7351,1.8327,1.9609,2.1104,2.2862,2.3909,2.4601,2.507,2.5301,2.5151,2.4172,2.3728,2.298,2.109,1.8119,1.6088,1.6869,1.689,1.7695,2.0452,2.3687,2.6332,2.7634,2.7925,2.7965,0.0,2.7784,0.0,2.7396,2.7607,2.7946,2.8364,2.8277,2.844,2.896,2.9317,2.9502,2.9502,2.9502,2.9502,2.9502,2.9502,2.9502,2.9502,2.9502,2.9448,2.938,2.938,2.9299,2.9127,2.8964,2.8706,2.8375,2.8196,2.7857,2.7479,2.7274,2.7118,2.6969,2.6861,2.6807,2.6807,0.0,0.0,0.0,0.0,0.0,0.0,0.0,0.0,0.0,0.0,0.0,0.0,0.0,0.0,0.0,0.0,0.0,0.0,0.0,0.0,0.9263,1.0585,1.0344,1.0866,1.2356,1.2418,1.3348,1.5211,1.5803,1.6907,1.852,1.8771,1.8909,1.8936,1.9238,1.9306,1.9212,1.9199,1.88,1.8019,1.6324,1.4621,1.2926,0.0,0.0,0.8967,0.8797,1.0526,1.3031,1.4093,1.544,1.6811,1.7627,1.9348,2.0949,2.0478,2.1718,2.3411,2.426,2.5016,2.5625,2.5782,2.5844,2.5195,2.2651,2.1721,2.0542,1.7426,1.493,1.3713,1.5019,1.5637,1.701,2.0312,2.3319,2.5851,2.758,2.7925,2.8191,2.8647,2.8462,2.8291,2.8291,2.8296,2.8494,2.8914,2.8815,2.8842,2.9041,2.9344,2.9493,2.9543,2.9543,2.9543,2.9557,2.9529,2.9529,2.9557,2.9529,2.9493,2.9543,2.9493,2.9434,2.9321,2.9113,2.8792,2.843,2.8209,2.7871,2.7506,2.7315,2.7152,2.6989,2.6867,2.682,2.6807,0.0,0.0,0.0,0.0,0.0,0.0,0.0,0.0,0.0,0.0,0.8129,0.8107,0.0,0.0,0.0,0.0,0.0,0.0,0.0,0.0,0.0,0.9233,0.9086,0.9236,0.9752,1.0552,1.1167,1.1597,1.3481,1.4582,1.4918,1.5836,1.6348,1.6508,1.6562,1.6644,1.6726,1.6603,1.5918,1.4881,1.4422,1.2944,1.0981,0.0,0.0,0.0,0.8942,0.9893,1.1563,1.4343,1.6992,1.9253,2.0229,2.1342,2.2411,2.3023,2.3815,2.4636,2.5287,2.5722,2.6074,2.6366,2.6094,2.5142,2.2836,2.1383,1.9688,1.6757,1.4127,1.3108,1.5631,1.5817,1.7145,2.1963,2.4274,2.6149,2.8158,2.857,2.8774,2.9145,2.9217,2.9249,2.9249,2.9357,2.9497,2.9687,2.9579,2.9479,2.9412,2.9475,2.9557,2.9646,2.9669,2.9724,2.9823,2.9602,2.9602,2.9832,2.9602,2.9547,2.9646,2.9557,2.9489,2.9448,2.9145,2.8901,2.8706,2.8277,2.7925,2.7648,2.7485,2.7255,2.7003,2.6976,2.6902,2.6807,0.0,0.0,0.0,0.0,0.0,0.0,0.0,0.148,0.4147,0.8464,0.897,0.8811,0.8501,0.8457,0.8512,0.0,0.0,0.0,0.0,0.0,0.0,0.0,0.0,0.0,0.8891,0.9432,0.9992,1.0539,0.0,1.2642,1.3537,1.4129,1.4725,1.5287,1.5287,1.541,1.5589,1.4926,1.4348,1.3787,1.268,1.1585,1.0543,0.0,0.0,0.0,0.0,0.9937,1.1424,1.3383,1.6453,1.9748,2.1565,2.2764,2.3632,2.4365,2.4943,2.5491,2.6122,2.6461,2.6684,2.6786,2.6203,2.4636,2.0979,1.9156,1.7068,1.3033,1.1183,1.0922,1.2992,1.3769,1.5331,1.9045,2.1635,2.3929,2.6149,2.726,2.8245,2.9271,2.9529,2.9602,2.9602,2.9724,2.9863,2.9976,2.9877,2.9778,2.971,2.9642,2.9642,2.971,2.971,2.9728,2.9796,2.9751,2.9751,2.9796,2.9669,2.9602,2.9588,2.9543,2.9475,2.938,2.9127,2.8847,2.857,2.8237,2.7884,2.7601,2.7534,2.7336,2.709,2.7023,2.6962,2.6881,0.0,0.0,0.0,0.0,0.0,0.0,0.0,0.3419,0.6869,0.9257,0.9644,0.9504,0.8977,0.8787,0.8727,0.0,0.0,0.0,0.0,0.0,0.0,0.0,0.0,0.0,0.8696,0.0,0.0,1.0039,1.0323,0.0,0.0,0.0,0.0,0.0,1.4673,1.4809,1.4815,1.3928,1.3356,0.0,0.0,1.0559,1.0263,0.0,0.0,0.0,0.0,0.9927,1.121,1.237,1.5073,1.8402,2.0944,2.2694,2.3936,2.4491,2.503,2.5644,2.6629,2.7057,2.7233,2.7077,2.6224,2.4103,1.9219,1.7033,1.4665,0.9711,0.8596,0.8961,1.0499,1.1746,1.3393,1.6023,1.8591,2.1234,2.4028,2.5665,2.73,2.9235,2.9706,2.9809,2.9741,2.9941,3.008,3.0162,3.0076,2.9972,2.9904,2.9823,2.9805,2.9805,2.9805,2.9819,2.9846,2.9877,2.9863,2.9805,2.9728,2.9642,2.9534,2.9493,2.9443,2.9294,2.91,2.8806,2.847,2.8209,2.7911,2.7607,2.7561,2.7439,2.7261,2.709,2.7036,2.703,0.0,0.0,0.0,0.0,0.0,0.0,0.0,0.5273,0.9238,0.9168,0.9468,0.9679,0.9613,0.9279,0.9008,0.0,0.0,0.0,0.0,0.0,0.0,0.0,0.0,0.0,0.0,0.0,0.0,0.886,0.9844,0.0,0.0,0.0,0.0,0.0,0.0,1.4543,1.3828,1.3734,0.0,0.0,0.0,0.0,0.0,0.0,0.0,0.0,0.0,0.928,0.9865,1.2193,1.3401,1.4361,1.6856,1.9798,2.2378,2.2819,2.3397,2.4379,2.6573,2.7315,2.7439,2.7233,2.6108,2.3826,1.9149,1.6644,1.4049,0.9609,0.8403,0.8745,1.0704,1.137,1.273,1.6117,1.7319,1.9301,2.3537,2.4741,2.6201,2.8996,2.991,3.0222,2.9904,3.028,3.0483,3.0385,3.0371,3.0226,2.9918,3.0003,3.007,3.007,3.007,3.0138,3.033,3.004,2.9949,3.007,2.9809,2.9687,2.9674,2.9547,2.9443,2.9294,2.91,2.8914,2.8747,2.8269,2.8079,2.8012,2.7784,2.7601,2.7452,2.7261,2.7185,2.7145,0.0,0.0,0.0,0.0,0.0,0.0,0.4372,0.7625,0.9528,0.9036,0.9569,0.9923,0.9724,0.9551,0.9338,0.9041,0.0,0.0,0.0,0.0,0.0,0.0,0.0,0.0,0.0,0.0,0.8776,0.8696,0.9245,0.0,0.0,0.0,0.0,0.0,0.0,1.2923,1.2757,1.202,0.0,0.0,0.0,0.0,0.0,0.0,0.0,0.0,0.0,0.0,0.9435,1.0352,1.1724,1.2974,1.2625,1.4666,1.7813,2.1184,2.2837,2.4147,2.6682,2.7757,2.8063,2.7613,2.6183,2.3657,1.8932,1.6266,1.3576,0.9339,0.8264,0.8363,0.9251,0.9602,1.0372,1.2243,1.3533,1.5735,1.9854,2.1621,2.3905,2.7771,2.8864,2.9557,3.0131,3.0429,3.0538,3.0402,3.0412,3.0334,3.0198,3.0148,3.0098,3.0098,3.0098,3.0138,3.0216,3.0094,3.0003,2.9985,2.9796,2.9656,2.9574,2.952,2.9475,2.9394,2.9118,2.8928,2.8752,2.8296,2.8039,2.7965,2.777,2.7662,2.7594,2.7431,2.7377,2.735,0.0,0.0,0.0,0.0,0.0,0.1291,0.5116,0.7711,0.9167,0.8984,0.9542,0.9939,0.986,0.9653,0.9171,0.8291,0.8664,0.0,0.0,0.0,0.0,0.0,0.0,0.0,0.0,0.0,0.8811,0.8759,0.8947,0.9343,0.0,0.0,1.084,1.1546,0.0,0.0,0.0,0.0,0.0,0.0,0.0,0.0,0.0,0.0,0.0,0.0,0.0,0.0,0.0,0.0,0.0,1.1439,0.9919,1.0883,1.363,1.8962,2.1387,2.3071,2.6339,2.7784,2.8272,2.7778,2.5792,2.2872,1.862,1.5638,1.2687,0.9024,0.8177,0.8138,0.8275,0.8449,0.8811,0.9558,1.1187,1.3485,1.6739,1.8896,2.1466,2.505,2.6506,2.7677,2.8843,2.9921,3.0534,3.0456,3.0425,3.0412,3.0412,3.028,3.0202,3.0202,3.0202,3.0152,3.0098,3.0098,3.0003,2.9823,2.9741,2.9629,2.9502,2.9502,2.9489,2.9421,2.9118,2.8946,2.882,2.831,2.8087,2.8014,2.7784,2.7702,2.7689,2.7547,2.7534,2.7534,0.0,0.0,0.0,0.0,0.0,0.0,0.0071,0.4654,0.8354,0.9014,0.9277,0.9616,1.0145,0.9549,0.8303,0.63,0.7954,0.0,0.0,0.0,0.0,0.0,0.0,0.0,0.0,0.0,0.0,0.8892,0.9033,0.9102,0.9134,1.0269,1.0773,1.0749,0.0,0.0,0.0,0.0,0.0,0.0,0.0,0.0,0.0,0.0,0.0,0.0,0.0,0.0,0.0,0.0,0.0,0.0,0.0,0.9375,1.0508,1.5945,1.8542,2.0662,2.5343,2.7241,2.7838,2.7561,2.4748,2.1254,1.8275,1.4656,1.1218,0.8714,0.8147,0.8138,0.8275,0.8411,0.8703,0.931,1.1262,1.3311,1.5079,1.7225,1.9129,2.052,2.2669,2.4449,2.5439,2.8502,3.0453,3.0602,3.048,3.0412,3.0412,3.0412,3.0412,3.0412,3.0412,3.0307,3.0098,3.0098,2.9962,2.971,2.971,2.9629,2.9502,2.9502,2.9443,2.9294,2.9091,2.9,2.8946,2.835,2.8231,2.8335,2.7879,2.7702,2.7689,2.7547,2.7588,2.7648,0.0,0.0,0.0,0.0,0.0,0.0,0.0,0.4378,0.7899,0.8479,0.8729,0.8917,0.9088,0.9225,0.8984,0.8215,0.8731,0.0,0.0,0.0,0.0,0.0,0.0,0.0,0.0,0.0,0.0,0.0,0.0,0.9257,0.9314,0.9631,0.9765,0.9751,0.9932,0.984,0.0,0.0,0.0,0.0,0.0,0.0,0.9099,0.0,0.0,0.0,0.0,0.0,0.0,0.0,0.0,0.0,0.0,0.0,0.0,1.2995,1.52,1.7281,2.0419,2.1915,2.2435,2.1842,2.0224,1.8078,1.5347,1.3159,1.1023,0.8678,0.8147,0.8138,0.8275,0.8341,0.9038,1.1115,1.219,1.3521,1.5685,1.8718,2.1204,2.251,2.6283,2.8907,2.9239,3.02,3.0799,3.0755,3.0605,3.0548,3.0548,3.0453,3.0334,3.0202,3.0202,3.0121,2.9972,2.9877,2.9782,2.971,2.9602,2.9534,2.9502,2.9502,2.9443,2.9294,2.91,2.8946,2.882,2.831,2.8133,2.8155,2.7816,2.7702,2.7702,2.7648,2.7662,2.7689,0.0,0.0,0.0,0.0,0.0,0.0,0.0,0.4269,0.7678,0.8163,0.8449,0.8632,0.8708,0.8711,0.8594,0.8299,0.8081,0.0,0.0,0.0,0.0,0.0,0.0,0.0,0.0,0.0,0.0,0.0,0.0,0.0,0.0,0.0,0.9497,0.9289,0.9208,0.9131,0.0,0.0,0.0,0.0,0.0,0.0,0.9025,0.0,0.0,0.0,0.0,0.0,0.0,0.0,0.0,0.0,0.0,0.0,0.0,0.0,1.1987,1.3778,1.728,1.8874,1.9424,1.8921,1.7406,1.5579,1.3772,1.1883,1.0071,0.8511,0.8147,0.813,0.8245,0.8327,0.8965,1.0778,1.2446,1.3952,1.5183,1.8771,2.1891,2.3528,2.6955,2.9505,3.0277,3.0704,3.0921,3.088,3.069,3.0592,3.0592,3.0402,3.0202,3.004,3.007,3.0003,2.9823,2.9741,2.9669,2.9629,2.9534,2.9502,2.9502,2.9502,2.9443,2.9294,2.91,2.8928,0.0,2.8296,2.8093,2.8066,2.7803,2.7702,2.7702,2.7702,2.7702,2.7702,0.0,0.0,0.0,0.0,0.0,0.0,0.0,0.427,0.7647,0.8052,0.8389,0.8668,0.8857,0.8155,0.7491,0.7058,0.0,0.0,0.0,0.0,0.0,0.0,0.0,0.0,0.0,0.0,0.0,0.0,0.9432,0.957,0.9714,0.0,0.0,0.9334,0.9305,0.9199,0.0,0.0,0.0,0.0,0.0,0.0,0.0,0.0,0.0,0.0,0.0,0.0,0.0,0.0,0.0,0.0,0.0,0.0,0.0,0.0,0.0,0.0,0.0,1.7314,1.7952,1.7863,1.5726,1.3528,1.3079,0.0,0.0,0.0,0.0,0.0,0.0,0.0,0.0,0.9071,1.2292,1.4557,1.4053,1.7934,2.1724,2.4021,2.563,2.7292,2.9194,3.0253,3.088,3.1005,3.0758,3.0605,3.0592,3.0284,3.003,2.9877,3.0003,2.9958,2.9696,2.9696,2.9629,2.9502,2.9502,2.9502,2.9502,2.9489,2.9394,2.928,2.905,2.8901,2.8747,2.8277,2.8079,2.806,2.7811,2.7702,2.7702,2.7702,2.7702,2.7702,0.0,0.0,0.0,0.0,0.0,0.0,0.0,0.0,0.0,0.0,0.8397,0.8618,0.8663,0.8486,0.8322,0.0,0.0,0.0,0.0,0.0,0.0,0.0,0.0,0.0,0.0,0.0,0.0,0.9155,0.9387,0.9623,0.9851,0.9916,0.0,0.0,0.0,0.0,0.0,0.0,0.0,0.0,0.0,0.0,0.0,0.0,0.0,0.0,0.9099,0.9099,0.0,0.0,0.0,0.0,0.0,0.0,0.0,0.0,0.8784,0.9159,1.051,0.0,1.1744,1.1518,1.0806,1.0108,0.0,0.0,0.0,0.0,0.0,0.0,0.0,0.0,0.0,1.1163,1.3513,1.5222,1.5639,2.0079,2.4498,2.7796,2.9174,2.9942,3.0107,3.0778,3.1199,3.124,3.0921,3.0714,3.0616,3.0284,2.9976,2.9741,2.9782,2.9701,2.9557,2.9557,2.9543,2.9502,2.9502,2.9502,2.9502,2.938,2.9258,2.905,2.8792,2.862,2.847,2.8109,2.7938,2.7925,2.7749,2.7702,2.7702,2.7702,2.7702,2.7702,0.0,0.0,0.0,0.0,0.0,0.0,0.0,0.0,0.0,0.0,0.0,0.0,0.0,0.0,0.0,0.0,0.0,0.0,0.0,0.0,0.0,0.0,0.0,0.0,0.0,0.0,0.0,0.0,0.0,0.977,0.0,0.0,0.0,0.0,0.0,0.0,0.0,0.0,0.0,0.0,0.9143,0.0,0.0,0.0,0.0,0.0,0.9062,0.9057,0.0,0.9049,0.8996,0.8937,0.0,0.0,0.0,0.0,0.8596,0.8632,0.8741,0.9125,0.9485,0.9379,0.9171,0.8971,0.8862,0.0,0.0,0.0,0.0,0.0,0.0,0.0,0.0,1.1491,1.4227,1.7115,1.9818,2.3059,2.6269,2.9226,3.0256,3.0755,3.0806,3.1115,3.1254,3.1175,3.0945,3.0704,3.0534,3.0175,2.9918,2.971,2.9642,2.9574,2.9502,2.9502,3.0604,3.2756,3.2756,3.2756,3.2756,3.262,3.1227,2.8901,2.8693,2.8416,2.8055,2.7879,2.777,2.7702,2.7634,2.7656,2.7702,2.7702,2.7702,2.7689,0.0,0.0,0.0,0.0,0.0,0.0,0.0,0.0,0.0,0.0,0.0,0.0,0.0,0.0,0.0,0.0,0.0,0.0,0.0,0.0,0.0,0.0,0.0,0.0,0.0,0.0,0.0,0.0,0.0,0.0,0.0,0.0,0.0,0.0,0.0,0.0,0.0,0.0,0.0,0.0,0.9174,0.0,0.0,0.0,0.0,0.0,0.0,0.0,0.0,0.9021,0.9008,0.8947,0.8934,0.0,0.0,0.0,0.0,0.0,0.8637,0.9159,0.9613,0.9341,0.911,0.8947,0.8934,0.0,0.0,0.0,0.0,0.0,0.0,0.9694,0.0,1.1582,1.5141,1.9504,2.4354,2.5945,2.7357,2.9398,3.014,3.0629,3.1036,3.1186,3.1175,3.0978,3.0853,3.0636,3.0361,3.0076,2.9823,2.9669,2.9547,2.9502,2.9502,2.9502,3.1886,3.6597,3.6558,3.6907,3.7604,3.669,3.3906,2.9783,2.8888,2.8191,2.7729,2.7689,2.7594,2.7493,2.7479,2.7526,2.7634,2.7662,2.7662,2.7648,0.0,0.0,0.0,0.0,0.0,0.0,0.0,0.0,0.0,0.0,0.0,0.0,0.0,0.0,0.0,0.0,0.0,0.0,0.0,0.0,0.0,0.0,0.0,0.0,0.0,0.0,0.0,0.0,0.0,0.0,1.0379,1.0755,1.0548,0.0,0.0,0.0,0.0,0.0,0.0,0.0,0.9111,0.0,0.0,0.0,0.0,0.0,0.0,0.0,0.0,0.8797,0.8753,0.8723,0.861,0.0,0.0,0.0,0.0,0.0,0.8899,1.0157,1.0909,0.9153,0.8732,0.8715,0.8602,0.0,0.0,0.0,0.0,0.0,0.0,1.0249,1.0872,1.3984,1.7641,2.1503,2.5582,2.6923,2.7954,2.9204,3.0171,3.0568,3.0171,3.069,3.0988,3.0853,3.0714,3.0487,3.0152,2.9985,2.9805,2.9543,2.9493,2.9502,2.9502,2.9502,3.1886,3.6597,3.6378,3.8378,4.2122,3.7671,3.5211,3.4225,2.9882,2.7938,2.7865,2.7607,2.7506,2.7479,2.7315,2.7253,2.7315,2.7479,2.7534,2.7534,0.0,0.0,0.0,0.0,0.0,0.0,0.0,0.0,0.0,0.0,0.0,0.0,0.0,0.0,0.0,0.0,0.0,0.0,0.0,0.0,0.0,0.0,0.0,0.0,0.0,0.0,0.0,0.0,0.0,1.0625,1.0889,1.0736,1.0398,0.9879,0.0,0.0,0.0,0.0,0.0,0.0,0.0,0.0,0.0,0.0,0.0,0.0,0.0,0.0,0.0,0.0,0.8811,0.8795,0.8736,0.0,0.0,0.0,0.0,0.0,0.859,0.934,1.0064,1.0227,1.1008,1.1617,0.0,0.0,0.0,0.0,0.0,0.0,1.142,1.2281,1.4358,1.8981,2.1444,2.3683,2.6352,2.7235,2.8077,2.9366,2.9995,3.0338,3.0378,3.069,3.0839,3.069,3.0575,3.0348,3.0003,2.9863,3.089,3.3278,3.3346,3.4582,3.72,3.7058,3.8042,4.0255,4.2741,4.4896,4.6522,4.1645,3.7847,3.4902,3.0027,2.7824,2.7662,2.7547,2.7439,2.7328,2.7239,2.7199,2.722,2.7288,2.735,2.7336,0.0,0.0,0.0,0.0,0.0,0.0,0.0,0.0,0.0,0.0,0.0,0.0,0.0,0.0,0.0,0.0,0.0,0.0,0.0,0.0,0.5418,0.8621,0.8624,0.0,0.0,0.0,0.9673,1.0188,1.0731,1.1121,1.14,1.0783,1.0303,0.0,0.0,0.0,0.0,0.0,0.0,0.0,0.0,0.0,0.0,0.0,0.0,0.0,0.0,0.0,0.0,0.0,0.0,0.0,0.0,0.0,0.0,0.8496,0.8332,0.824,0.8414,0.8836,0.9707,1.1658,0.0,0.0,0.0,0.0,0.0,0.0,0.0,0.0,1.2683,1.4867,1.7985,2.2217,2.4164,2.5687,2.7206,2.7702,2.8389,2.9633,2.9941,3.0198,3.0663,3.0731,3.0677,3.051,3.0375,3.0185,2.9863,3.0808,3.2968,3.6479,3.7684,4.0023,4.3651,4.4554,4.4978,4.5023,4.8511,5.0539,5.0972,4.5114,4.0262,3.6149,3.0369,2.7743,2.7547,2.7458,2.735,2.7199,2.7131,2.7139,2.7145,2.7145,2.7145,2.7152,0.0,0.0,0.0,0.0,0.0,0.0,0.0,0.0,0.0,0.0,0.0,0.0,0.0,0.0,0.0,0.0,0.0,0.0,0.0,0.0,0.5301,0.8217,0.8561,0.0,0.0,0.9652,1.0004,1.0475,1.1192,1.1619,1.1753,1.1086,1.0562,1.0162,0.0,0.0,0.0,0.0,0.0,0.0,0.0,0.0,0.0,0.0,0.0,0.0,0.0,0.0,0.0,0.0,0.0,0.0,0.0,0.0,0.8479,0.8349,0.8262,0.8313,0.8808,0.9996,1.1492,0.0,0.0,0.0,0.0,0.0,0.0,0.0,0.0,0.0,0.0,1.7653,2.0011,2.0477,2.4078,2.7261,2.8494,2.8959,2.9394,3.0003,3.0229,3.0385,3.0415,3.0538,3.0483,3.0152,3.0125,3.0003,2.9728,3.3888,3.6375,3.6597,4.0938,4.3298,4.3343,4.7771,4.9983,4.9983,4.9501,5.1589,5.5492,4.5992,4.147,4.0627,3.1623,2.7702,2.7662,2.7334,2.7212,2.7179,2.6922,2.6908,2.7009,2.7009,2.7009,2.7009,0.0,0.0,0.0,0.0,0.0,0.0,0.0,0.0,0.0,0.0,0.0,0.0,0.0,0.0,0.0,0.0,0.0,0.0,0.0,0.0,0.528,0.8169,0.8558,0.8935,0.9424,0.9994,1.0616,1.1245,1.1823,1.1979,1.1712,1.0965,0.0,0.0,0.0,0.0,0.0,0.0,0.0,0.0,0.0,0.0,0.0,0.0,0.0,0.0,0.0,0.0,0.0,0.0,0.8523,0.8501,0.8501,0.8501,0.849,0.8439,0.8313,0.824,0.8452,0.9866,1.1766,0.0,0.0,0.0,0.0,0.0,0.0,0.0,0.0,0.0,0.0,2.0307,2.2887,2.275,2.5611,2.8199,2.9122,2.9479,2.9778,3.007,3.027,3.0412,3.0412,3.3045,3.3469,3.0344,3.5478,3.7407,3.4352,3.8608,4.2492,4.5401,4.7264,4.9493,5.2171,5.3629,5.4262,5.4105,5.3778,5.4277,5.518,4.5852,4.1476,4.0766,3.1668,2.7648,2.7561,2.7431,2.7261,2.7057,2.6867,2.6888,2.6989,2.6908,2.6922,2.6989,0.0,0.0,0.0,0.0,0.0,0.0,0.0,0.0,0.0,0.0,0.0,0.0,0.0,0.0,0.0,0.0,0.0,0.0,0.0,0.2513,0.529,0.8177,0.856,0.8951,0.9481,1.0276,1.0984,1.1572,1.2094,1.2085,1.1562,0.0,0.0,0.0,0.0,0.0,0.0,0.0,0.0,0.0,0.0,0.0,0.0,0.0,0.0,0.0,0.0,0.0,0.0,0.0,0.8474,0.8447,0.8504,0.854,0.8531,0.8499,0.8671,0.8861,0.8837,0.989,1.1605,1.4147,0.0,0.0,0.0,0.0,0.0,0.0,0.0,0.0,0.0,0.0,2.4009,2.4109,2.661,2.876,2.9466,2.9724,2.9904,3.0084,3.1524,3.2537,3.2572,3.6766,3.8087,3.4744,4.0413,4.2553,3.9253,4.342,4.742,5.0681,5.2144,5.4306,5.7277,5.6839,5.6385,5.5985,5.4493,5.4197,5.4681,4.5587,4.1291,4.0526,3.1544,2.7539,2.7404,2.7371,2.7187,2.6922,2.6834,2.6854,2.6922,2.6834,2.6854,2.6922,0.0,0.0,0.0,0.0,0.0,0.0,0.0,0.0,0.0,0.0,0.0,0.0,0.0,0.0,0.0,0.0,0.0,0.0,0.0,0.2505,0.5284,0.8175,0.8561,0.9012,0.9686,1.0475,1.1031,1.13,1.1899,1.1883,1.1284,1.0744,0.0,0.0,0.0,0.0,0.0,0.0,0.0,0.0,0.0,0.0,0.0,0.0,0.0,0.0,0.0,0.0,0.0,0.0,0.8411,0.833,0.8539,0.8596,0.8591,0.8523,0.9346,1.0272,1.0201,1.0248,1.1152,1.4548,0.0,0.0,0.0,0.0,0.0,0.0,0.0,2.0951,2.1257,2.2048,2.2934,2.3855,2.6715,2.8996,2.9629,2.9733,2.9865,3.014,3.4314,3.7222,3.7362,4.1542,4.4207,4.4008,4.4078,4.4044,4.3886,4.8125,5.0553,5.0553,5.4874,5.7021,5.6685,5.6439,5.5985,5.5335,5.0604,5.0685,5.4675,4.5307,4.0965,4.041,3.1415,2.7377,2.7185,2.7036,2.6922,2.6807,2.6807,2.6807,2.6807,2.6807,2.6807,2.6807,0.0,0.0,0.0,0.0,0.0,0.0,0.0,0.0,0.0,0.0,0.0,0.0,0.0,0.0,0.0,0.0,0.0,0.0,0.0,0.2423,0.5188,0.817,0.846,0.8697,0.8996,0.9738,1.0632,1.1647,1.1742,1.1415,1.0736,0.0,0.0,0.9669,0.0,0.0,0.0,0.0,0.0,0.0,0.0,0.9099,0.0,0.0,0.0,0.0,0.0,0.0,0.0,0.0,0.0,0.0,0.8463,0.87,0.8836,0.8572,0.8886,0.9242,0.8891,1.0597,0.0,1.4673,0.0,0.0,0.0,0.0,0.0,0.0,2.48,2.3897,2.2766,2.4196,2.535,2.4722,2.7047,2.9118,2.9642,3.2864,3.5229,3.5302,3.954,4.2473,4.2485,4.6477,4.7568,4.3987,4.9825,5.1984,4.8338,5.2647,5.5094,5.4867,5.6141,5.6599,5.616,5.5798,5.5477,5.5083,5.3441,5.3267,5.3942,4.18,3.7853,4.0128,3.1181,2.7206,2.7036,2.6908,2.6834,2.6807,2.6807,2.6807,2.6807,2.6807,2.6807,2.6807,0.0,0.0,0.0,0.0,0.0,0.0,0.0,0.0,0.0,0.0,0.0,0.0,0.0,0.0,0.0,0.0,0.0,0.0,0.0,0.0,0.5182,0.8097,0.8351,0.8599,0.8968,0.9591,1.0252,1.0969,1.1078,1.0816,0.0,0.0,0.0,0.9874,0.0,1.0683,0.0,0.0,0.0,0.9326,0.9285,0.9225,0.9167,0.0,0.0,0.0,0.0,0.0,0.0,0.0,0.0,0.0,0.8449,0.861,0.8801,0.9242,0.9733,1.0239,1.0759,1.2489,0.0,1.66,1.8862,2.1302,2.4006,0.0,0.0,0.0,2.6278,2.5792,2.4892,2.6014,2.6887,2.6272,2.7836,2.9235,2.9574,3.412,3.7382,3.7274,4.3291,4.7391,4.726,5.1267,5.257,4.9404,5.4407,5.6168,5.2844,5.532,5.67,5.6385,5.6252,5.6038,5.5706,5.5391,5.5157,5.497,5.2729,5.246,5.3537,4.2069,3.8155,3.9867,3.0917,2.6989,2.6908,2.6834,2.6807,2.6807,2.6807,2.6807,2.6807,2.6807,2.6807,2.6807,0.0,0.0,0.0,0.0,0.0,0.0,0.0,0.0,0.0,0.0,0.0,0.0,0.0,0.0,0.0,0.0,0.0,0.0,0.0,0.0,0.5146,0.7993,0.827,0.8691,0.9383,0.9796,0.9878,0.9632,1.0108,1.0131,0.0,0.0,1.0559,1.0698,0.0,1.0898,0.0,1.0334,0.9909,0.9379,0.9428,0.9387,0.9256,0.9122,0.0,0.0,0.0,0.0,0.0,0.0,0.0,0.0,0.8455,0.8436,0.8638,1.0063,1.1176,1.2339,1.4223,0.0,0.0,1.9492,2.043,0.0,2.5025,2.6271,2.6828,2.7371,2.7086,2.6855,2.7233,2.7485,2.7757,2.812,2.8828,2.9525,3.0081,3.465,3.8029,3.8218,4.653,5.21,5.1796,5.5613,5.7946,5.7587,5.7555,5.7267,5.6658,5.638,5.6107,5.5813,5.5477,5.5323,5.5323,5.505,5.491,5.4848,5.0224,4.9991,5.334,4.4334,3.9759,3.8524,3.0344,2.6807,2.6807,2.6807,2.6807,2.6807,2.6807,2.6807,2.6807,2.6807,2.6807,2.6807,0.0,0.0,0.0,0.0,0.0,0.0,0.0,0.0,0.0,0.0,0.0,0.0,0.0,0.0,0.0,0.0,0.0,0.0,0.0,0.0,0.4555,0.81,0.8638,0.8999,0.9313,0.9261,0.9212,0.9154,0.9616,0.0,0.0,0.0,0.0,1.199,0.0,1.1835,1.1611,1.0901,1.0046,0.9159,0.9122,0.9085,0.9048,0.8862,0.0,0.0,0.0,0.0,0.0,0.0,0.0,0.0,0.8455,0.8659,0.8846,0.8822,1.0067,1.1629,1.243,1.4668,0.0,1.9712,2.2551,2.5161,2.6562,2.7105,2.7303,2.7274,2.7532,2.7857,2.8096,2.8435,2.8725,2.8784,2.9276,3.0928,3.4699,3.9646,4.4265,4.8009,5.3516,5.7002,5.6924,5.763,5.7871,5.7315,5.7053,5.6652,5.6107,5.5771,5.5471,5.5198,5.4863,5.4682,5.4682,5.4435,5.4275,5.4275,5.3181,5.2886,5.2887,4.0668,3.3107,2.958,2.7636,2.6807,2.6807,2.6807,2.6807,2.6807,2.6807,2.6807,2.6807,2.6807,2.6807,2.6807,0.0,0.0,0.0,0.0,0.0,0.0,0.0,0.0,0.0,0.0,0.0,0.0,0.0,0.0,0.0,0.0,0.0,0.0,0.0,0.0,0.0,0.8241,0.8674,0.8873,0.8916,0.8885,0.8824,0.8766,0.0,0.0,0.0,0.0,0.0,1.1659,0.0,1.1959,1.096,1.0516,0.9845,0.9111,0.9126,0.9089,0.8979,0.0,0.0,0.8438,0.8292,0.0,0.0,0.0,0.0,0.0,0.0,0.0,0.8771,0.933,1.0217,1.1493,1.374,1.6044,1.8651,2.2041,2.4769,2.6786,2.7328,2.758,2.7737,2.7865,2.8115,2.8435,2.8769,3.0924,3.2635,3.2635,3.4776,3.732,3.9807,4.4545,4.8616,5.0997,5.5557,5.8384,5.809,5.7956,5.7577,5.6807,5.6599,5.6198,5.5498,5.529,5.5056,5.4762,5.4575,5.4442,5.4329,5.4168,5.4055,5.3895,5.3761,5.1262,4.6552,3.965,3.2961,2.6807,2.6807,2.6807,2.6807,2.6807,2.6807,2.6807,2.6807,2.6807,2.6807,2.6807,2.6807,2.6807,0.0,0.0,0.0,0.0,0.0,0.0,0.0,0.0,0.0,0.0,0.0,0.0,0.0,0.0,0.0,0.0,0.0,0.0,0.0,0.0,0.0,0.8137,0.8513,0.8645,0.8575,0.8645,0.8637,0.854,0.0,0.0,0.0,0.0,0.0,1.1213,0.0,1.1846,1.026,0.9888,0.9469,0.9082,0.9163,0.9089,0.0,0.0,0.0,0.0,0.8275,0.8346,0.8449,0.8466,0.0,0.0,0.0,0.0,0.8602,0.9992,1.0548,1.1559,1.5454,1.7937,2.0476,2.4811,2.6583,2.7383,2.7662,2.7838,2.8047,2.8511,2.9269,3.0021,3.046,3.4545,3.7836,3.7836,4.1206,4.4089,4.4912,4.866,5.1519,5.2076,5.5806,5.8148,5.7662,5.7502,5.7133,5.6359,5.6193,5.5798,5.5044,5.4964,5.4783,5.4522,5.4415,5.4308,5.4168,5.4082,5.3915,5.3694,5.33,4.8823,4.0926,4.0926,3.5768,2.6807,2.6807,2.6807,2.6807,2.6807,2.6807,2.6807,2.6807,2.6807,2.6807,2.6807,2.6807,2.6807,0.0,0.0,0.0,0.0,0.0,0.0,0.0,0.0,0.0,0.0,0.0,0.0,0.0,0.0,0.0,0.0,0.0,0.0,0.0,0.0,0.0,0.7275,0.8166,0.8689,0.8834,0.8689,0.8637,0.0,0.0,0.0,0.0,0.0,0.0,0.0,0.0,0.0,1.1686,0.9817,0.8998,0.8913,0.8824,0.8723,0.0,0.0,0.0,0.0,0.0,0.0,0.8248,0.8308,0.8403,0.0,0.0,0.0,0.8523,0.8747,0.9748,1.14,1.4156,1.8963,2.3741,2.6075,2.716,2.7689,2.7838,2.7979,2.8169,2.8538,3.202,3.5103,3.5394,3.9491,4.2838,4.2838,4.3376,4.5245,4.9364,5.0534,5.2496,5.6638,5.7481,5.7689,5.7609,5.7133,5.6679,5.6332,5.5798,5.537,5.5023,5.4729,5.4549,5.4501,5.4055,5.4002,5.4442,5.3995,5.3721,5.3694,5.3113,5.0248,4.5416,4.5416,3.8618,2.6807,2.6807,2.6807,2.6807,2.6807,2.6807,2.6807,2.6807,2.6807,2.6807,2.6807,2.6807,2.6807,0.0,0.0,0.0,0.0,0.0,0.0,0.0,0.0,0.0,0.0,0.0,0.0,0.0,0.0,0.0,0.0,0.0,0.0,0.0,0.2443,0.0,0.0,0.797,0.8243,0.8335,0.8324,0.8357,0.0,0.0,0.0,0.0,1.2505,1.3583,0.0,0.0,0.0,0.0,0.0,0.0,0.0,0.0,0.0,0.0,0.0,0.0,0.0,0.0,0.0,0.0,0.0,0.8384,0.8501,0.8501,0.0,0.0,0.0,0.9052,1.0773,1.5273,2.0072,2.4302,2.64,2.7166,2.7505,2.7816,2.7998,2.8209,2.853,3.4685,3.9265,3.684,4.2635,4.7795,4.7795,5.0049,5.2537,5.4644,5.4928,5.5645,5.7579,5.7689,5.74,5.6914,5.662,5.6198,5.5605,5.5311,5.505,5.4735,5.4575,5.4442,5.4275,5.4055,5.3888,5.3768,5.3547,5.3354,5.3186,5.2919,5.0521,4.63,4.63,4.0502,3.0571,3.3024,3.2696,3.0447,3.0447,3.0447,3.02,2.7752,2.6807,2.6807,2.6807,2.6807,2.6807,0.0,0.0,0.0,0.0,0.0,0.0,0.0,0.0,0.0,0.0,0.0,0.0,0.0,0.0,0.0,0.0,0.0,0.0,0.0,0.2176,0.0,0.0,0.0,0.7764,0.7866,0.7987,0.0,0.0,0.0,0.0,1.0884,1.2951,1.4579,0.0,1.4832,0.0,0.0,0.0,0.0,0.0,0.0,0.0,0.0,0.0,0.0,0.0,0.0,0.0,0.0,0.0,0.0,0.8455,0.8482,0.8474,0.0,0.0,0.0,1.0529,1.5453,1.9288,2.254,2.5251,2.6149,2.6657,2.763,2.802,2.8237,2.8498,3.5355,4.0654,3.8537,4.6141,5.2732,5.2732,5.574,5.8053,5.7978,5.7978,5.7871,5.7555,5.7368,5.7,5.6359,5.6107,5.5706,5.5064,5.491,5.4756,5.4522,5.4501,5.4382,5.4088,5.4035,5.3768,5.3334,5.3253,5.3093,5.2899,5.2846,5.1102,4.7963,4.7963,4.3788,3.6727,3.8862,3.7319,3.3294,3.3294,3.2655,3.1321,2.8069,2.6807,2.6807,2.6807,2.6807,2.6807,0.0,0.0,0.0,0.0,0.0,0.0,0.0,0.0,0.0,0.0,0.0,0.0,0.0,0.0,0.0,0.0,0.0,0.0,0.0,0.1609,0.4046,0.0,0.0,0.0,0.0,0.0,0.0,0.0,0.0,0.0,1.2574,1.2971,1.4436,1.6689,1.5748,1.4837,1.3868,0.0,0.0,0.0,0.0,0.0,0.0,0.0,0.0,0.0,0.0,0.0,0.0,0.0,0.0,0.0,0.0,0.8411,0.8305,0.0,0.0,0.0,1.2948,1.517,1.7927,2.1928,2.3596,2.4878,2.7188,2.8055,2.8389,2.8411,3.2655,3.7719,4.2126,5.1037,5.771,5.771,5.7928,5.8,5.7667,5.7641,5.7507,5.7262,5.6722,5.6353,5.63,5.5551,5.5064,5.499,5.4729,5.4522,5.4501,5.4501,5.4382,5.4088,5.3862,5.3715,5.3688,5.336,5.318,5.3173,5.2933,5.2693,5.2456,5.2456,4.9965,4.5396,4.1513,3.7319,3.3294,3.3294,3.088,2.7125,2.689,2.6807,2.6807,2.6807,2.6807,2.6807,0.0,0.0,0.0,0.0,0.0,0.0,0.0,0.0,0.0,0.0,0.0,0.0,0.0,0.0,0.0,0.0,0.0,0.0,0.0,0.2093,0.4352,0.6634,0.0,0.0,0.0,0.0,0.0,0.0,0.0,0.9286,1.0927,1.2229,1.3415,1.4447,1.48,1.4859,1.4564,1.2705,0.0,0.0,0.0,0.0,0.0,0.0,0.0,0.0,0.0,0.0,0.0,0.0,0.0,0.0,0.0,0.0,0.0,0.0,0.9644,1.1318,1.2745,1.4636,1.6845,1.9423,2.1645,2.3503,2.4634,2.6399,2.7805,2.7805,3.4368,4.0671,4.2559,4.8637,5.4402,5.7597,5.8107,5.7978,5.7662,5.7454,5.7176,5.6674,5.6273,5.5893,5.5498,5.5177,5.489,5.4682,5.4555,5.4501,5.4501,5.4335,5.4135,5.3862,5.3547,5.33,5.3113,5.2986,5.2953,5.2953,5.2866,5.2792,5.2792,5.2792,5.1955,5.0382,4.8825,4.5676,4.1411,3.8638,3.6563,3.4583,2.8978,2.6807,2.6807,2.6807,2.6807,2.6807,0.0,0.0,0.0,0.0,0.0,0.0,0.0,0.0,0.0,0.0,0.0,0.0,0.0,0.0,0.0,0.0,0.0,0.0,0.0,0.2384,0.4667,0.6618,0.7111,0.0,0.0,0.0,0.0,0.0,0.0,0.0,0.0,0.0,1.2135,1.2547,1.3779,0.0,0.0,0.0,0.0,1.4084,0.0,0.0,1.4952,0.0,0.0,0.0,0.0,0.0,0.0,0.0,0.0,0.0,0.0,0.0,0.0,0.0,0.0,0.0,1.1422,1.2756,1.4434,1.6777,1.8731,2.0647,2.2753,2.4744,2.6377,2.7178,3.3967,4.0371,4.2338,4.6844,5.1948,5.7107,5.7871,5.7684,5.7368,5.7074,5.6674,5.6065,5.5765,5.5445,5.5044,5.4803,5.4596,5.4382,5.4275,5.4228,5.4228,5.4062,5.3841,5.3561,5.3247,5.2979,5.2792,5.2792,5.2792,5.2792,5.2792,5.2792,5.2792,5.2792,5.2792,5.2792,5.2792,5.0322,4.596,4.1613,3.8942,3.6909,2.9623,2.6807,2.6807,2.6807,2.6807,2.6807,0.0,0.0,0.0,0.0,0.0,0.0,0.0,0.0,0.0,0.0,0.0,0.0,0.0,0.0,0.0,0.0,0.0,0.004,0.0138,0.2435,0.4897,0.7369,0.7184,0.0,0.0,0.0,0.0,0.0,0.0,0.0,0.0,0.0,1.0704,0.0,1.2856,1.4865,1.6941,0.0,1.4366,1.7163,0.0,1.5386,1.6446,0.0,0.0,0.0,1.6738,1.6146,0.0,0.0,0.0,0.0,0.0,0.0,0.0,0.0,0.0,0.0,0.0,0.0,0.0,1.3894,1.4799,1.6266,2.1656,2.3164,2.4117,2.6616,3.1194,3.6364,4.1698,4.6445,5.1311,5.6517,5.7256,5.7074,5.6738,5.6465,5.6065,5.5456,5.5157,5.497,5.4964,5.4456,5.4088,5.4088,5.3862,5.3694,5.3694,5.3694,5.3514,5.318,5.2953,5.2792,5.2792,5.2792,5.2792,5.2792,5.2792,5.2792,5.2792,5.2792,5.2792,5.2792,5.2792,5.0382,4.614,4.1653,3.7316,3.3045,2.8544,2.6807,2.6807,2.6807,2.6807,2.6807,0.0,0.0,0.0,0.0,0.0,0.0,0.0,0.0,0.0,0.0,0.0,0.0,0.0,0.0,0.0,0.0,0.0,0.1028,0.3452,0.3735,0.4732,0.6831,0.7293,0.7615,0.0,0.0,0.0,0.0,0.0,0.0,0.0,0.0,0.0,0.0,1.1321,1.2984,1.5691,1.4918,0.0,0.0,1.605,1.6483,0.0,0.0,0.0,0.0,0.0,1.7867,1.7106,0.0,1.5329,1.3761,0.0,0.0,0.0,0.0,0.0,0.0,0.8975,0.0,0.0,0.0,0.0,0.0,1.7369,1.9636,2.2808,2.8748,3.4245,3.8744,4.1243,4.8503,5.3557,5.1913,5.4798,5.7016,5.6487,5.6187,5.5786,5.5177,5.4836,5.4549,5.4376,5.4195,5.4002,5.3828,5.3721,5.3694,5.3694,5.3481,5.32,5.2933,5.2846,5.2792,5.2792,5.2792,5.2792,5.2792,5.2792,5.2792,5.2792,5.2792,5.2792,5.2792,5.2792,5.212,5.0402,4.2904,3.9084,3.7256,2.9726,2.6807,2.6807,2.6807,2.6807,2.6807,0.0,0.0,0.0,0.0,0.0,0.0,0.0,0.0,0.0,0.0,0.0,0.0,0.0,0.0,0.0,0.0,0.1381,0.3084,0.5039,0.5096,0.5584,0.6778,0.7413,0.7817,0.0,0.0,0.0,0.0,0.0,0.0,0.0,0.0,0.0,0.0,0.0,0.0,0.0,0.0,0.0,0.0,1.665,0.0,0.0,1.9191,1.9795,0.0,0.0,0.0,1.9377,1.8905,1.7316,0.0,0.0,0.0,0.0,0.0,0.0,0.0,0.0,0.0,0.0,0.9919,0.0,0.0,1.5707,1.7667,2.0613,2.6953,3.2563,3.6693,3.7905,4.4425,4.887,4.6616,4.8783,5.199,5.5449,5.5685,5.5305,5.4696,5.4442,5.4228,5.3968,5.3821,5.3654,5.3487,5.338,5.332,5.332,5.3147,5.296,5.2792,5.2792,5.2792,5.2792,5.2792,5.2792,5.2792,5.2792,5.2792,5.2792,5.2792,5.2792,5.2792,5.2792,5.2712,5.1935,4.3272,3.9753,3.8942,3.02,2.6807,2.6807,2.6807,2.6807,2.6807,0.0,0.0,0.0,0.0,0.0,0.0,0.0,0.0,0.0,0.0,0.0,0.0,0.0,0.0,0.0,0.0,0.366,0.5692,0.5523,0.6414,0.6968,0.7019,0.7541,0.7915,0.8108,0.0,0.0,0.0,0.0,0.0,0.0,0.0,0.0,0.0,0.0,0.0,0.0,0.0,0.0,1.7041,1.7255,1.8041,0.0,0.0,2.1218,2.1337,2.151,2.1798,2.194,2.1009,1.9032,0.0,0.0,0.0,0.0,0.0,1.0015,0.0,0.0,0.0,0.0,0.0,0.9938,0.0,1.5236,1.6349,1.7929,2.3221,2.8127,3.1832,3.3031,3.723,4.0504,4.0458,4.1092,4.462,5.3395,5.3987,5.3661,5.4067,5.3662,5.3429,5.3634,5.338,5.318,5.3153,5.2933,5.2792,5.2792,5.2792,5.2792,5.2792,5.2766,5.2766,5.2792,5.2766,5.2766,5.2792,5.2792,5.2792,5.2792,5.2792,5.2792,5.2792,5.2792,5.2363,5.1009,4.2935,3.9672,3.8882,3.017,2.678,2.6807,2.6807,2.6807,2.6807,0.0,0.0,0.0,0.0,0.0,0.118,0.0,0.0,0.0,0.0,0.0,0.0,0.0,0.0,0.0,0.0,0.5831,0.7466,0.6277,0.7228,0.7649,0.7181,0.7724,0.8081,0.8177,0.8202,0.0,0.0,0.0,0.0,0.0,0.0,0.0,0.0,0.0,0.0,0.0,0.0,0.0,1.7229,1.7952,0.0,2.0824,2.1581,2.1974,2.215,2.2539,2.2869,2.2986,2.2214,2.0436,1.8135,0.0,0.0,0.0,1.0579,0.0,0.0,0.0,0.0,0.0,0.0,0.9872,0.0,1.2036,1.2942,1.5512,2.2866,2.5756,2.7646,2.9903,3.4612,3.6829,3.2738,3.6615,4.2446,4.893,4.6588,4.6667,5.3309,5.0925,4.9926,5.302,5.3253,5.3093,5.2879,5.2846,5.2792,5.2792,5.2792,5.2792,5.2792,5.2539,5.2532,5.2792,5.2539,5.2539,5.2792,5.2792,5.2792,5.2792,5.2792,5.2792,5.2792,5.2792,5.0779,4.7048,4.1779,3.951,3.8544,2.9981,2.6698,2.6807,2.6807,2.6807,2.6807,0.0,0.0,0.0,0.286,0.4122,0.5022,0.0,0.0,0.0,0.0,0.0,0.0,0.0,0.0,0.0,0.0,0.0,0.0,0.0,0.0,0.7564,0.7351,0.7827,0.8182,0.834,0.8316,0.8574,0.0,0.0,0.0,0.0,0.0,0.0,0.0,0.0,0.0,0.0,0.0,1.5852,1.7351,1.9061,0.0,2.157,2.2679,2.3135,2.3275,2.3804,2.4034,2.3907,2.2715,2.1563,0.0,0.0,1.6705,1.5753,0.0,1.2308,1.2126,0.0,0.0,0.0,0.9999,0.9921,0.0,0.0,1.2185,1.4066,2.0157,2.1553,2.2427,2.4897,2.7509,2.8587,2.6494,2.9477,3.3977,3.9449,4.2681,4.6844,5.3153,5.1766,5.1006,5.2821,5.2986,5.2953,5.2812,5.2792,5.2739,5.2559,5.2559,5.2479,5.2365,5.2185,5.2165,5.2365,5.2165,5.2245,5.2559,5.2559,5.2559,5.2559,5.2712,5.2692,5.2559,5.2559,5.0036,4.5603,4.1166,3.8007,3.5332,2.9046,2.6651,2.6719,2.6787,2.6807,2.6807,0.0,0.0,0.0,0.0,0.8014,0.8649,0.5858,0.7067,0.0,0.0,0.0,0.0,0.0,0.0,0.0,0.0,0.0,0.0,0.0,0.0,0.0,0.7615,0.7928,0.8213,0.846,0.8619,0.8989,0.9568,0.0,0.0,0.0,0.0,0.0,0.0,0.0,0.0,0.0,0.0,0.0,1.7894,0.0,2.1272,2.1549,2.3207,2.3863,2.3967,2.4813,2.5016,2.471,2.314,2.2593,2.2166,1.9812,1.902,0.0,0.0,0.0,0.0,0.0,0.0,0.0,1.0554,1.0448,1.0678,0.0,0.0,0.0,1.6662,1.7253,1.7819,2.0013,2.0388,2.0594,2.1386,2.271,2.5329,3.02,3.8398,4.5644,5.0287,4.9897,4.9482,5.0112,5.0688,5.1527,5.2726,5.2445,5.2238,5.2306,5.2252,5.2119,5.1891,5.1857,5.1857,5.1891,5.1857,5.1951,5.2226,5.2226,5.2226,5.2226,5.2498,5.2532,5.2306,5.2306,4.9309,4.4171,4.0661,3.6127,3.1107,2.7866,2.661,2.6651,2.6773,2.6807,2.6807,0.5226,0.0,0.0,0.0,0.7109,0.8843,0.7876,0.8436,0.0,0.0,0.0,0.0,0.0,0.0,0.0,0.0,0.0,0.0,0.7586,0.0,0.0,0.8046,0.8075,0.8165,0.8315,0.9533,0.9697,0.8737,0.0,0.0,0.0,0.0,0.0,0.0,1.3416,0.0,0.0,0.0,1.7922,0.0,2.1285,2.1218,0.0,2.2212,2.2958,2.3175,2.4851,2.5429,2.5259,0.0,2.3651,2.3059,0.0,2.0068,2.0251,1.6982,0.0,0.0,0.0,1.3406,1.3209,1.1109,1.2096,1.2918,1.0368,0.0,1.2617,1.3531,0.0,1.5918,1.7378,0.0,0.0,1.7663,1.9646,2.2606,2.6647,2.9601,3.3663,3.9856,3.7242,3.6442,4.0288,4.3082,4.6912,5.2389,5.107,5.0723,5.2226,5.2058,5.1944,5.1891,5.167,5.167,5.1891,5.167,5.167,5.1964,5.1964,5.1964,5.1964,5.1971,5.2131,5.2306,5.2306,4.7727,4.0251,3.975,3.4628,2.7072,2.6734,2.6658,2.678,2.6786,2.6807,2.6807,0.0,0.0,0.0,0.0,0.7428,0.8381,0.8132,0.8771,0.0,0.0,0.0,0.0,0.0,0.0,0.0,0.0,0.0,1.487,0.0,0.0,0.0,0.0,0.0,0.0,1.0217,1.0722,1.0706,1.017,1.0307,0.0,0.0,0.0,0.0,0.0,1.4531,0.0,1.6824,0.0,1.8574,1.943,2.0878,2.0971,2.0539,2.318,2.4473,2.4968,2.5627,2.5918,2.5816,2.4473,2.4107,0.0,0.0,0.0,0.0,1.88,0.0,1.6897,1.5007,1.4941,1.5017,1.3339,1.3847,1.4193,1.2127,1.2119,1.2845,1.3977,0.0,0.0,0.0,0.0,0.0,0.0,1.8546,2.0355,2.2066,2.3559,2.7612,3.6116,3.5293,3.5038,3.7564,3.9361,4.1506,4.4285,4.36,4.4406,4.7595,4.7936,4.9058,5.1306,5.1257,5.1257,5.1364,5.1257,5.1356,5.167,5.167,5.167,5.167,5.1837,5.1883,5.1682,4.9348,4.4876,3.9108,3.6695,3.2076,2.6529,2.6665,2.6698,2.6705,2.6766,2.6807,2.6807,0.0,0.0,0.0,0.0,0.7761,0.8016,0.8308,0.0,0.0,0.0,0.0,0.0,1.1118,1.1288,0.0,0.0,0.0,1.9328,0.0,0.0,1.0251,0.0,0.0,0.0,0.0,0.0,1.1035,1.1881,1.1349,1.2128,0.0,0.0,0.0,0.0,0.0,1.6862,1.8042,0.0,1.9727,2.0239,2.1418,2.192,2.215,2.4102,2.5464,2.6312,2.6224,2.6237,2.6122,2.4793,2.4522,2.456,2.342,2.29,2.2423,2.0803,1.9648,1.8514,1.6859,1.6798,1.684,1.5256,1.5326,1.5339,1.3661,1.3457,1.3926,1.4934,1.5082,0.0,0.0,0.0,1.6508,1.693,0.0,1.8585,1.8517,1.9332,2.2798,3.062,3.1513,3.2355,3.4551,3.4993,3.593,3.7917,3.7487,3.8745,4.2462,4.4054,4.6192,4.913,5.0382,5.1017,5.1017,5.1017,5.1123,5.1356,5.1356,5.1402,5.1502,5.1696,5.1117,4.9853,4.8072,4.3541,3.7328,3.554,3.1563,2.661,2.6753,2.6725,2.6665,2.6766,2.6807,2.6807,0.0,0.7632,0.0,0.0,0.0,0.0,0.0,0.0,0.0,0.0,0.0,0.0,0.0,0.0,0.0,0.0,0.0,1.9181,1.7872,0.0,1.4443,0.0,0.0,0.0,0.0,0.0,1.0211,1.3332,1.3693,1.431,0.0,0.0,0.0,0.0,1.6538,1.7718,1.9047,2.0512,2.1865,2.314,2.3894,2.4739,2.5429,2.4357,2.484,2.6122,2.6325,2.6271,2.598,2.5227,2.5045,2.4997,2.3985,2.3746,2.37,2.2919,2.1713,2.045,1.9675,1.9482,1.886,1.6226,1.6417,1.6529,1.3824,1.4804,1.6131,1.5597,1.69,1.8082,1.7894,0.0,0.0,0.0,1.7365,0.0,0.0,1.6972,1.8046,2.0506,2.1699,2.4171,2.888,2.8432,3.0377,3.6491,3.5361,3.5483,3.7891,4.1762,4.4186,4.4695,4.8792,5.1017,5.1017,5.1017,5.1017,5.1036,5.1036,5.1188,5.1502,5.1502,4.9495,4.6218,5.0302,4.4928,3.363,3.7851,3.4458,2.661,2.6753,2.6807,2.6786,2.6807,2.6807,2.6807,0.0,0.0,0.0,0.0,0.0,0.0,0.0,0.9417,0.0,0.0,0.0,0.0,0.0,0.0,1.6201,0.0,0.0,2.133,1.9742,1.7975,0.0,0.0,0.0,2.173,0.0,0.0,0.0,0.0,0.0,1.6111,1.5476,1.5532,0.0,0.0,1.7175,1.8491,2.0088,2.1611,2.2751,2.3592,2.4441,2.5146,2.5667,2.5444,2.5675,2.6108,2.6183,2.6237,2.6237,2.5871,2.5498,2.514,2.4807,2.417,2.3492,2.3063,2.2474,2.184,2.1271,2.1709,2.1714,1.9203,1.9008,1.8764,1.6282,1.6599,1.7328,1.7132,1.7806,1.8449,1.8492,0.0,0.0,0.0,0.0,1.7053,0.0,1.6104,1.6498,1.765,1.9169,2.0725,2.2275,2.3169,2.4579,2.6795,2.6797,2.8424,3.2428,3.7069,4.1013,4.4159,4.8471,5.083,5.1017,5.1017,5.1017,5.1017,5.1223,5.1257,5.1169,5.157,5.0849,4.9195,4.8378,4.3803,3.6844,3.5907,3.2028,2.6725,2.678,2.6807,2.6807,2.6807,2.6807,2.6807,0.9067,0.0,0.0,0.0,0.0,0.0,0.0,0.0,0.0,0.0,1.4116,0.0,1.679,0.0,1.9756,0.0,2.3629,2.2926,2.1542,1.9439,0.0,2.5148,3.253,0.0,0.0,0.0,0.0,0.0,0.0,1.8904,1.6826,1.6309,1.621,1.6552,1.7568,1.8952,2.0616,2.2371,2.3623,2.4479,2.5192,2.564,2.5871,2.6041,2.6081,2.6041,2.6075,2.6237,2.6366,2.6163,2.5851,2.5492,2.5403,2.4739,2.3926,2.3646,2.3406,2.3121,2.2727,2.3076,2.3185,2.1475,2.1052,2.0591,1.8778,1.894,1.94,1.9183,1.9276,1.9549,2.0068,1.8994,0.0,0.0,0.0,1.6781,0.0,1.5681,1.582,1.6146,1.7595,1.8667,1.8967,1.9942,2.0756,2.1218,2.1587,2.3357,2.6998,3.3319,3.8333,4.1684,4.7533,5.0742,5.1017,5.1017,5.1017,5.1017,5.1223,5.1257,5.1177,5.157,5.0738,4.897,4.8367,4.3803,3.6703,3.5927,3.2143,2.6807,2.6807,2.6807,2.6807,2.6807,2.6807,2.6807,0.0,0.0,0.0,0.0,0.896,0.0,0.0,0.0,1.0979,0.0,1.9946,2.5943,2.594,2.5938,2.5695,2.5107,2.4494,0.0,2.3327,2.2168,0.0,0.0,4.1966,4.246,4.2281,0.0,0.0,0.0,0.0,0.0,1.9265,1.6981,1.6138,1.6552,1.7758,1.9139,2.0657,2.2805,2.4492,2.5776,2.6217,2.6278,2.6095,2.6088,2.6,2.5925,2.6041,2.6224,2.6352,2.6163,2.6095,2.6041,2.5796,2.5396,2.497,2.4702,2.4487,2.43,2.4012,2.3736,2.3393,2.2954,2.251,2.1937,2.1057,2.1638,2.2187,2.1605,2.1283,2.1408,2.2378,2.0517,1.8913,0.0,0.0,1.6509,1.5369,1.5597,1.5802,1.5633,1.6647,1.7744,1.8777,1.8639,1.8909,1.9929,1.9917,2.0512,2.1991,3.0555,3.5989,3.7212,4.5529,5.0114,5.0378,5.0596,5.0596,5.0378,5.0825,5.1081,5.1167,5.1405,4.9264,4.5619,5.0036,4.4706,3.3227,3.7648,3.4481,2.6807,2.6807,2.6807,2.6807,2.6807,2.6807,2.6807,1.0175,0.9667,0.9392,0.0,1.0209,1.1258,0.0,0.0,0.0,0.0,2.4686,2.6571,2.658,2.6559,2.6336,2.5712,2.5115,0.0,0.0,0.0,0.0,4.669,4.7325,4.6234,4.3614,3.7567,0.0,2.539,0.0,0.0,2.2376,1.9204,1.7276,1.6473,1.7839,1.929,2.0838,2.285,2.4718,2.638,2.6509,2.6312,2.5946,2.6061,2.5946,2.5762,2.5898,2.5973,2.604,2.6075,2.5973,2.5817,2.583,2.5627,2.5307,2.4989,2.5043,2.5098,2.4682,2.4758,2.4745,2.3836,2.3379,2.2867,2.1845,2.2316,2.2909,2.2638,2.2688,2.2607,2.2038,2.0666,1.9199,1.7921,1.6646,1.571,1.5398,1.5369,1.553,1.5913,1.6416,1.6809,1.6985,1.7826,1.8408,1.8599,1.9183,2.009,2.135,2.707,3.0899,3.2203,3.8094,4.1381,4.1719,4.4918,4.4898,4.1778,4.8283,4.9646,4.6556,5.017,4.9278,4.4984,4.6711,4.1849,3.2794,3.4341,3.1732,2.6807,2.6807,2.6807,2.6807,2.6807,2.6807,2.6807,1.1809,0.0,0.0,1.0614,0.0,0.0,1.4901,1.4258,0.0,2.396,2.603,0.0,2.7167,2.6968,2.6665,2.6323,2.5748,0.0,2.539,0.0,0.0,5.0669,5.0812,4.6212,3.6285,4.0997,0.0,3.4563,0.0,0.0,2.496,2.1679,1.885,1.657,1.7648,1.8873,2.0363,2.304,2.5008,2.6312,2.6447,2.6352,0.0,2.6088,2.6,2.5884,2.5878,2.5993,2.6115,2.6088,2.6095,2.6081,2.6,2.5844,2.5619,2.5369,2.5396,2.5449,2.5185,2.5313,2.5375,2.49,2.4704,2.4419,2.3651,2.3944,2.4292,2.4021,2.3664,2.3338,2.3171,2.1408,1.936,1.7433,1.6265,1.5573,1.5413,1.5749,1.6125,1.6524,1.6777,1.6855,1.6782,1.7592,1.8002,1.7731,1.8654,1.9468,1.9995,2.5287,2.8829,2.9964,3.6985,4.0905,4.1192,4.3777,4.3777,4.1254,4.4327,4.4467,4.2072,4.4802,4.4595,4.211,4.2565,3.8948,3.2747,3.3071,3.0678,2.6807,2.6807,2.6807,2.6807,2.6807,2.6807,2.6807,0.0,0.0,0.0,0.0,0.0,0.0,0.0,1.7878,0.0,2.3106,0.0,2.6743,2.7501,2.7151,2.7303,2.8397,0.0,2.6982,2.9267,4.4098,5.2799,5.2798,5.2793,4.4392,2.6408,4.0434,0.0,0.0,0.0,0.0,2.6642,2.3273,1.9908,1.6697,1.727,1.8348,1.9966,2.3334,2.5198,2.5939,2.6278,2.6393,2.6393,2.6224,2.6122,2.6075,2.5979,2.6135,2.6366,2.6196,2.6332,2.6529,2.6257,2.6074,2.5939,2.5803,2.5687,2.5612,2.5538,2.5558,2.5619,2.5817,2.6,2.6041,2.566,2.5823,2.5878,2.5444,2.449,2.3948,2.4671,2.2167,1.9359,1.7473,1.6576,1.6033,1.5791,1.6564,1.7343,1.791,1.8161,0.0,1.8086,1.7872,1.7582,1.7202,1.8152,1.8721,1.8665,2.4119,2.7663,2.8635,3.7215,4.1942,4.2222,4.3094,4.3097,4.223,3.9711,3.8205,3.7695,3.8284,3.8286,3.7874,3.8012,3.5774,3.2052,3.2187,3.0109,2.6807,2.6807,2.6807,2.6807,2.6807,2.6807,2.6807,0.0,0.0,0.0,0.0,0.0,1.607,1.8048,2.0322,2.2122,2.2936,2.3931,2.5178,2.678,2.7067,2.995,3.6904,3.0842,0.0,0.0,0.0,0.0,5.2817,5.279,4.4598,2.7026,4.2244,4.8178,0.0,0.0,0.0,2.5634,2.0379,1.7447,1.6546,1.6936,1.8784,2.1743,2.3614,2.4964,2.5939,2.6278,2.6468,2.6542,2.6393,2.6237,2.6088,2.6081,2.6196,2.638,2.6373,2.638,2.6434,2.6509,2.642,2.6271,2.6101,2.6129,2.6155,2.5769,2.583,2.5946,2.5776,2.604,2.6298,2.6041,2.6325,2.6549,2.6257,2.5803,2.5111,2.3963,2.1356,1.9074,1.8205,1.7636,1.7379,1.7595,1.7786,1.8943,2.1735,2.2617,2.265,2.1786,1.8789,1.6945,1.7025,1.7337,1.8084,1.943,2.1155,2.277,2.4267,2.7065,2.8754,2.9189,3.2822,3.2848,2.9424,3.5569,3.6675,3.3424,3.7026,3.6766,3.3503,3.3638,3.1358,2.7542,2.7676,2.7365,2.6807,2.6807,2.6807,2.6807,2.6807,2.6807,2.6807,0.0,0.0,0.0,0.0,0.0,1.9432,2.1368,2.377,2.5317,2.5235,2.4576,2.4587,2.5879,3.0912,3.5721,3.9473,4.0097,4.3845,5.2253,5.2781,5.3054,5.3666,5.3127,4.885,4.0467,4.7323,4.8999,4.4884,0.0,0.0,0.0,1.8473,1.576,1.6084,1.7109,1.9044,2.1621,2.3031,2.4333,2.5491,2.6135,2.6475,2.6597,2.6529,2.6427,2.6346,2.6278,2.642,2.6597,2.6454,2.6488,2.661,2.6597,2.6563,2.6475,2.6291,2.6251,2.6196,2.5979,2.5946,2.6006,2.604,2.6217,2.638,2.6359,2.659,2.6698,2.6332,2.6061,2.541,2.3754,2.1638,2.001,1.9659,1.8815,1.8396,1.8858,2.0724,2.2508,2.3771,2.4263,2.405,2.2867,1.9178,1.6945,1.7188,1.7622,1.8233,1.902,2.0062,2.1242,2.2584,2.6278,2.8467,2.8909,3.1479,3.159,2.9292,3.1287,3.1078,2.9025,3.1279,3.114,2.9128,2.931,2.8288,2.6502,2.6651,2.6725,2.6807,2.6807,2.6807,2.6807,2.6807,2.6807,2.6807,0.0,1.8122,0.0,0.0,2.0979,2.2887,2.4389,2.6413,2.7713,2.7493,2.5987,2.5161,2.5752,3.3907,3.953,3.9911,4.6132,5.081,5.268,5.3039,5.3547,5.4458,5.3634,5.304,5.2812,5.1876,4.9654,0.0,0.0,2.4488,2.3958,1.7392,1.4871,1.5969,1.7555,1.9278,2.1082,2.251,2.3877,2.5173,2.6081,2.7075,2.8022,2.8022,2.8573,2.9225,2.8189,2.7971,2.7977,2.6829,2.659,2.678,2.6678,2.6651,2.661,2.6475,2.6332,2.6203,2.6163,2.6061,2.602,2.6312,2.64,2.6441,2.6577,2.6698,2.6698,2.6285,2.6006,2.5616,2.4969,2.3025,2.1716,2.2314,2.0752,1.962,2.0095,2.2876,2.5147,2.5876,2.5502,2.4902,2.4207,2.0717,1.8197,1.75,1.8029,1.8463,1.8679,1.9952,2.1076,2.2028,2.6961,2.9825,3.0274,3.1138,3.1378,3.0937,2.7864,2.6257,2.6027,2.6312,2.6352,2.6163,2.6366,2.6509,2.6617,2.6685,2.6753,2.6807,2.6807,2.6807,2.6807,2.6807,2.6807,2.6807,0.0,0.0,2.1274,2.1686,2.2804,2.3876,2.4593,2.661,2.7963,2.7704,2.7686,2.7674,2.7495,3.1968,3.6467,4.0129,4.077,4.4369,5.2276,5.3774,5.4372,5.4506,5.4398,5.3861,5.2812,5.2678,5.0901,0.0,0.0,2.576,2.3966,1.7383,1.522,1.6918,1.818,1.9579,2.1109,2.2759,2.4226,2.5517,2.6271,2.9022,3.2684,3.2684,3.5053,3.7861,3.3879,3.2496,3.1898,2.7924,2.6678,2.6807,2.678,2.678,2.6753,2.661,2.6577,2.6529,2.6393,2.6224,2.6122,2.6352,2.64,2.6441,2.6577,2.6698,2.6753,2.6597,2.6013,2.6361,2.9073,2.6057,2.4171,2.7203,2.4271,2.1641,2.1682,2.2011,2.4228,2.9518,2.7939,2.6888,2.8049,2.5231,2.1739,1.7868,1.7812,1.8356,1.9276,2.0469,2.1394,2.1899,2.3754,2.5051,2.5624,2.6249,2.6699,2.6935,2.657,2.6386,2.6373,2.6502,2.6509,2.6386,2.6522,2.659,2.659,2.6475,2.657,2.6807,2.6807,2.6807,2.6807,2.6807,2.6807,2.6807,2.1522,2.1886,2.2479,2.3646,2.4219,2.4935,2.6189,2.9742,3.2285,3.2281,3.3121,3.4416,3.6205,4.0202,4.3259,4.4523,4.6905,4.9752,5.3115,5.3429,5.3784,5.4459,5.4507,5.3982,5.2814,5.2814,5.1406,0.0,0.0,3.1882,2.5631,1.8267,1.6287,1.8875,1.9195,2.0248,2.2035,2.6057,2.8434,2.9805,3.3105,3.5527,3.7195,3.7195,3.8234,3.949,3.7752,3.5437,3.2948,3.1226,2.8919,2.6807,2.6807,2.6807,2.678,2.6725,2.6665,2.659,2.6529,2.6393,2.6325,2.6475,2.6522,2.6563,2.6705,2.6773,2.6725,2.6529,2.5965,2.5815,2.687,2.5168,2.4065,2.5588,2.399,2.2656,2.2945,2.448,2.6144,2.7703,2.6487,2.536,2.496,2.1966,1.9474,1.8127,1.7948,1.8085,1.8478,1.9535,2.0456,2.1223,2.2669,2.3885,2.488,2.5769,2.6278,2.64,2.6556,2.6556,2.64,2.6624,2.6651,2.6502,2.6359,2.6359,2.6475,2.6502,2.657,2.6705,2.6766,2.6807,2.6807,2.6807,2.6807,2.6807,2.4816,2.4272,2.4343,2.7025,2.6548,2.6676,2.9331,3.2833,3.6221,3.9174,4.0316,4.1165,4.1996,4.5773,4.8107,4.7713,5.1628,5.4098,5.394,5.386,5.4021,5.4479,5.4365,5.3801,5.2825,5.2783,5.1814,4.9801,4.4588,3.6628,2.6162,1.9222,1.7496,2.0207,1.9943,2.1794,2.5395,2.9628,3.253,3.4587,3.8208,4.0499,4.1714,4.1714,4.2522,4.3446,4.2179,3.8902,3.5012,3.3724,3.0406,2.6807,2.6807,2.6807,2.6807,2.6807,2.6719,2.661,2.6651,2.6529,2.6434,2.661,2.6624,2.6645,2.6766,2.6807,2.7084,2.8031,2.6827,2.6259,2.837,2.617,2.4434,2.568,2.446,2.3375,2.3524,2.6087,2.7491,2.6323,2.5531,2.4532,2.312,1.9881,1.7975,1.8219,1.8234,1.8261,1.8329,1.9278,2.0159,2.0895,2.2452,2.3782,2.484,2.5864,2.6427,2.6447,2.6705,2.6698,2.6529,2.6631,2.6624,2.6529,2.6176,2.6183,2.64,2.6509,2.6556,2.661,2.6753,2.6787,2.6746,2.678,2.6787,2.6753,3.0177,2.8202,2.7293,3.2479,3.0227,2.9343,3.4257,3.5164,3.8742,4.8373,4.9117,4.6979,4.2326,4.5579,4.8144,4.8269,5.2097,5.4489,5.4476,5.5617,5.571,5.4546,5.4009,5.3436,5.2804,5.2807,5.22,5.0974,4.7387,3.8528,2.4808,2.0071,1.8808,2.0467,2.0208,2.4458,3.1844,3.2924,3.5644,3.9246,3.9652,4.2379,4.622,4.622,4.8885,5.2073,4.7763,4.3408,3.9064,3.475,3.0406,2.6807,2.6807,2.6807,2.6807,2.6807,2.6719,2.6624,2.6766,2.659,2.6447,2.6725,2.6705,2.6645,2.6766,2.6807,2.7895,3.1726,2.8993,2.8303,3.6193,3.0586,2.5954,2.9545,2.672,2.3867,2.3289,2.5846,2.7503,2.6705,2.6066,2.5348,2.4472,2.1107,1.8736,1.8138,1.8654,1.9101,1.937,2.027,2.0908,2.119,2.2958,2.4243,2.4983,2.5918,2.6468,2.6597,2.6725,2.6807,2.678,2.6529,2.64,2.6386,2.6047,2.6094,2.64,2.64,2.6475,2.661,2.6753,2.6712,2.661,2.6753,2.6712,2.661,3.5799,3.6048,3.6062,3.7942,3.7821,3.7957,3.9453,4.2821,4.6234,4.9156,5.1937,5.3027,5.1255,5.2114,5.2714,5.2529,5.4125,5.4957,5.4528,5.5615,5.576,5.4546,5.3595,5.2999,5.2804,5.2798,5.2613,5.2218,4.9493,4.4215,3.6474,2.6266,2.181,2.2378,2.3113,2.4731,2.7375,3.4248,3.9178,4.2755,4.6965,4.9482,5.0745,5.0745,5.1598,5.2621,5.1215,4.6017,3.9591,3.8212,3.2877,2.6807,2.6807,2.6807,2.6807,2.6807,2.6766,2.6746,2.678,2.6725,2.6705,2.678,2.6766,2.6753,2.678,2.6733,2.7788,3.177,2.9033,2.7532,3.2856,2.9033,2.5428,2.6484,2.5409,2.4234,2.3623,2.5785,2.6259,2.3029,2.3925,2.3612,2.0543,1.9498,1.8912,1.8721,1.8805,1.8614,1.807,1.9656,2.0702,2.0919,2.2764,2.4256,2.5321,2.6047,2.6502,2.6725,2.678,2.6807,2.678,2.6529,2.64,2.6386,2.6047,2.5952,2.6061,2.6169,2.6291,2.6475,2.661,2.6645,2.6617,2.6651,2.6645,2.6617,4.0723,4.1109,4.0975,4.3,4.2653,4.2662,4.4407,4.7382,5.0024,5.1626,5.4002,5.5445,5.5083,5.4922,5.4836,5.4842,5.4984,5.5083,5.5174,5.587,5.5878,5.4882,5.409,5.3559,5.3278,5.2987,5.2803,5.2798,5.0889,4.5073,3.5571,2.7597,2.3876,2.3924,2.4896,2.5386,2.6219,3.8308,4.4909,4.7502,5.1277,5.2792,5.2792,5.2792,5.2792,5.2792,5.2792,4.8262,4.1996,4.034,3.5094,2.8957,2.7325,2.6807,2.6807,2.6807,2.6834,2.6854,2.682,2.6807,2.6807,2.6807,2.6807,2.6807,2.6807,2.6725,2.826,3.3815,3.0184,2.7693,3.3311,2.9337,2.5159,2.5024,2.4699,2.4693,2.5308,2.6409,2.607,2.3098,2.3969,2.3323,1.9508,1.9383,1.959,1.9673,1.9661,1.9362,1.8708,1.9844,2.0767,2.1356,2.3198,2.4682,2.5728,2.6271,2.6631,2.6807,2.6807,2.6766,2.6712,2.6509,2.6373,2.6271,2.6006,2.5898,2.5925,2.6041,2.6163,2.6291,2.6447,2.6522,2.6522,2.6522,2.6522,2.6529,4.5273,4.4229,4.3254,4.7803,4.5591,4.4685,4.9185,4.9616,5.0972,5.5328,5.5385,5.489,5.4555,5.4528,5.4762,5.5344,5.4882,5.5021,5.6109,5.6242,5.6043,5.5486,5.5171,5.4717,5.4102,5.3227,5.2807,5.281,5.1664,4.2191,2.5114,2.5081,2.5059,2.5098,2.5646,2.6917,2.9576,4.4727,5.1757,5.2805,5.2792,5.2792,5.2792,5.2792,5.2792,5.2792,5.2792,5.0004,4.5619,4.127,3.6909,3.2553,2.8166,2.6807,2.682,2.6807,2.6881,2.6962,2.6834,2.6807,2.6807,2.6807,2.6807,2.6807,2.6807,2.6807,2.9013,3.6866,3.2133,2.8872,3.6423,3.1148,2.5504,2.5076,2.4598,2.5191,2.7771,2.742,2.6655,2.5996,2.5723,2.4213,2.0841,2.0505,2.0591,2.0788,2.0895,2.0908,2.0856,2.0729,2.1198,2.2363,2.4116,2.5403,2.6122,2.659,2.6807,2.6807,2.6807,2.6725,2.661,2.6468,2.6291,2.6108,2.5946,2.5898,2.5925,2.6041,2.6095,2.6122,2.6325,2.64,2.64,2.64,2.64,2.6427,5.0832,5.1592,5.1794,5.3396,5.3288,5.3354,5.4472,5.459,5.4886,5.5794,5.5551,5.5183,5.489,5.4883,5.4964,5.5138,5.5169,5.51,5.4921,5.5785,5.6236,5.6092,5.4766,5.4043,5.4009,5.3213,5.2798,5.281,5.2526,4.3449,2.6359,2.591,2.5686,2.5694,2.584,3.3631,4.6895,5.0729,5.2536,5.2793,5.2798,5.2792,5.2792,5.2792,5.2792,5.2792,5.2792,5.0004,4.5619,4.127,3.6909,3.2553,2.8166,2.6867,2.6935,2.6834,2.682,2.6827,2.682,2.6807,2.6807,2.6807,2.6807,2.6807,2.6807,2.6807,2.8233,3.3291,3.2579,3.1631,3.3436,3.1787,2.9048,2.5699,2.4514,2.4821,2.7185,2.717,2.6504,2.5443,2.5745,2.4581,2.0853,2.0648,2.0759,2.0802,2.0501,2.0594,2.1212,2.1879,2.2605,2.3347,2.4772,2.583,2.6488,2.6698,2.6807,2.6807,2.6807,2.678,2.6725,2.6502,2.6366,2.6312,2.602,2.5898,2.5898,2.5939,2.6,2.6122,2.6325,2.64,2.64,2.64,2.64,2.64,5.2928,5.4349,5.4863,5.5323,5.5899,5.6273,5.616,5.5979,5.5792,5.5519,5.5183,5.489,5.4622,5.4696,5.4729,5.461,5.4843,5.507,5.5307,5.5952,5.6308,5.6306,5.4863,5.399,5.3868,5.332,5.2971,5.2815,5.2781,4.795,3.8489,3.0178,2.6159,2.5885,2.5898,3.5922,5.2813,5.2814,5.28,5.2802,5.2798,5.2792,5.2792,5.2792,5.2792,5.2792,5.2792,5.1275,4.8606,4.4252,3.9915,3.5588,3.1147,2.8509,2.6976,2.6827,2.6827,2.6888,2.682,2.6807,2.6807,2.6807,2.829,2.9783,2.9783,3.1296,3.3342,3.5434,3.4185,3.2682,3.2437,3.0384,2.7887,2.5348,2.545,2.6147,2.6995,2.6822,2.6336,2.5679,2.4803,2.3469,2.1513,2.1611,2.1668,2.1332,2.1383,2.1584,2.1937,2.3013,2.3732,2.3967,2.5214,2.6115,2.6597,2.6725,2.6807,2.6807,2.6807,2.6807,2.6786,2.659,2.6454,2.6386,2.6115,2.5946,2.5898,2.5898,2.5932,2.6027,2.6135,2.6278,2.638,2.6291,2.6366,2.6495,5.3305,5.4596,5.5097,5.5456,5.5931,5.6187,5.5979,5.5658,5.529,5.5044,5.4729,5.4415,5.4175,5.4362,5.4421,5.4208,5.4369,5.5008,5.6231,5.6317,5.6231,5.6032,5.5068,5.4219,5.3597,5.3407,5.3139,5.2792,5.2793,5.1445,4.854,3.3728,2.6515,2.6154,2.8787,3.8488,5.2794,5.2779,5.2792,5.2792,5.2792,5.2792,5.2792,5.2792,5.2792,5.2792,5.2792,5.2792,5.2139,4.7763,4.3502,3.9219,3.4718,3.039,2.6976,2.6827,2.6888,2.6935,2.6834,2.6807,2.6807,2.6807,2.9582,3.2491,3.3151,3.6155,3.8761,3.8523,3.6035,3.3401,3.1789,2.8574,2.5815,2.4729,2.613,2.7221,2.6855,2.6026,2.5665,2.6203,2.3797,2.2212,2.2485,2.2814,2.2764,2.2167,2.2669,2.2958,2.284,2.4022,2.4636,2.4544,2.5573,2.6305,2.6624,2.6725,2.6807,2.6807,2.6807,2.6807,2.6807,2.6665,2.6529,2.638,2.6224,2.6041,2.5898,2.5925,2.5925,2.5898,2.5952,2.6135,2.6346,2.6217,2.6346,2.6577,5.4186,5.4735,5.5258,5.6006,5.6059,5.6006,5.6214,5.575,5.529,5.5044,5.4729,5.4501,5.4442,5.4468,5.4622,5.4898,5.4675,5.5,5.6209,5.6304,5.584,5.4823,5.46,5.4004,5.2964,5.2921,5.2866,5.2792,5.2807,4.5279,3.0782,2.8058,2.6759,2.7298,4.2047,5.0178,5.2794,5.2779,5.2792,5.2792,5.2792,5.2792,5.2792,5.2792,5.2792,5.2792,5.2792,5.2792,5.2139,4.7763,4.3502,3.9219,3.4718,3.039,2.6976,2.6827,2.682,2.6834,2.6807,2.6807,2.6807,2.6807,2.7311,2.8765,3.2454,3.3806,3.43,3.4262,3.6461,3.6115,2.8696,2.9172,2.9287,2.5036,2.385,2.4118,2.6042,2.3918,2.3235,2.6189,2.4441,2.313,2.3456,2.3185,2.3045,2.3162,2.3058,2.3253,2.3836,2.4663,2.5268,2.5634,2.6122,2.6488,2.6766,2.678,2.6807,2.6807,2.6807,2.6807,2.6807,2.6665,2.6529,2.64,2.6366,2.6189,2.5925,2.6027,2.6,2.5925,2.6203,2.6257,2.6176,2.6434,2.6475,2.6454,5.4421,5.489,5.5344,5.5765,5.5979,5.6059,5.5851,5.5584,5.5243,5.4783,5.4596,5.4501,5.4501,5.4501,5.4569,5.477,5.4893,5.507,5.5302,5.5311,5.5089,5.4524,5.4485,5.3976,5.2828,5.2807,5.2792,5.2792,5.2814,4.8695,4.0792,4.0815,4.0796,4.1156,4.9208,5.2801,5.2813,5.2779,5.2792,5.2792,5.2792,5.2792,5.2792,5.2792,5.2792,5.2792,5.2792,5.2792,5.2502,5.0635,4.5603,3.9746,3.7668,3.2461,2.7084,2.6854,2.6807,2.6807,2.6807,2.8503,3.0288,3.0288,3.3827,3.7825,3.9834,4.2117,4.3124,4.0805,3.9873,3.7542,3.1103,2.8963,2.7346,2.4711,2.4707,2.4785,2.4088,2.4053,2.421,2.4531,2.3915,2.3632,2.3999,2.3831,2.3695,2.3682,2.3628,2.3763,2.4192,2.4842,2.5458,2.5986,2.64,2.6658,2.6807,2.6807,2.6807,2.6807,2.6807,2.6807,2.6807,2.6725,2.6624,2.6509,2.6441,2.6257,2.6,2.6006,2.5946,2.5925,2.6061,2.6115,2.6129,2.6393,2.6509,2.6529,5.4549,5.4976,5.5344,5.5376,5.5771,5.5905,5.5391,5.529,5.513,5.4555,5.4501,5.4501,5.4501,5.4501,5.4549,5.4629,5.498,5.5116,5.4922,5.4646,5.4507,5.4508,5.4244,5.3701,5.282,5.2779,5.2792,5.2792,5.2808,5.2808,5.2808,5.2798,5.2798,5.2814,5.2794,5.2795,5.28,5.2779,5.2792,5.2792,5.2792,5.2792,5.2792,5.2792,5.2792,5.2812,5.2912,5.2919,5.2933,5.3147,4.7448,4.0256,4.0137,3.415,2.7111,2.6875,2.6807,2.6807,2.6807,2.9974,3.3294,3.3294,3.9084,4.5055,4.6084,4.8885,5.0342,4.7004,4.2752,3.8284,3.3766,2.878,2.535,2.5504,2.5874,2.5819,2.4862,2.5209,2.5278,2.4503,2.4147,2.4107,2.4476,2.449,2.436,2.4121,2.4224,2.4387,2.4577,2.5099,2.5668,2.6237,2.661,2.6807,2.6807,2.6807,2.6807,2.6807,2.6807,2.6807,2.6807,2.6807,2.6733,2.6597,2.6495,2.6305,2.6095,2.5986,2.5939,2.5898,2.5939,2.6,2.6122,2.6366,2.6502,2.661,5.4857,5.499,5.5097,5.535,5.545,5.537,5.507,5.5044,5.489,5.4549,5.4501,5.4501,5.4501,5.4501,5.4649,5.5019,5.4758,5.5011,5.6107,5.512,5.4481,5.4501,5.3497,5.29,5.2781,5.2807,5.2792,5.2792,5.2779,5.2779,5.2779,5.2813,5.2781,5.2815,5.2794,5.2794,5.2781,5.28,5.2792,5.2792,5.2792,5.2792,5.2792,5.2792,5.2792,5.2866,5.3232,5.33,5.3173,5.318,4.7529,4.04,3.9975,3.392,2.6989,2.6827,2.6807,2.6807,2.6807,2.9974,3.3294,3.3294,3.6809,4.133,4.5376,4.6541,4.6704,4.6384,4.2822,3.8398,3.3897,2.9013,2.6415,2.8747,2.5853,2.5462,3.1699,2.7093,2.4588,2.8691,2.6526,2.4826,2.5099,2.5018,2.4894,2.4745,2.4867,2.507,2.5395,2.5817,2.6257,2.6725,2.678,2.6807,2.6807,2.6807,2.6807,2.6807,2.6807,2.6807,2.6807,2.6807,2.6733,2.6597,2.659,2.64,2.6088,2.6095,2.6,2.5925,2.6041,2.6095,2.6149,2.6475,2.659,2.661,5.4435,5.475,5.5044,5.5151,5.529,5.529,5.5044,5.499,5.4883,5.4549,5.4501,5.4501,5.4501,5.4501,5.4549,5.4696,5.4589,5.4678,5.5146,5.476,5.4504,5.4485,5.3399,5.2814,5.2807,5.2815,5.2814,5.2814,5.2813,5.2792,5.2792,5.2792,5.2813,5.2814,5.355,5.3457,5.2794,5.2814,5.2794,5.2792,5.2792,5.28,5.2814,5.2813,5.28,5.2834,5.2979,5.3165,5.3304,5.3226,4.7393,4.0177,4.0077,3.4047,2.6976,2.6827,2.6807,2.6807,2.6807,3.1953,3.7319,3.7319,4.2641,4.8302,4.9965,5.0322,5.0322,5.0322,4.4714,3.9247,3.7456,3.0931,2.6055,2.6706,2.6874,2.7043,2.7441,2.7124,2.6757,2.6557,2.5578,2.5057,2.5361,2.5233,2.5146,2.5231,2.5293,2.5443,2.5722,2.6169,2.6522,2.6786,2.6807,2.6807,2.6807,2.6807,2.6807,2.6807,2.6807,2.6807,2.6807,2.6807,2.6766,2.6712,2.6645,2.6488,2.6278,2.6149,2.6027,2.5898,2.5946,2.6027,2.6122,2.638,2.6529,2.661,5.4249,5.4649,5.499,5.499,5.5157,5.5183,5.4883,5.4777,5.4643,5.4415,5.4362,5.4362,5.4362,5.4442,5.4501,5.4501,5.4518,5.4674,5.5046,5.4711,5.4352,5.3987,5.3567,5.334,5.332,5.332,5.3154,5.2781,5.2801,5.2807,5.2807,5.2807,5.2794,5.2821,5.3625,5.3512,5.2801,5.2801,5.2794,5.2792,5.2792,5.28,5.2841,5.3205,5.3245,5.308,5.308,5.3246,5.3478,5.3407,4.7413,4.0076,4.0077,3.4033,2.6922,2.6834,2.6807,2.682,2.6861,3.3252,3.9915,3.9814,4.6337,5.2792,5.2792,5.2792,5.2792,5.2792,4.588,3.9773,3.9692,3.215,2.6615,2.8647,2.8396,2.8343,2.9449,2.8651,2.7638,2.6794,2.5832,2.5315,2.5612,2.5464,2.5403,2.5551,2.5612,2.5769,2.6101,2.6475,2.6698,2.6807,2.6807,2.6807,2.6807,2.6807,2.6807,2.6807,2.6807,2.6807,2.6807,2.6807,2.6807,2.678,2.661,2.6495,2.6386,2.6156,2.5973,2.5898,2.5898,2.602,2.6224,2.6352,2.6502,2.6678,5.4442,5.4756,5.499,5.499,5.499,5.4883,5.4549,5.4275,5.4088,5.4088,5.4088,5.4088,5.4088,5.4335,5.4501,5.4501,5.4501,5.5005,5.6204,5.5156,5.4007,5.2861,5.3906,5.4494,5.4506,5.4506,5.3942,5.2804,5.2827,5.2815,5.2815,5.2815,5.2781,5.2804,5.2827,5.2781,5.2798,5.2814,5.2812,5.2792,5.2792,5.2792,5.2925,5.4063,5.4172,5.3713,5.3686,5.3686,5.3694,5.3694,4.7698,4.0199,3.9854,3.3786,2.6807,2.6807,2.6807,2.6834,2.6955,3.3458,4.0117,3.9874,4.6364,5.2792,5.2792,5.2792,5.2792,5.2753,4.584,3.9793,3.9773,3.2269,2.8517,3.5902,3.0324,2.9009,4.0372,3.2207,2.6591,3.0767,2.7966,2.5749,2.5884,2.5776,2.5694,2.5694,2.583,2.6122,2.657,2.6733,2.6807,2.6807,2.6807,2.6807,2.6807,2.6807,2.6807,2.6807,2.6807,2.6807,2.6807,2.6807,2.6807,2.678,2.6522,2.64,2.6366,2.604,2.5898,2.5898,2.5898,2.6101,2.64,2.64,2.657,2.6807,5.3968,5.4329,5.4655,5.4655,5.4655,5.4629,5.4522,5.4275,5.4088,5.4088,5.3948,5.3888,5.4082,5.4168,5.4308,5.4501,5.4518,5.4645,5.5001,5.4719,5.4341,5.4029,5.4323,5.4493,5.4499,5.45,5.4332,5.3995,5.3996,5.3581,5.2793,5.2793,5.3246,5.3983,5.3608,5.32,5.2814,5.3246,5.3352,5.3212,5.2912,5.2795,5.2831,5.3174,5.3694,5.4211,5.3842,5.3708,5.364,5.3219,4.9218,4.3395,3.7174,3.1373,2.6807,2.6807,2.6807,2.6834,2.6955,3.3332,3.9975,4.0239,4.674,5.3086,5.3086,5.2953,5.1935,4.8865,4.373,3.8862,3.5811,3.0347,2.6958,2.8934,2.9353,2.9618,3.0169,2.977,2.8916,2.7528,2.6373,2.5749,2.5884,2.5776,2.5741,2.583,2.6094,2.6352,2.659,2.6733,2.6807,2.6807,2.6807,2.6807,2.6807,2.6807,2.6807,2.6807,2.6807,2.6807,2.6807,2.6807,2.6807,2.6807,2.6712,2.657,2.638,2.6291,2.6122,2.5898,2.5898,2.602,2.6224,2.6352,2.6502,2.6658,5.3721,5.4135,5.4501,5.4501,5.4501,5.4501,5.4501,5.4275,5.4088,5.4088,5.3968,5.3915,5.4082,5.4175,5.4335,5.4501,5.4485,5.4489,5.4489,5.45,5.4501,5.4501,5.4504,5.4504,5.4501,5.4504,5.4485,5.4485,5.4494,5.415,5.3465,5.346,5.3614,5.3822,5.3507,5.314,5.2835,5.3199,5.3285,5.3159,5.3157,5.3014,5.2852,5.3294,5.3895,5.4466,5.4137,5.3828,5.3533,5.3167,4.8893,4.2522,3.5505,3.0308,2.6807,2.6807,2.6807,2.7207,2.9059,3.4761,4.0627,4.2574,4.8111,5.3066,5.3173,5.2986,5.2034,4.9422,4.4031,3.8963,3.6291,3.0653,2.6847,2.8241,2.8853,2.8907,2.8148,2.8736,2.8432,2.6226,2.5898,2.5925,2.6081,2.5952,2.5952,2.6176,2.6366,2.6549,2.6658,2.6773,2.6807,2.6807,2.6807,2.6807,2.6807,2.6807,2.6807,2.6807,2.6807,2.6807,2.6807,2.6807,2.6807,2.6807,2.6725,2.6624,2.6468,2.6427,2.6271,2.6094,2.6094,2.6189,2.6298,2.6434,2.6556,2.6705,5.3721,5.4162,5.4501,5.4501,5.4501,5.4501,5.4501,5.4275,5.4088,5.4088,5.4082,5.4062,5.4088,5.4335,5.4468,5.4501,5.4501,5.4501,5.4501,5.4501,5.4501,5.4501,5.4501,5.4501,5.4501,5.4501,5.4501,5.4501,5.4485,5.4493,5.4493,5.4507,5.3889,5.2791,5.2781,5.2815,5.2815,5.2827,5.2866,5.2932,5.3473,5.3362,5.2979,5.3962,5.4396,5.4495,5.4364,5.3989,5.348,5.3394,4.7487,3.9408,3.4913,3.0417,2.6807,2.6807,2.6807,2.7795,3.2288,3.6971,4.1653,4.593,4.9903,5.2872,5.3147,5.2986,5.2575,5.1796,4.5316,3.9652,3.9088,3.242,2.8316,3.2333,2.9347,2.7891,3.1887,2.8796,2.6176,2.6386,2.6237,2.6196,2.6386,2.6237,2.6257,2.657,2.6597,2.6665,2.6786,2.6807,2.6807,2.6807,2.6807,2.6807,2.6807,2.6807,2.6807,2.6807,2.6807,2.6807,2.6807,2.6807,2.6807,2.6786,2.6658,2.661,2.659,2.6468,2.64,2.6366,2.638,2.6447,2.6542,2.6577,2.6665,2.6766,5.4002,5.4275,5.4501,5.4501,5.4501,5.4501,5.4501,5.4275,5.4088,5.4088,5.3915,5.3882,5.4082,5.4148,5.4275,5.4468,5.4501,5.4501,5.4501,5.4501,5.4501,5.4501,5.4501,5.4501,5.4501,5.4501,5.4501,5.4501,5.4503,5.4497,5.4497,5.4493,5.39,5.2797,5.2807,5.2815,5.2835,5.3147,5.3353,5.3521,5.3632,5.3614,5.3486,5.3246,5.3728,5.4391,5.3489,5.3647,5.4118,5.3245,4.8578,4.2207,3.6737,3.1242,2.6807,2.6807,2.6807,2.7795,3.2288,3.6665,4.1114,4.5841,4.9903,5.2872,5.3147,5.2986,5.0858,4.4031,4.1107,3.8681,3.5029,3.2865,3.2966,3.6993,3.4079,3.1647,3.2649,2.9057,2.6352,2.638,2.6373,2.6352,2.64,2.6373,2.6393,2.659,2.6597,2.6665,2.6786,2.6807,2.6807,2.6807,2.6807,2.6807,2.6807,2.6807,2.6807,2.6807,2.6807,2.6807,2.6807,2.6807,2.6807,2.6807,2.6766,2.6705,2.6597,2.6577,2.64,2.6183,2.6346,2.6257,2.6074,2.6352,2.6447,2.6509,5.4055,5.4222,5.4355,5.4468,5.4501,5.4501,5.4501,5.4382,5.4282,5.4282,5.4168,5.4142,5.4275,5.4282,5.4355,5.4501,5.4501,5.4501,5.4501,5.4501,5.4493,5.4504,5.4504,5.4504,5.4504,5.4504,5.4485,5.4501,5.4501,5.4501,5.4501,5.4486,5.3875,5.2807,5.3087,5.306,5.2834,5.3167,5.3287,5.3293,5.3573,5.3513,5.3227,5.2899,5.3507,5.434,5.3209,5.3177,5.3607,5.3012,5.0774,4.676,3.8216,3.1496,2.6807,2.6807,2.6807,2.8222,3.4747,3.8204,4.156,4.8127,5.1393,5.304,5.3173,5.2986,5.0918,4.4272,4.1249,3.9045,3.6547,3.4464,3.4434,3.8528,3.5537,3.2755,3.2877,2.9082,2.6325,2.6475,2.6441,2.6441,2.6495,2.6542,2.6624,2.6705,2.6705,2.6733,2.6807,2.6807,2.6807,2.6807,2.6807,2.6807,2.6807,2.6807,2.6807,2.6807,2.6807,2.6807,2.6807,2.6807,2.6807,2.6807,2.6807,2.6773,2.6705,2.6705,2.659,2.6454,2.6488,2.638,2.6257,2.6441,2.6509,2.6509,5.4015,5.4142,5.4249,5.4448,5.4501,5.4501,5.4442,5.4468,5.4501,5.4442,5.4468,5.4501,5.4501,5.4501,5.4501,5.4501,5.4501,5.4501,5.4501,5.4508,5.4518,5.4504,5.4702,5.4811,5.4799,5.4613,5.4495,5.4501,5.4501,5.4501,5.4501,5.4487,5.3902,5.2825,5.332,5.3377,5.309,5.3113,5.3007,5.284,5.3425,5.3438,5.3072,5.2874,5.3373,5.4111,5.3131,5.2801,5.2793,5.2794,5.1796,4.8628,3.7529,3.0687,2.6807,2.6807,2.6807,2.8703,3.7439,3.9976,4.2171,5.0677,5.2979,5.3147,5.3147,5.296,5.1552,4.7184,4.3428,4.0863,4.0715,3.7758,3.6471,3.9866,3.6715,3.3618,3.3012,2.9057,2.6298,2.657,2.6509,2.6495,2.661,2.6719,2.6787,2.6807,2.6807,2.6807,2.6807,2.6807,2.6807,2.6807,2.6807,2.6807,2.6807,2.6807,2.6807,2.6807,2.6807,2.6807,2.6807,2.6807,2.6807,2.6807,2.6807,2.6807,2.6807,2.6807,2.6766,2.6712,2.6624,2.6556,2.6529,2.657,2.659,2.6577,5.4142,5.4282,5.4448,5.4501,5.4501,5.4421,5.4175,5.4341,5.4421,5.4175,5.4362,5.4501,5.4501,5.4501,5.4501,5.4501,5.4501,5.4501,5.4501,5.4489,5.4499,5.4504,5.5512,5.6042,5.6073,5.5011,5.4495,5.4501,5.4501,5.4501,5.4501,5.4487,5.3902,5.2798,5.2881,5.3414,5.4215,5.3259,5.2848,5.2835,5.3287,5.3772,5.4157,5.3194,5.2901,5.3018,5.288,5.2779,5.2815,5.28,4.7796,3.9955,3.084,2.7437,2.6807,2.6807,2.6807,2.8703,3.7439,3.9834,4.1938,5.062,5.2846,5.2853,5.2853,5.2846,5.1552,4.7184,4.584,4.535,4.5096,4.4772,4.4601,4.4888,4.1479,3.7471,3.3633,2.9411,2.6685,2.661,2.657,2.6624,2.6773,2.6678,2.6678,2.678,2.6807,2.6807,2.6807,2.6807,2.6807,2.6807,2.6807,2.6807,2.6807,2.6807,2.6807,2.6807,2.6807,2.6807,2.6807,2.6807,2.6807,2.6807,2.6807,2.6807,2.6807,2.6807,2.6665,2.6447,2.6556,2.6413,2.6203,2.6481,2.6529,2.6434,5.4221,5.418,5.4145,5.4448,5.4341,5.4241,5.4315,5.4168,5.4135,5.4308,5.4308,5.4335,5.4501,5.4501,5.4501,5.4501,5.4501,5.4501,5.4501,5.45,5.4801,5.5485,5.6015,5.629,5.6297,5.5101,5.4508,5.4485,5.4503,5.4503,5.4485,5.4514,5.3882,5.2814,5.2795,5.3072,5.354,5.3385,5.3093,5.2827,5.2981,5.3259,5.3504,5.2981,5.2814,5.2779,5.2801,5.2781,5.2781,5.28,5.0243,4.553,3.6804,3.0728,2.6807,2.6807,2.6807,2.8358,3.5478,3.858,4.1895,5.062,5.2792,5.2792,5.2792,5.2792,5.1552,4.7184,4.63,4.6257,4.6159,4.6233,4.6257,4.6096,4.2399,3.7964,3.3556,2.9172,2.6427,2.6475,2.6495,2.6502,2.657,2.6529,2.6542,2.6678,2.6705,2.6712,2.6807,2.6807,2.6807,2.6807,2.6807,2.6807,2.6807,2.6807,2.6807,2.6807,2.6807,2.6807,2.6807,2.6807,2.6807,2.6807,2.6807,2.6807,2.6807,2.6807,2.6725,2.661,2.6529,2.6393,2.6298,2.6434,2.6509,2.6529]}]]